GFSSE_925_rhum_000.txt.gz
RH
64 65 74 95 96 77 79 82 79 70 72 72 63 80 79 82 80 70 64 66 69 71 74 74 78 84 81 78 78 78 80 75 82 85 77 68 78 87 83 73 78 65 73
56 62 82 93 91 76 82 88 80 72 73 81 75 67 72 68 64 69 67 72 73 70 73 76 73 71 80 84 74 65 76 74 78 78 68 59 59 72 76 70 70 75 76
57 62 90 88 79 81 86 85 75 73 77 80 78 68 69 72 72 72 70 71 70 71 77 78 78 78 83 78 79 75 70 74 85 81 60 60 60 71 80 78 68 78 87
57 61 69 82 86 78 78 68 72 80 87 81 73 69 69 78 69 75 71 72 76 82 84 74 69 76 82 72 78 81 69 75 86 76 62 56 59 66 81 75 75 82 86
59 63 72 90 79 73 75 66 72 79 92 88 78 74 82 85 77 72 68 72 72 76 85 85 83 84 87 85 78 82 77 78 84 68 60 60 70 63 78 80 75 75 86
58 65 81 83 72 75 75 77 75 74 82 91 87 81 82 84 79 70 73 71 70 72 85 85 85 84 86 87 87 86 76 79 87 69 59 60 74 71 78 78 78 79 83
58 65 74 75 72 83 76 76 74 76 73 85 85 82 79 82 83 79 70 74 75 84 88 86 87 86 85 84 83 82 77 75 76 72 65 58 64 74 85 81 77 80 80
63 73 70 76 81 81 70 71 72 73 73 77 84 83 74 81 87 76 82 74 73 81 88 74 73 87 85 90 88 86 85 77 75 78 67 65 61 80 85 84 77 77 78
68 74 72 74 89 77 79 76 73 75 74 73 78 82 80 75 75 78 76 72 76 75 78 84 79 78 89 78 86 90 85 80 76 63 64 67 63 74 84 82 82 82 79
75 76 75 76 77 78 81 85 80 78 76 82 81 76 72 69 74 76 76 78 77 77 77 88 85 84 80 80 75 77 75 76 70 64 62 63 77 86 80 80 83 82 79
74 76 78 75 76 77 77 78 85 82 79 85 83 80 70 68 71 75 75 75 70 69 72 86 91 88 82 74 74 77 78 69 58 55 55 58 75 90 87 82 80 83 81
55 67 75 78 77 79 82 80 79 75 77 73 75 72 66 65 69 81 80 74 71 70 73 74 75 74 78 72 65 71 75 65 64 62 57 59 72 80 79 83 82 79 81
43 53 70 77 79 80 81 78 75 76 76 75 77 75 72 71 68 73 74 76 75 76 78 72 73 71 68 69 68 67 67 70 68 66 64 66 72 82 81 74 80 83 77
46 48 56 68 77 82 80 81 75 75 76 74 75 76 75 72 74 74 72 74 75 73 74 76 74 73 73 72 70 68 68 69 69 67 66 69 71 65 75 80 73 72 78
46 49 53 59 69 77 84 80 78 74 74 72 77 77 78 77 76 76 76 76 77 77 77 76 76 73 73 72 72 72 71 70 69 68 68 70 73 74 64 72 81 76 69
42 44 46 53 60 67 76 80 77 75 74 76 77 79 82 82 81 82 81 78 77 78 78 78 76 77 76 75 74 74 74 73 72 72 72 71 74 76 72 67 79 83 80
39 45 45 49 52 63 71 77 76 78 80 78 78 80 83 82 82 83 82 81 78 80 81 81 80 79 78 76 75 74 73 72 70 70 70 70 71 74 76 74 78 85 84
42 46 53 56 57 63 68 74 72 75 77 78 78 78 79 80 83 84 83 82 83 82 80 78 77 75 74 74 76 76 76 74 70 70 69 68 66 68 68 70 70 73 90
46 51 53 57 61 67 70 72 73 75 74 76 78 80 86 87 88 85 80 73 69 70 69 70 68 70 75 70 73 73 71 71 68 67 67 67 66 68 68 68 70 71 71
50 55 58 64 66 68 70 73 76 78 77 71 64 61 58 53 55 55 51 48 49 48 47 46 48 48 49 51 53 53 60 55 56 58 58 59 64 68 69 70 70 70 70
46 51 59 67 67 64 66 66 62 58 54 53 52 49 46 45 44 45 44 42 43 43 44 45 45 45 42 42 43 43 42 42 42 41 65 52 44 50 59 60 69 75 71
43 45 52 63 68 72 72 62 56 55 54 53 53 51 48 44 43 41 43 42 45 44 44 46 47 47 42 42 43 45 42 40 34 42 43 38 40 40 49 66 70 72 73
47 48 50 55 57 53 51 52 53 55 51 49 48 46 46 43 39 40 40 38 38 39 39 40 39 42 42 38 42 42 47 49 47 42 42 38 41 40 40 45 50 48 50
54 54 52 51 52 53 50 49 46 44 45 46 44 44 40 40 33 31 32 33 32 33 35 35 33 39 42 39 39 40 43 43 50 53 38 41 38 45 42 44 46 46 46
56 56 53 51 50 50 49 45 42 42 44 43 40 36 35 34 31 27 27 30 29 29 31 34 34 38 40 38 36 43 44 43 44 48 55 39 38 34 34 37 40 44 46
59 57 53 50 51 51 48 46 45 41 37 35 33 27 24 22 24 26 26 27 28 30 30 31 33 41 41 34 37 40 45 44 42 38 37 40 38 36 30 36 42 45 47

GFSSE_925_rhum_003.txt.gz
RH
51 70 79 95 91 76 91 85 86 68 65 65 65 78 83 86 78 75 80 69 69 69 75 76 78 87 87 80 79 75 74 79 73 72 76 71 68 77 77 84 78 69 69
46 62 72 96 92 90 91 83 86 70 68 67 71 72 73 71 68 68 65 77 67 70 77 81 78 80 84 87 80 77 72 75 84 85 70 60 56 62 77 80 74 81 87
44 57 82 88 77 75 88 84 83 72 75 71 72 70 64 70 67 63 71 74 73 71 79 78 80 76 82 86 79 78 76 68 78 86 68 66 55 68 76 81 77 82 93
43 55 68 80 74 75 82 77 75 82 83 75 74 71 73 75 74 72 70 68 75 76 83 82 65 76 76 85 82 83 76 67 74 74 65 53 53 63 69 79 77 78 86
44 50 68 73 77 78 74 71 74 76 86 84 77 75 84 83 81 78 73 70 73 70 82 83 81 81 86 84 86 82 80 75 83 80 62 56 61 62 77 78 77 73 75
44 50 80 80 83 70 74 76 72 75 77 88 85 82 77 86 86 79 69 71 71 74 83 85 85 85 81 78 80 80 74 74 77 70 63 56 59 68 75 80 77 78 78
43 52 76 86 84 72 77 75 74 74 69 74 83 81 83 89 88 87 80 73 72 74 81 81 83 86 88 84 84 83 81 75 72 66 69 62 57 61 72 80 79 78 80
46 56 68 74 72 71 74 68 69 68 69 70 70 80 83 80 81 86 86 78 68 71 74 75 81 80 90 88 86 89 84 75 72 64 67 66 65 65 73 82 80 81 76
50 57 59 71 79 75 71 78 77 72 71 72 78 78 86 75 77 78 80 78 71 73 82 86 80 83 83 87 93 89 72 69 78 65 60 59 60 70 72 75 83 81 79
54 57 58 60 69 75 77 72 72 77 74 75 80 78 69 66 63 70 72 75 79 75 66 73 88 87 86 87 76 71 71 74 80 70 63 60 58 68 76 78 78 80 79
56 58 59 59 62 62 62 76 75 74 78 80 82 77 73 66 63 67 63 66 58 60 65 74 90 91 78 71 70 68 71 80 68 59 52 52 54 65 74 82 82 80 80
47 55 58 59 61 64 64 66 72 67 73 70 67 65 60 55 58 69 66 69 70 72 77 73 75 73 80 81 62 62 78 66 62 60 61 61 59 66 72 78 81 81 81
36 43 55 60 62 63 65 66 62 63 64 60 62 63 62 63 61 64 65 68 72 71 76 71 72 72 66 67 67 64 62 62 63 64 64 63 65 72 76 81 84 79 78
34 39 48 57 64 64 65 70 61 61 62 60 61 63 63 62 65 66 66 70 72 70 71 72 71 70 69 68 66 65 64 65 65 64 65 65 66 70 78 84 89 87 81
34 40 44 51 58 65 69 65 64 61 63 60 66 68 69 69 69 70 70 70 72 72 73 71 70 67 66 66 66 65 65 64 65 65 67 68 68 69 72 82 87 92 87
34 40 43 47 51 59 65 68 66 64 62 65 67 70 74 74 75 76 75 72 72 72 71 72 72 70 68 66 66 67 64 62 62 63 64 66 67 70 71 74 86 91 95
34 38 38 41 45 54 63 68 66 67 69 68 70 71 73 74 76 77 75 74 77 74 72 67 65 64 62 60 59 60 62 63 63 61 60 60 64 66 66 67 71 86 92
35 39 47 50 47 52 58 66 64 65 67 69 69 69 74 76 80 77 74 68 60 59 56 54 50 49 50 50 52 56 57 57 56 56 57 57 58 61 62 63 64 66 72
39 42 48 50 51 56 62 64 65 65 65 69 70 71 64 60 60 54 47 43 40 42 40 40 39 40 41 41 42 42 42 46 51 47 47 51 51 53 59 63 64 65 66
44 47 51 54 56 59 61 63 66 62 53 48 45 44 42 40 42 41 39 38 38 38 40 42 41 43 43 42 40 41 42 40 40 41 44 46 40 39 36 38 52 61 59
44 49 54 54 56 58 61 59 54 51 50 48 45 41 39 38 36 39 39 38 40 40 39 38 36 38 37 37 37 40 40 34 34 38 35 35 38 38 35 38 42 55 62
40 47 51 57 60 56 53 53 51 49 46 46 45 40 37 35 35 34 36 33 33 33 33 33 31 34 32 33 36 37 43 37 35 36 36 36 34 37 36 37 43 44 46
41 46 49 49 49 51 52 52 49 46 42 39 39 39 38 33 28 28 29 28 27 28 29 29 27 32 37 33 32 33 43 45 40 38 34 33 32 31 34 34 34 35 36
46 45 44 45 44 44 42 40 38 37 37 39 38 38 34 33 27 24 26 28 27 26 29 30 28 34 36 34 31 28 32 33 43 43 32 35 30 28 28 32 29 28 28
47 46 43 43 42 41 38 36 36 37 38 36 34 31 26 26 25 26 25 27 28 29 30 32 32 34 38 33 29 33 32 35 34 36 39 34 29 29 30 30 31 33 36
51 48 45 43 43 42 42 40 39 36 34 33 29 26 22 20 22 25 26 26 27 29 30 29 30 32 36 34 33 33 30 33 35 33 34 36 38 39 39 38 40 41 38

GFSSE_925_rhum_006.txt.gz
RH
62 66 82 96 79 80 93 80 81 80 70 64 73 79 92 88 78 76 79 78 66 69 78 85 85 88 90 92 91 83 74 65 73 77 69 64 59 64 84 76 64 78 78
59 66 88 92 84 96 96 85 80 77 66 70 70 79 74 71 66 69 75 75 68 68 77 82 86 84 89 89 86 81 69 74 76 77 70 61 57 58 72 78 78 77 94
57 75 80 82 72 81 86 82 77 76 72 78 70 65 65 65 66 66 75 76 71 71 80 80 79 81 82 88 78 73 72 77 69 71 63 54 54 61 76 76 73 79 87
54 69 82 81 72 72 76 77 80 85 82 78 73 71 67 72 67 64 65 68 73 73 82 82 79 80 80 82 84 85 80 76 73 74 70 59 56 77 76 78 78 76 82
46 63 77 65 67 71 72 64 76 87 79 78 75 69 76 77 86 79 64 67 71 71 73 84 83 78 75 82 81 84 81 75 73 72 73 62 58 65 81 81 79 77 76
46 60 73 69 74 72 72 74 68 71 80 88 82 65 79 89 88 87 66 67 70 75 74 85 86 88 88 84 80 75 76 81 80 71 66 68 58 59 69 79 84 80 79
47 66 71 76 77 67 73 76 70 70 69 75 78 70 85 90 79 87 82 75 73 70 74 79 77 82 89 93 88 88 84 63 53 57 66 65 68 61 62 73 80 81 79
48 63 66 82 73 65 72 68 67 71 70 70 70 67 84 78 82 84 85 80 78 70 83 78 78 81 85 91 94 93 93 79 70 70 67 62 61 68 68 69 78 80 81
50 57 69 68 65 67 70 76 75 72 74 75 82 72 68 66 71 74 76 73 69 68 68 78 88 85 80 85 87 90 88 75 71 64 63 64 62 66 70 75 74 78 82
51 56 61 72 75 67 66 69 69 73 77 76 77 75 66 55 61 65 66 70 74 77 64 54 63 83 87 76 74 59 60 66 70 65 67 60 59 63 66 72 78 77 77
53 55 56 60 70 73 74 74 70 69 72 73 74 68 67 55 63 68 70 67 64 55 54 58 60 66 70 72 66 65 68 69 70 69 66 60 54 59 62 68 75 80 80
51 55 57 57 60 61 62 71 75 73 74 69 71 70 64 58 58 63 62 66 71 73 73 73 73 74 73 70 69 67 64 66 69 70 64 62 62 66 67 70 75 79 84
42 50 56 58 59 63 64 65 68 66 67 65 63 62 63 62 62 65 66 66 71 74 72 72 73 72 70 70 70 70 69 67 66 64 65 64 65 69 72 75 78 82 86
34 42 51 56 60 62 65 66 62 61 62 60 61 62 63 64 65 66 68 70 70 71 73 73 73 73 71 68 67 65 65 65 66 66 67 67 67 67 73 76 79 83 87
33 38 45 53 60 64 65 66 63 60 61 62 64 67 68 70 70 73 73 74 74 76 75 74 73 73 68 66 65 62 60 64 65 64 64 64 66 68 69 72 79 82 84
34 39 42 46 54 63 68 66 65 63 61 64 65 70 74 75 77 77 74 76 77 72 70 66 63 62 61 61 59 59 60 60 59 58 61 62 61 62 63 65 70 81 83
35 36 37 41 48 57 65 68 66 66 67 68 69 71 72 74 78 75 76 64 57 57 51 50 41 41 42 43 44 47 51 56 50 53 55 56 56 56 59 61 61 64 70
36 40 46 42 43 53 64 67 64 66 68 70 70 75 75 75 70 62 48 42 39 40 40 40 41 42 44 44 44 41 41 38 44 45 42 43 47 46 46 52 62 58 63
39 46 50 47 47 56 64 65 65 66 67 62 53 49 46 46 42 40 38 38 38 41 42 41 39 41 39 39 41 36 39 40 34 40 41 32 28 31 36 39 39 38 50
46 52 54 56 58 63 64 66 61 51 46 44 42 39 38 38 37 37 38 38 36 38 36 34 34 29 34 34 34 38 30 34 27 36 34 29 35 30 35 38 34 45 38
50 54 58 59 61 63 67 53 51 49 46 43 38 35 34 34 33 29 31 31 29 33 31 30 29 32 35 34 37 36 32 32 34 25 25 38 25 34 30 26 36 32 32
54 58 59 57 57 57 53 52 50 48 45 40 38 36 31 25 23 24 23 27 25 28 26 28 28 35 38 35 37 40 56 33 32 34 38 29 36 27 28 23 25 18 30
50 51 56 58 54 54 51 49 45 43 40 40 40 36 32 24 20 20 23 25 24 27 29 28 30 34 41 36 32 37 56 58 40 36 34 34 24 31 27 27 27 30 28
48 48 48 49 50 50 48 47 41 38 40 39 36 33 30 26 23 21 24 26 26 28 27 28 29 30 37 41 37 32 33 36 47 47 36 34 29 30 30 34 32 39 36
46 45 43 41 39 37 36 35 38 39 37 35 31 26 23 24 23 20 24 24 25 23 23 23 25 28 32 36 36 35 35 33 32 42 48 38 34 33 35 36 43 37 31
47 44 42 42 42 40 39 38 37 37 35 29 26 23 20 22 22 21 20 20 23 23 24 25 25 26 27 29 28 30 35 37 38 40 44 40 41 37 38 38 40 33 34

GFSSE_925_rhum_012.txt.gz
RH
76 82 85 82 76 73 80 89 78 73 72 80 83 88 88 87 85 82 83 76 73 75 74 81 87 90 95 95 93 89 81 70 65 64 58 63 61 76 84 78 79 71 86
66 85 87 90 83 76 86 93 74 68 69 76 78 93 76 70 68 72 75 76 70 76 75 75 83 84 93 94 89 84 83 69 69 67 65 58 55 57 83 81 66 62 83
64 85 83 83 82 79 97 90 71 70 73 72 75 76 72 65 70 78 73 72 72 71 77 74 72 75 81 80 85 85 84 76 75 69 67 62 65 64 68 84 77 66 76
60 82 78 74 74 78 84 77 72 73 79 71 67 63 65 63 68 68 70 69 64 70 66 74 67 58 71 71 78 76 73 86 79 74 68 73 68 71 78 84 87 83 76
58 72 74 74 78 90 80 73 67 77 82 75 70 74 69 71 70 65 63 66 68 72 67 65 74 78 81 70 75 75 80 82 82 75 70 69 69 61 79 84 82 83 81
58 67 73 80 84 83 82 70 74 82 85 79 67 73 80 73 72 75 67 61 67 70 70 73 76 84 88 90 92 89 89 86 75 66 61 56 61 69 72 68 81 85 85
63 66 77 78 72 83 74 70 80 89 90 80 77 71 82 72 70 76 80 72 71 69 73 76 88 85 85 89 92 94 93 90 87 78 70 62 59 65 80 74 68 73 79
64 72 73 71 76 76 72 73 76 86 87 81 79 81 82 69 72 78 83 78 76 74 78 90 89 93 92 87 88 91 89 82 78 72 68 67 61 58 79 76 76 75 76
67 74 74 78 77 73 72 74 74 83 81 76 71 66 74 68 67 76 83 81 76 74 76 76 68 70 72 74 73 66 63 59 64 67 69 69 61 61 77 76 75 74 79
68 70 70 77 79 71 72 70 74 78 76 76 76 72 62 52 62 66 69 72 71 72 62 59 67 74 75 74 71 69 69 68 68 68 67 66 66 65 84 82 78 75 75
73 65 63 68 78 62 68 70 77 80 77 77 71 67 60 47 59 70 69 67 68 72 73 73 74 76 77 76 75 74 74 69 68 68 69 68 68 68 83 83 75 74 74
74 70 63 60 58 60 65 70 76 75 74 70 65 67 64 63 65 67 67 68 71 75 75 75 77 78 76 68 64 67 73 69 68 71 72 69 70 70 83 80 77 79 81
56 66 66 63 66 67 68 72 74 74 70 69 68 68 67 63 63 66 69 70 72 75 76 79 77 75 74 70 65 60 57 59 66 65 61 57 58 75 78 76 75 78 79
53 58 62 64 66 72 74 77 76 73 73 72 71 69 69 68 67 70 69 72 77 80 78 73 63 54 54 54 50 47 46 48 54 49 44 44 46 54 67 70 73 75 76
45 52 58 62 64 70 74 71 73 70 71 68 70 68 69 71 66 73 75 76 70 65 52 51 52 49 47 44 41 40 42 41 41 40 40 42 41 40 42 59 63 68 73
30 47 54 61 64 68 68 68 69 68 71 63 63 68 67 71 76 73 64 50 46 46 45 44 40 36 37 34 30 34 35 34 33 39 40 30 33 27 38 55 55 67 61
35 43 54 59 62 66 69 70 66 63 62 67 70 71 76 72 78 57 51 47 44 44 39 35 31 26 22 23 22 21 22 21 33 37 26 26 36 25 32 44 54 46 44
43 51 55 58 64 68 70 68 64 68 65 73 74 73 68 69 58 60 46 39 38 36 33 26 18 18 19 18 20 19 15 32 27 31 14 28 26 36 26 40 24 33 36
40 45 49 54 62 70 72 70 67 68 70 67 64 58 52 49 44 37 31 29 28 26 20 16 15 20 22 19 22 18 16 37 29 20 12 33 18 36 24 22 14 22 40
40 41 42 48 69 75 74 66 64 64 60 56 52 48 44 36 32 27 22 21 22 18 15 16 14 17 28 25 26 17 20 37 28 24 26 14 28 34 23 24 14 18 35
50 51 51 57 78 73 65 57 53 47 46 43 35 30 29 23 21 22 21 20 20 16 20 20 16 17 30 26 36 26 23 20 30 18 29 18 32 17 20 29 26 29 32
61 60 68 76 68 67 63 55 54 48 38 33 29 25 22 22 22 21 20 19 19 16 15 18 20 21 30 30 38 51 58 40 30 20 28 22 32 29 33 25 29 35 32
69 74 79 68 64 62 57 53 44 37 31 28 24 23 22 22 22 21 20 19 18 17 16 19 20 23 28 25 36 35 55 59 42 31 23 32 23 36 27 37 34 38 40
70 72 74 66 64 60 57 51 42 37 36 33 27 26 24 23 22 20 19 18 18 18 18 20 20 21 22 29 32 31 30 37 54 54 35 33 34 33 37 40 36 41 39
66 67 68 62 59 55 53 47 36 35 37 35 29 25 24 24 21 19 17 17 19 20 20 20 20 20 22 24 28 30 31 33 32 60 48 44 35 34 39 37 37 41 35
62 60 60 57 54 51 47 38 36 37 36 34 28 25 24 23 21 19 18 18 18 18 19 20 20 21 22 23 25 26 31 39 38 42 44 42 38 38 36 38 39 36 40

GFSSE_925_rhum_015.txt.gz
RH
74 79 76 71 77 80 75 89 88 72 78 81 84 87 92 92 89 85 81 78 79 75 74 80 90 87 98 97 97 89 79 75 68 66 61 55 64 80 83 85 84 80 81
62 82 83 69 83 95 96 92 90 71 75 81 83 86 87 72 80 72 75 75 76 74 70 83 87 88 94 96 89 86 85 78 69 70 66 65 57 54 82 86 84 70 79
65 82 83 73 88 93 98 96 86 75 76 77 83 90 70 66 66 76 74 75 68 72 70 71 78 76 80 82 89 91 90 86 79 71 73 67 69 66 80 83 86 85 81
65 85 84 83 86 89 98 93 87 82 76 76 74 76 72 68 71 71 71 75 72 71 71 72 65 63 68 74 79 88 87 87 87 81 71 72 71 66 82 86 83 88 84
65 79 78 80 85 91 96 86 80 85 80 72 70 70 67 66 67 66 67 75 73 73 69 70 74 78 82 78 83 80 76 78 80 72 63 65 64 69 73 83 83 80 85
58 74 74 77 83 90 84 80 80 84 84 77 82 72 72 74 72 78 68 62 67 70 68 73 73 81 84 91 94 91 91 92 84 76 72 62 56 52 81 77 74 85 86
59 71 73 74 82 85 84 76 76 88 87 81 78 75 75 72 72 76 81 71 71 70 72 77 86 89 88 88 91 85 85 86 86 80 75 70 65 57 80 82 78 73 72
55 70 75 82 82 82 81 78 84 90 92 81 78 82 86 69 71 76 77 76 78 71 75 84 83 83 87 88 87 86 82 72 68 67 70 71 71 64 79 79 80 79 78
62 70 79 82 81 82 76 77 78 84 88 80 77 85 85 69 69 81 88 83 74 70 72 70 64 71 77 83 83 79 74 72 70 70 70 69 69 69 91 87 84 80 78
69 72 76 73 81 83 79 75 72 75 77 73 72 69 67 66 67 71 72 67 69 72 69 70 74 78 79 78 77 76 77 76 74 70 71 71 72 71 77 88 90 85 83
79 78 76 78 81 80 75 75 74 77 77 78 78 76 70 55 61 66 66 68 71 75 76 78 79 79 79 76 71 72 72 74 69 66 70 71 69 70 90 90 91 89 85
87 83 78 78 79 81 75 76 76 81 80 82 76 71 64 54 63 68 69 70 72 76 78 80 81 82 78 74 71 65 60 60 67 69 67 63 74 84 80 80 79 80 85
73 81 76 72 72 77 67 70 78 82 80 79 72 71 71 68 67 68 71 72 72 75 79 82 77 67 64 58 56 52 49 48 52 52 46 45 56 70 68 68 70 74 77
66 67 68 69 70 65 64 69 74 80 76 74 70 73 73 69 68 71 68 74 81 83 79 57 53 53 51 48 44 42 42 41 42 41 42 39 41 54 64 68 69 80 80
50 58 65 68 68 68 70 73 77 76 74 73 76 75 73 71 68 67 78 73 66 54 50 49 50 46 39 35 32 31 32 33 34 39 34 35 34 47 59 61 70 65 64
25 40 57 65 67 69 75 77 76 76 74 77 75 72 70 78 76 68 62 54 49 46 43 40 36 30 25 22 20 20 20 20 38 30 24 35 28 30 50 60 54 53 54
24 24 46 59 66 70 75 76 75 77 82 76 68 76 83 73 72 64 60 52 45 40 35 29 21 17 16 15 15 18 16 34 38 26 16 34 18 30 33 45 44 46 50
34 39 47 60 65 68 72 75 78 79 74 76 78 76 76 73 70 59 52 43 35 29 22 17 15 15 15 14 14 17 16 32 26 13 22 19 14 32 25 24 34 38 50
39 43 55 61 67 72 76 78 78 76 73 73 74 67 62 62 50 49 32 26 23 20 17 15 13 16 17 13 13 13 18 35 29 24 17 15 28 25 21 24 18 20 45
45 52 60 66 72 79 81 74 72 70 67 69 60 54 58 40 30 24 22 21 20 17 15 13 13 15 24 16 15 13 20 35 37 26 16 18 18 21 23 24 14 20 32
45 47 53 66 81 79 73 64 63 60 56 52 48 44 37 26 22 22 22 21 19 16 16 15 13 14 20 22 26 20 20 24 26 28 19 18 20 26 18 20 17 25 25
50 52 52 70 81 73 67 63 65 52 42 36 30 26 23 23 23 23 22 20 18 15 14 15 17 18 19 30 33 51 56 34 32 14 22 18 24 21 17 17 21 28 30
65 65 66 74 73 69 64 58 50 42 34 28 24 23 23 24 24 23 22 20 17 15 16 18 20 21 25 22 37 29 42 54 54 29 23 28 21 29 26 25 28 31 37
75 78 74 72 70 65 60 57 52 42 31 25 24 24 24 24 23 22 20 18 17 17 17 18 20 21 24 30 26 24 27 35 54 58 34 28 33 34 32 29 32 35 35
79 83 73 70 66 59 59 58 53 41 30 27 26 25 25 24 22 20 19 18 17 17 18 19 19 20 22 26 30 33 34 32 35 64 44 44 37 34 32 33 36 34 37
79 77 69 65 60 57 56 54 51 34 31 29 26 25 24 24 22 21 19 17 16 17 17 18 20 21 23 26 27 29 33 39 43 47 52 44 42 35 33 35 37 36 38

GFSSE_925_rhum_018.txt.gz
RH
71 79 79 74 74 78 80 87 84 71 66 79 84 87 96 92 89 85 82 81 76 70 77 80 82 96 94 98 97 96 87 81 75 71 67 62 60 74 88 84 86 85 74
61 78 80 69 81 91 94 91 84 75 82 83 84 88 87 81 81 81 77 76 80 69 72 87 88 88 92 96 91 90 88 84 75 68 69 64 63 63 84 88 88 78 76
62 77 76 71 83 96 97 94 82 74 82 81 86 92 77 73 67 72 74 76 74 76 74 82 81 83 85 88 92 93 91 90 88 79 77 70 70 67 86 86 89 88 83
61 79 77 73 92 95 98 95 82 82 79 79 90 82 69 68 69 67 69 75 79 79 73 70 67 68 67 70 70 82 86 86 88 84 70 69 70 68 81 82 84 85 87
70 79 80 80 92 94 98 88 89 84 78 77 73 74 70 68 68 70 70 78 75 73 69 69 65 66 70 73 86 88 86 86 80 68 65 58 50 53 70 80 86 84 76
74 80 80 85 87 90 88 88 91 88 81 74 83 70 70 74 73 72 70 76 68 64 63 69 70 73 73 79 86 82 85 85 84 76 70 66 62 54 68 84 80 74 77
77 82 77 83 89 84 89 88 83 87 86 79 84 72 71 74 76 76 78 72 70 70 70 77 86 91 92 89 90 91 90 82 79 71 69 71 72 68 82 80 84 75 72
63 76 75 81 81 84 84 82 82 84 88 83 79 84 83 70 73 74 80 77 76 72 75 86 94 95 96 96 95 91 78 73 70 70 71 72 72 73 92 91 82 83 82
61 72 76 82 83 84 86 80 78 82 91 79 79 85 88 70 72 83 81 82 74 75 82 87 91 92 84 82 80 80 82 82 80 76 75 75 76 75 94 96 93 89 85
68 72 75 81 86 83 87 79 77 76 77 75 71 80 84 73 69 74 76 69 72 78 80 83 81 81 82 81 78 77 75 76 70 68 73 79 75 81 80 85 92 94 91
77 75 80 83 83 86 86 81 78 74 75 78 78 78 73 60 59 66 65 70 74 78 81 81 83 83 81 81 70 66 65 65 68 70 70 66 62 84 86 83 85 89 88
80 79 80 84 80 88 88 82 80 79 80 81 83 80 69 54 60 69 72 73 75 77 79 81 82 76 65 70 63 56 54 54 58 61 57 53 56 72 73 72 76 79 79
76 78 78 79 82 88 89 82 81 81 82 83 85 76 69 66 68 70 72 74 74 77 77 80 74 55 55 53 50 48 45 44 43 44 45 46 56 66 68 72 81 80 84
68 73 77 80 83 84 87 78 75 80 84 83 80 74 73 69 70 73 74 70 79 79 70 52 52 50 47 40 36 33 33 33 38 40 37 43 62 66 65 75 72 69 70
54 56 67 75 78 78 85 72 73 79 81 76 76 75 75 74 73 70 76 75 65 53 49 47 43 37 30 24 21 21 20 22 35 31 35 36 34 53 68 64 63 64 63
31 34 45 61 70 74 76 69 72 78 79 79 79 78 80 78 76 64 67 58 49 44 41 35 28 22 18 16 16 19 17 33 34 22 29 28 27 38 58 57 57 57 62
25 26 29 45 64 72 71 72 76 79 83 81 83 80 74 78 76 68 63 54 43 35 27 20 17 16 15 15 15 18 17 35 22 22 22 22 20 25 33 52 51 50 57
26 26 31 44 62 72 74 77 83 87 86 85 76 76 78 72 70 69 55 38 28 21 18 16 15 15 15 14 14 15 15 31 20 17 18 15 21 24 24 23 25 32 49
30 30 39 52 69 76 80 88 88 86 87 79 78 78 68 64 62 53 36 24 20 19 18 15 14 14 16 13 13 13 16 30 32 25 17 18 15 19 18 17 15 12 28
41 41 46 68 76 81 87 88 82 79 76 74 69 65 59 47 44 29 22 22 20 19 17 14 13 13 17 15 14 13 18 33 40 32 24 20 16 20 23 18 15 13 17
48 54 62 78 84 83 84 76 67 66 68 62 54 52 46 34 24 23 25 23 21 19 15 13 12 13 16 18 19 16 16 19 24 22 15 14 21 20 16 15 15 14 15
48 55 70 81 84 81 77 71 67 64 61 54 44 32 26 23 23 25 25 23 20 16 15 14 13 14 18 25 28 44 51 25 20 16 13 19 20 16 16 18 17 15 20
53 56 65 82 82 77 72 68 63 51 42 32 26 25 24 24 25 26 24 22 19 16 15 16 16 16 20 20 33 26 36 42 56 25 19 19 25 22 28 26 23 22 22
59 61 62 76 78 73 67 66 62 45 34 29 25 25 24 25 25 24 22 20 18 16 15 17 18 19 22 27 24 25 27 34 52 56 32 27 31 33 33 30 29 27 28
68 75 70 73 74 69 64 64 50 42 36 26 25 25 25 24 23 22 21 19 17 16 16 16 18 20 23 26 29 31 32 32 38 64 47 45 38 36 37 35 34 34 30
84 84 76 72 70 65 59 52 53 50 32 26 26 26 25 24 23 22 20 18 16 15 15 17 19 22 25 27 29 31 34 38 42 48 57 45 47 41 43 40 36 34 36

GFSSE_925_rhum_021.txt.gz
RH
71 78 77 73 72 71 74 80 75 70 73 83 86 92 97 94 89 85 84 82 77 79 81 84 94 92 92 94 95 94 90 82 80 70 63 62 54 62 86 86 86 82 78
67 77 79 72 74 74 79 83 72 73 72 84 82 89 90 84 86 74 78 77 74 73 83 76 88 94 98 95 93 92 91 85 79 75 69 62 65 64 83 83 89 80 75
70 78 84 75 75 89 87 84 75 78 77 81 86 90 82 71 64 69 72 75 76 76 77 84 75 69 77 84 88 94 92 92 82 83 77 68 68 67 87 86 78 91 84
72 78 87 76 82 90 94 88 79 79 82 75 92 85 72 69 65 66 72 77 82 81 78 77 73 70 67 70 70 73 82 83 84 73 70 55 63 64 72 83 83 79 85
74 80 78 77 85 94 98 90 85 83 80 80 88 72 67 69 70 68 72 80 76 60 66 69 64 64 66 67 76 84 88 88 79 75 69 64 56 46 56 80 82 88 87
71 82 77 81 93 90 95 92 90 84 80 77 75 75 65 71 76 75 72 79 72 60 67 75 82 85 83 86 92 88 85 90 87 84 73 74 74 68 78 80 82 80 74
73 84 88 87 90 89 88 91 88 90 81 78 76 68 72 75 79 77 76 71 70 65 70 81 92 95 96 95 95 91 84 73 83 82 74 74 74 75 97 89 82 83 79
65 85 84 88 88 88 84 85 86 89 88 81 84 76 76 75 74 75 79 75 76 71 79 90 95 95 92 88 86 84 82 81 83 78 76 77 78 76 98 97 95 86 85
62 78 81 94 91 84 82 80 80 81 82 80 79 83 86 71 76 81 78 80 75 77 85 89 92 88 85 86 84 80 78 76 76 73 69 71 71 71 86 95 95 95 92
67 75 78 83 88 93 96 82 77 75 78 65 68 80 82 74 70 82 85 75 78 87 85 85 84 84 84 81 79 72 68 68 67 69 71 71 65 82 87 88 87 88 88
78 76 82 82 87 89 92 87 79 77 79 73 72 73 73 66 67 69 67 74 78 80 81 82 84 80 76 73 70 66 62 60 62 66 66 62 61 75 80 78 80 83 83
80 76 82 84 90 91 93 87 82 79 80 81 80 79 73 60 57 68 72 75 76 78 79 81 82 69 62 63 59 57 53 49 49 51 55 53 66 70 72 78 86 87 88
74 76 76 85 92 88 95 88 85 82 82 82 83 79 70 60 64 69 73 75 75 78 80 78 61 54 53 52 47 43 39 38 40 42 44 49 68 74 71 82 78 75 76
64 67 72 80 88 87 92 90 82 81 83 83 82 75 74 73 72 74 75 73 72 75 63 53 51 47 42 33 28 26 24 25 33 36 41 44 50 71 78 72 72 70 75
58 58 64 74 82 84 90 90 84 78 81 82 80 74 75 73 72 69 75 75 66 54 50 48 40 31 23 18 18 19 18 23 27 31 35 35 44 70 66 67 65 68 72
43 45 52 63 76 81 84 87 80 76 83 81 76 74 76 77 74 71 69 61 51 48 41 33 23 18 16 15 16 20 18 29 30 26 28 27 30 50 63 62 61 60 66
28 29 31 40 63 77 81 82 75 75 84 78 79 81 80 77 77 66 66 53 49 35 24 18 17 16 16 15 15 18 17 26 24 22 20 21 21 24 36 49 50 48 53
28 29 28 31 41 72 81 82 75 80 82 81 84 82 78 82 74 68 66 47 28 20 18 18 16 16 16 15 14 16 15 25 20 20 18 16 16 19 19 16 15 19 44
30 30 30 36 55 77 87 81 81 83 89 85 84 81 80 74 69 64 47 29 20 21 21 17 15 14 14 14 15 15 15 24 31 24 20 19 18 18 21 20 15 13 12
31 32 36 45 70 89 92 85 92 94 93 89 84 77 69 69 57 42 31 22 22 24 20 16 14 13 14 13 14 15 24 32 38 33 27 18 18 20 19 17 16 18 11
34 42 48 65 88 93 94 93 89 82 84 80 72 66 62 51 32 25 24 25 24 24 18 15 14 14 17 14 20 24 20 18 26 28 25 16 25 22 20 20 24 21 25
40 49 63 84 90 90 88 84 80 74 64 65 54 44 37 28 24 26 28 27 23 20 17 14 13 15 20 20 29 36 28 21 24 21 21 22 19 22 22 16 17 24 25
50 55 71 89 87 85 84 79 70 61 51 44 37 31 26 25 26 28 27 25 22 18 16 15 14 14 29 26 27 21 24 25 31 28 22 28 26 28 28 32 32 30 31
46 56 69 88 84 81 79 73 70 58 46 39 32 28 26 25 26 26 25 23 20 17 16 16 16 16 18 32 32 29 29 33 30 28 31 28 31 30 34 35 33 33 33
54 57 69 84 81 77 74 72 68 53 46 35 30 27 26 25 25 24 23 21 18 16 15 15 17 18 20 29 35 37 37 37 41 40 31 28 31 33 37 38 38 38 36
60 67 71 81 77 72 71 72 62 55 43 31 28 27 26 24 24 23 21 19 17 15 15 16 18 21 24 26 28 32 37 32 30 34 33 32 38 36 40 41 40 36 39

GFSSE_925_rhum_024.txt.gz
RH
63 79 86 77 76 92 95 91 83 80 82 83 91 97 97 92 89 86 84 82 76 80 90 91 94 87 88 92 96 92 86 84 79 64 55 52 48 60 78 87 85 66 76
60 79 75 79 81 92 88 82 72 70 75 84 84 96 84 87 81 85 77 78 71 75 79 88 91 99 98 95 94 92 91 87 81 74 71 64 61 66 84 76 75 70 64
62 72 84 75 79 82 83 74 70 73 68 83 86 89 84 70 62 71 74 72 78 74 71 71 84 86 90 87 92 92 91 90 84 75 60 58 63 63 87 87 88 83 87
62 72 73 78 75 83 85 76 72 80 69 90 93 84 69 61 65 69 74 80 82 79 78 76 71 64 66 70 71 70 77 79 70 62 58 53 53 58 64 82 87 85 86
65 70 74 81 80 83 88 83 80 81 76 84 91 70 71 68 68 70 77 83 73 70 80 82 79 80 82 85 89 88 86 88 82 78 72 73 73 59 56 78 81 85 90
64 70 88 81 84 87 91 87 87 81 80 89 78 58 67 73 75 73 76 80 72 60 72 79 88 88 85 83 88 89 81 85 76 72 74 75 79 72 89 84 80 85 82
66 70 86 80 85 90 93 93 91 84 80 79 81 64 70 76 82 78 77 74 73 64 74 84 95 94 91 93 97 93 78 72 80 74 75 78 80 74 95 91 91 82 83
68 74 76 90 94 90 90 94 90 88 81 83 73 76 82 76 74 75 80 74 77 70 83 91 94 96 93 90 90 84 83 80 76 72 74 76 79 73 79 94 96 96 91
67 73 74 91 98 90 90 87 83 88 82 80 83 80 82 73 78 85 82 82 79 81 85 86 89 89 89 85 80 76 73 73 74 69 72 70 75 74 88 92 92 92 93
70 73 73 78 86 88 94 86 84 83 77 70 74 80 80 72 78 87 86 80 81 83 85 88 87 83 82 79 73 66 64 64 66 70 68 74 64 79 82 84 83 84 87
69 73 75 72 76 84 85 90 87 84 79 65 66 76 75 74 74 75 79 73 78 81 84 82 82 79 70 64 64 62 59 55 55 58 60 62 67 74 75 83 90 91 92
63 68 73 74 75 83 84 87 84 82 83 74 71 71 67 67 66 67 74 74 77 79 80 80 80 61 56 53 51 51 48 47 48 47 56 54 69 72 79 87 81 77 84
54 62 71 78 80 84 85 85 78 76 74 75 75 74 69 66 66 68 73 75 81 81 70 72 52 49 48 46 43 36 35 38 37 41 57 50 65 71 82 78 77 73 85
53 62 71 84 90 85 83 82 73 72 75 74 75 69 64 65 70 69 69 74 68 69 61 53 44 40 36 32 31 25 28 32 29 38 50 44 74 77 74 75 73 74 78
48 55 68 79 87 88 85 78 74 71 77 75 75 70 68 68 69 76 66 64 69 58 48 42 37 31 26 24 26 24 27 29 26 33 43 44 68 70 71 69 68 71 74
37 43 55 74 86 87 85 80 76 73 75 77 73 73 74 74 77 67 64 69 56 48 45 33 27 24 22 21 23 25 24 29 28 34 34 48 46 58 63 62 60 58 60
26 29 41 56 70 75 80 81 77 73 78 78 72 75 80 78 71 68 66 62 53 42 30 28 26 24 23 22 22 25 24 25 27 27 33 32 33 28 32 51 48 47 49
29 30 31 40 56 68 74 78 76 73 78 75 74 81 82 74 74 66 66 57 43 25 27 27 28 27 24 24 22 23 24 27 25 25 27 25 30 28 28 18 16 13 16
29 29 31 37 41 56 68 74 76 73 79 85 88 84 82 79 72 69 64 41 29 29 29 25 28 26 24 24 21 20 24 27 28 27 27 29 32 32 30 30 20 21 20
29 30 31 35 44 57 68 75 80 81 86 85 83 84 84 76 70 68 44 30 28 29 28 27 25 27 27 25 24 22 32 36 32 31 31 23 26 32 31 33 31 24 28
34 34 35 40 49 62 71 88 86 82 81 79 87 84 78 70 65 47 32 30 30 29 27 24 26 26 28 27 23 21 24 27 31 34 31 22 30 28 29 25 23 23 24
32 34 38 45 56 66 73 77 82 88 80 70 73 71 63 58 45 30 32 32 30 29 29 27 27 27 28 29 22 26 21 19 21 26 23 27 20 25 23 24 26 27 27
33 36 43 53 64 71 71 80 80 70 64 58 55 56 46 35 28 30 33 31 31 31 32 30 30 27 25 30 28 17 19 22 20 20 23 21 24 22 24 28 29 28 29
31 40 50 64 70 73 78 73 69 69 63 56 46 39 37 36 30 32 32 31 30 29 31 29 29 28 25 27 28 26 25 23 22 22 20 22 22 25 27 29 30 29 31
32 46 58 70 72 75 74 71 71 68 62 49 44 36 30 29 32 32 31 30 30 29 30 30 30 29 28 24 27 28 26 27 26 27 28 22 23 24 28 31 32 32 29
35 56 64 71 72 73 72 72 73 65 56 45 37 32 30 32 33 32 31 31 29 30 31 31 32 33 31 30 29 29 26 24 22 24 24 25 27 27 28 31 33 32 32

GFSSE_925_rhum_027.txt.gz
RH
53 86 82 90 91 97 96 94 87 80 83 93 95 98 97 92 88 86 82 77 75 85 91 90 89 88 92 94 95 93 90 89 81 67 63 54 44 68 80 86 83 70 74
54 80 85 78 96 96 96 89 85 82 84 84 90 95 96 92 89 82 80 72 73 79 88 91 95 99 98 97 94 94 91 91 78 65 54 62 65 54 85 90 83 76 74
55 76 88 78 80 95 94 86 75 76 83 82 89 94 82 78 78 66 73 77 76 73 83 86 85 84 87 86 85 87 87 86 88 55 57 51 54 56 66 86 88 85 88
56 70 77 82 77 87 94 82 79 73 85 88 92 84 74 67 68 72 79 82 77 76 77 81 82 80 80 81 80 77 79 75 60 65 61 55 52 49 47 76 84 88 87
54 61 70 76 73 85 88 81 80 80 88 94 86 76 69 67 69 76 81 84 67 74 78 74 65 66 70 72 83 88 84 83 67 76 65 70 74 72 57 80 77 84 90
53 57 79 78 78 81 86 82 86 77 78 92 76 66 71 70 72 74 82 76 62 63 74 84 87 78 72 72 79 80 79 68 73 65 66 68 72 72 84 90 86 80 84
51 63 90 81 83 83 85 84 86 82 84 88 74 75 77 80 80 80 79 76 70 67 76 86 95 92 93 92 97 94 81 76 78 65 64 69 73 71 85 96 95 96 90
52 60 81 84 79 85 86 88 85 84 82 84 82 83 78 77 75 76 84 76 78 77 90 94 97 94 93 92 88 82 75 69 74 65 69 64 69 69 93 95 94 95 96
52 58 71 89 89 86 84 88 87 84 81 83 82 83 81 72 77 89 82 84 82 81 90 93 92 88 84 78 76 73 67 63 66 61 64 65 67 74 82 90 86 87 89
53 56 60 81 93 93 96 86 83 83 75 77 77 80 77 70 82 84 81 82 79 84 87 85 82 80 78 68 66 65 63 58 57 58 57 67 62 76 78 85 90 91 94
53 54 54 64 76 82 82 89 86 82 72 69 76 75 71 73 75 81 88 67 78 80 82 80 80 74 61 57 55 57 54 50 49 47 52 55 68 72 81 93 87 85 88
51 54 57 56 62 76 84 86 82 83 82 69 67 75 70 62 64 63 72 72 78 78 78 77 73 53 51 50 49 47 43 40 38 39 53 50 77 78 90 84 81 80 89
46 50 57 58 58 72 77 85 72 69 71 64 60 60 56 58 66 66 72 74 79 79 65 61 50 48 47 45 42 33 29 32 32 34 51 44 72 84 82 80 77 82 84
40 47 54 58 63 70 78 78 64 60 62 61 64 60 56 55 57 57 59 70 67 61 58 52 46 42 37 31 27 25 25 29 25 31 48 47 78 76 78 75 73 79 78
35 43 51 56 66 66 69 71 62 58 60 62 64 60 51 53 57 57 64 61 59 59 48 45 40 35 28 23 22 24 21 26 24 28 42 46 64 70 72 70 67 67 68
32 37 46 55 67 67 65 63 60 58 60 66 63 61 57 57 59 65 61 57 64 54 50 36 30 25 22 23 22 22 22 24 25 30 30 45 46 49 63 62 57 56 54
24 30 35 48 58 64 66 65 61 61 60 71 63 62 62 64 70 65 60 64 60 54 34 31 26 26 25 24 22 22 23 23 25 24 31 32 38 32 22 20 18 22 32
24 24 25 37 50 61 62 64 61 60 61 71 64 63 64 74 69 65 63 64 56 44 30 29 29 27 25 24 23 21 24 23 24 24 27 25 29 26 30 30 21 13 14
24 25 26 29 37 46 54 58 58 59 62 72 65 65 73 72 68 66 65 61 40 32 30 26 29 27 26 26 22 19 22 27 27 24 25 29 31 32 32 30 29 25 28
20 24 26 29 32 36 46 55 58 61 65 72 70 75 80 69 70 67 65 40 34 33 30 29 27 29 29 28 25 23 28 33 32 28 27 29 23 31 30 33 32 25 25
22 25 25 26 29 35 43 53 59 69 74 82 79 76 71 71 70 66 48 33 32 32 30 27 28 30 32 29 24 25 25 26 28 31 33 27 21 30 27 25 24 26 28
25 26 27 26 31 37 47 56 65 77 87 84 74 70 69 71 67 55 39 34 33 32 31 30 31 31 31 30 24 25 28 23 21 27 22 24 22 22 23 24 27 29 29
26 26 28 28 32 42 50 62 76 87 86 75 71 62 56 59 58 41 34 34 35 34 36 35 34 31 29 32 29 20 27 29 22 19 24 22 23 22 24 25 28 28 30
21 26 30 30 36 48 56 69 78 78 73 69 66 58 51 47 38 34 34 35 36 36 36 34 33 31 27 30 30 26 26 24 26 28 20 22 22 23 23 26 27 30 30
18 26 33 36 43 55 64 67 76 68 72 66 62 57 44 37 36 36 34 36 35 35 32 32 33 31 29 25 27 29 23 26 25 27 34 26 23 24 26 27 29 30 30
21 26 38 43 51 59 64 72 69 66 66 58 52 46 43 40 41 38 34 35 34 34 35 34 33 34 30 30 29 28 26 25 24 24 28 28 29 28 27 28 29 31 30

GFSSE_925_rhum_030.txt.gz
RH
83 78 88 94 94 82 87 88 89 94 96 91 96 98 95 90 88 84 76 74 83 91 92 99 92 91 93 96 95 93 92 85 68 54 49 60 56 73 80 83 66 79 79
80 83 89 86 94 96 95 88 73 64 71 93 95 96 93 91 86 84 75 73 78 89 91 92 97 99 98 97 95 94 92 90 64 40 46 63 64 58 78 90 90 69 87
86 93 90 79 85 94 92 80 73 77 85 85 96 96 92 85 82 78 78 76 74 84 88 86 85 86 87 79 78 80 79 56 40 59 57 58 66 53 47 63 90 91 81
82 90 93 77 81 93 90 88 83 81 83 92 90 78 74 72 76 76 79 74 76 78 84 84 76 66 68 74 80 79 71 54 67 69 67 65 66 66 61 69 79 89 88
79 83 87 77 80 88 79 78 74 86 93 94 86 76 70 70 77 82 87 74 77 79 80 80 72 61 64 61 75 90 79 60 72 68 68 69 72 70 79 84 68 76 84
65 75 73 78 75 80 78 78 84 81 87 90 78 66 71 73 75 82 85 68 63 76 85 86 80 76 71 70 72 72 66 69 72 71 67 70 71 70 82 96 97 92 80
69 73 72 75 74 79 77 78 68 73 93 83 75 76 76 78 80 81 84 74 62 70 81 96 96 90 87 88 91 82 76 69 69 69 69 67 72 71 88 96 97 97 95
70 80 76 75 78 79 79 78 69 79 94 85 75 87 83 76 77 84 84 75 65 73 87 88 86 88 85 83 80 74 67 61 64 68 61 61 64 76 84 92 89 89 91
70 83 85 81 81 80 75 74 69 77 80 86 83 87 73 70 74 91 83 80 78 86 83 84 82 82 78 74 70 66 63 59 61 63 64 64 63 78 82 89 92 94 95
56 75 82 88 87 87 82 74 68 71 78 78 83 77 74 73 84 84 80 79 77 80 81 78 78 74 66 62 61 59 57 53 50 52 57 59 55 76 86 94 91 88 91
54 59 77 84 90 93 88 81 73 71 67 74 76 72 71 70 84 81 92 68 75 77 77 78 75 65 56 55 51 47 46 45 43 44 48 50 69 82 94 89 82 90 91
53 54 68 74 82 84 88 80 83 80 68 62 72 70 67 75 78 88 84 68 75 77 77 74 60 50 50 50 47 38 37 35 34 37 46 42 63 83 88 84 82 90 90
50 52 53 67 74 72 75 77 86 84 77 61 58 67 60 68 68 73 57 70 75 76 64 56 49 48 48 44 37 27 25 30 29 33 42 40 86 84 83 79 80 87 82
47 50 55 56 66 72 74 75 80 82 75 67 61 62 58 59 62 62 66 73 75 70 62 50 46 41 35 28 24 25 22 26 24 31 38 40 75 81 79 75 76 77 74
41 47 53 56 59 72 76 76 72 68 67 66 63 60 57 56 57 59 70 70 62 60 49 46 40 34 27 23 21 23 22 25 25 31 36 39 54 72 73 69 67 65 62
30 42 50 55 61 70 71 72 71 63 61 61 64 64 55 52 57 61 62 61 61 56 49 37 33 27 23 24 22 22 22 23 24 29 35 38 35 45 56 54 53 52 52
24 34 45 52 61 65 72 72 68 59 58 60 63 63 54 56 60 64 62 59 64 55 38 36 28 26 25 24 23 22 22 23 24 24 32 32 30 29 23 21 16 23 33
24 24 36 49 56 66 66 66 63 60 59 62 62 64 58 64 67 65 60 60 60 45 33 30 28 27 25 24 24 21 22 24 25 24 28 26 30 29 32 32 29 24 29
21 24 27 40 54 60 64 66 65 62 61 62 63 63 62 67 70 63 62 62 57 35 31 27 27 25 25 25 22 20 20 24 27 25 26 27 28 28 29 31 30 27 29
20 23 24 26 47 56 62 64 65 61 62 57 62 64 65 69 70 66 64 61 40 33 30 27 27 28 27 25 24 24 26 30 32 28 27 28 26 25 26 28 26 25 25
21 20 22 26 28 36 47 58 61 60 64 62 65 66 69 71 68 65 63 41 37 31 29 28 28 30 28 23 24 24 26 25 30 32 31 33 25 25 27 26 25 24 27
25 25 23 26 30 31 37 50 59 67 71 66 73 78 78 75 67 65 54 38 32 31 28 28 30 31 31 24 23 27 41 30 24 25 28 24 22 20 23 23 24 25 28
25 26 27 24 27 33 35 43 63 74 85 82 78 78 75 70 65 57 44 36 33 30 30 31 30 29 31 30 22 24 38 42 29 22 21 24 22 22 23 22 24 27 28
20 25 26 27 27 30 35 55 67 83 86 80 74 71 69 62 54 46 37 35 33 33 33 32 31 26 28 30 30 25 23 25 38 41 23 21 20 24 24 25 25 26 28
18 22 25 26 29 30 38 62 75 84 82 77 70 66 60 47 43 37 36 34 35 34 33 30 29 27 24 26 26 28 25 26 27 36 47 34 24 24 26 27 28 29 28
20 18 20 31 30 35 48 74 80 80 77 73 66 55 47 44 37 35 35 35 34 34 31 32 30 27 26 25 26 27 26 27 29 30 40 37 36 32 32 32 28 28 28

GFSSE_925_rhum_036.txt.gz
RH
89 86 85 95 98 98 98 98 97 92 95 99 88 93 93 88 82 81 89 91 92 89 85 87 92 95 95 95 79 70 62 47 40 53 60 65 80 81 86 89 82 81 83
86 84 87 94 98 99 99 98 90 86 89 97 96 93 91 88 81 75 84 92 87 90 94 97 98 95 97 96 73 64 46 50 57 59 59 62 58 77 80 84 72 76 84
88 88 89 90 94 95 95 87 85 90 92 96 96 92 90 86 81 75 80 89 86 93 96 97 97 96 92 73 60 44 42 64 69 67 63 60 70 74 66 63 89 96 74
77 85 90 89 91 90 77 65 62 84 94 95 96 94 88 85 77 76 78 87 89 92 92 94 95 92 72 55 45 55 69 71 72 72 71 68 78 86 78 73 83 86 89
81 83 87 88 84 80 72 71 76 78 95 95 93 88 85 82 77 77 79 83 90 90 88 86 81 61 60 70 67 63 72 72 73 72 68 72 73 81 93 93 73 63 72
87 81 84 87 74 68 65 60 81 93 97 89 77 81 81 84 83 80 83 85 87 87 87 83 62 62 62 66 68 69 74 77 76 71 74 70 71 77 88 92 91 90 88
87 78 84 82 72 68 65 66 82 96 90 83 77 80 84 87 92 85 85 89 93 95 94 90 78 74 76 76 72 69 68 68 72 73 74 70 73 83 93 93 93 96 97
77 78 79 81 75 72 70 73 88 90 88 76 75 81 84 87 95 86 74 83 93 96 96 96 82 76 74 70 66 65 65 68 68 70 71 66 67 87 92 95 96 98 98
77 79 85 82 79 73 72 59 85 91 84 70 78 82 84 85 89 91 75 75 90 96 94 86 82 76 71 66 63 61 58 56 67 69 67 68 75 89 96 94 93 95 92
87 79 81 83 82 80 77 60 72 92 76 74 74 80 78 80 86 89 79 75 88 84 80 79 78 67 60 53 56 51 49 51 59 59 56 54 80 95 91 86 96 93 86
96 87 87 87 85 82 77 66 69 92 81 75 71 70 72 72 82 89 79 67 76 78 77 77 70 59 54 50 47 43 43 42 45 46 47 80 95 93 88 96 96 93 82
100 100 88 86 86 85 80 73 70 80 88 82 77 72 72 80 83 82 78 61 73 77 78 75 63 55 54 51 41 34 33 35 38 41 42 45 94 89 85 94 91 87 86
88 90 90 84 82 86 83 76 73 69 71 79 77 73 72 81 83 80 79 66 75 79 77 62 52 50 48 43 34 27 25 28 32 35 42 63 92 86 83 90 84 80 78
88 85 83 80 82 85 83 77 71 69 67 71 73 74 74 82 88 85 83 67 74 76 73 52 50 44 35 29 24 24 23 26 28 32 39 47 84 81 78 77 74 70 66
77 82 79 76 78 85 88 83 73 69 68 57 61 70 72 74 82 87 81 65 75 69 60 52 46 38 32 26 22 23 23 26 29 34 36 44 65 77 72 68 63 60 60
59 68 80 77 78 87 85 81 74 70 66 61 49 50 63 69 73 82 73 67 78 73 56 47 40 32 29 24 23 22 22 23 28 33 36 38 43 57 61 57 53 52 53
40 57 63 71 79 84 84 80 74 72 73 71 58 55 59 63 69 73 70 73 75 65 52 45 36 32 26 24 22 22 23 23 25 32 35 34 32 27 36 45 46 50 49
25 32 59 67 78 80 85 80 75 73 71 74 71 64 61 59 62 66 65 71 74 58 47 40 37 31 25 23 22 22 23 24 24 27 32 30 28 27 27 27 25 36 42
20 22 26 65 72 68 80 80 76 72 73 72 75 68 63 62 60 59 60 72 66 56 47 42 37 28 24 23 21 19 21 24 25 26 27 27 27 28 25 25 24 23 23
20 20 22 38 68 67 77 79 80 74 74 73 76 72 65 63 60 56 63 70 62 54 45 38 33 26 25 25 24 24 26 28 28 26 26 28 29 28 26 25 24 22 23
23 21 22 26 59 78 85 90 89 82 77 74 73 70 65 65 59 56 65 64 59 56 48 36 27 26 27 25 25 27 30 30 32 29 28 28 30 31 26 25 24 24 24
24 23 22 23 30 70 83 73 82 82 79 71 73 69 66 67 60 65 65 64 59 54 40 34 28 30 29 24 25 32 40 31 26 29 32 34 33 26 25 26 25 26 27
24 22 23 25 24 44 75 73 74 90 88 85 80 75 67 68 63 69 67 66 61 54 44 35 28 30 31 25 23 27 47 42 34 24 30 32 25 24 26 26 26 26 28
22 21 22 23 29 31 59 75 77 73 88 85 81 75 71 71 69 70 70 68 61 53 45 35 29 31 32 29 24 22 21 22 34 28 25 29 25 24 25 24 24 27 26
22 21 21 20 21 29 33 65 75 72 76 69 84 82 77 78 75 74 72 66 61 52 42 32 30 32 32 31 30 26 25 25 26 35 35 32 26 25 23 25 27 26 30
31 29 27 24 22 26 33 48 67 78 84 81 87 89 84 81 80 77 73 63 53 49 37 31 32 31 31 30 29 25 23 26 31 34 44 42 39 29 28 28 28 31 34

GFSSE_925_rhum_039.txt.gz
RH
84 84 81 93 94 92 92 90 90 93 95 97 96 96 93 83 81 90 93 93 89 86 83 88 96 93 92 96 90 67 62 49 49 60 61 70 83 84 88 85 81 81 85
82 84 82 90 94 94 90 90 85 89 91 95 81 85 90 85 81 85 88 90 97 86 86 92 91 93 93 97 90 66 62 58 58 57 58 57 66 80 84 90 70 81 82
88 87 85 85 89 92 90 89 88 90 94 97 86 87 89 86 77 81 91 91 90 94 96 97 97 95 95 83 63 48 71 72 68 66 62 70 73 74 71 76 92 82 83
82 85 86 83 88 90 93 91 90 89 93 97 94 92 90 85 78 79 87 79 86 91 95 97 95 92 83 55 56 78 78 76 73 71 66 72 80 90 80 66 78 83 87
85 84 86 87 89 96 97 96 95 95 95 96 96 93 89 79 77 79 87 88 90 95 94 94 89 79 62 52 68 76 77 74 75 72 71 72 78 90 95 86 74 64 73
88 85 84 87 90 93 86 83 91 95 95 96 96 91 86 79 80 81 85 91 93 90 88 86 53 43 53 59 66 74 76 78 77 70 74 79 86 90 89 96 93 93 90
90 87 87 87 86 76 77 74 80 93 97 95 88 87 85 86 83 85 88 90 92 93 91 75 64 64 72 76 79 78 73 71 73 74 81 82 80 91 93 97 97 97 96
85 87 87 81 71 69 65 68 81 94 93 88 83 84 87 91 87 85 84 86 94 96 96 96 85 79 77 74 72 68 66 69 68 73 73 73 75 91 95 96 97 95 95
86 84 86 74 71 71 63 67 87 90 84 68 80 86 88 89 88 80 74 83 96 96 94 96 86 80 76 70 65 63 59 66 69 67 69 74 83 94 92 94 93 93 90
86 78 75 75 75 74 73 72 84 87 82 64 77 81 85 87 86 79 67 76 95 92 90 91 90 73 66 57 57 53 53 61 66 63 58 72 94 92 87 96 96 88 86
97 82 79 80 79 74 75 64 84 92 86 69 78 80 81 84 90 87 72 68 82 89 87 86 78 63 54 50 46 43 47 49 50 50 68 84 94 89 95 97 95 88 80
99 100 100 86 83 80 78 69 67 95 86 74 70 76 75 75 80 86 76 65 78 80 84 82 70 60 56 48 43 37 36 40 42 42 52 88 91 88 94 93 89 85 86
99 100 100 88 85 85 83 72 62 93 89 76 73 73 72 76 81 90 82 73 80 84 83 78 60 54 50 48 40 32 27 32 37 45 78 85 87 84 92 88 81 79 79
100 100 100 84 89 86 84 76 64 70 92 89 82 79 75 84 90 91 82 67 78 80 80 64 54 50 42 34 28 24 24 28 31 34 53 87 85 80 80 77 72 67 65
100 100 94 88 86 88 88 80 71 66 68 71 79 81 76 79 86 84 83 72 75 80 80 55 51 44 34 29 24 23 23 26 30 33 42 60 76 77 73 67 65 63 60
90 92 90 87 87 88 87 84 77 69 65 62 65 72 77 75 84 87 86 82 76 79 67 54 50 40 32 27 23 22 22 26 32 34 38 47 56 65 64 60 55 55 54
65 78 90 83 85 86 85 83 85 81 72 67 59 56 72 75 76 81 84 83 70 79 67 53 44 34 31 26 23 22 22 24 29 34 35 36 37 38 50 51 50 51 49
32 49 65 82 90 89 89 87 86 84 75 69 65 55 53 68 72 75 78 83 71 82 67 50 39 34 30 25 22 22 23 24 25 32 34 33 30 27 31 28 25 40 47
24 24 31 61 84 87 90 92 90 86 82 78 73 65 51 54 61 69 73 78 76 79 58 46 38 34 30 24 22 21 23 24 25 30 32 30 27 28 27 25 24 22 22
27 25 25 29 56 72 87 97 98 95 90 86 77 70 64 62 63 65 70 70 75 76 53 41 38 36 28 25 24 23 24 27 28 28 29 29 28 29 27 26 24 23 23
28 28 28 27 32 66 96 100 100 95 90 86 82 75 72 69 65 64 65 64 70 75 60 46 37 34 27 26 27 30 31 32 31 28 28 29 29 31 29 27 26 24 24
24 26 26 28 31 52 83 90 90 87 92 81 80 82 75 74 72 67 65 63 67 70 56 42 39 32 28 27 27 34 42 32 32 34 32 31 32 33 29 28 26 26 26
25 24 25 25 28 37 71 87 92 89 90 92 89 85 80 80 76 71 67 60 67 66 56 46 41 36 30 28 26 31 49 44 37 27 29 35 36 28 26 26 27 26 27
27 24 24 25 26 30 54 87 93 91 93 83 81 80 79 79 77 73 70 62 65 65 55 50 44 36 30 29 26 25 25 28 39 31 28 33 28 26 27 26 25 27 27
27 25 24 24 26 28 35 84 92 90 84 76 79 76 82 81 79 76 76 71 66 65 57 54 45 34 30 32 28 26 25 25 24 33 34 32 31 28 27 26 28 28 28
26 24 24 23 22 22 24 45 83 88 83 81 84 88 83 86 82 81 78 76 71 68 62 56 47 35 31 33 31 30 27 27 31 32 40 40 37 27 26 28 30 30 32

GFSSE_925_rhum_042.txt.gz
RH
77 81 76 79 91 89 88 89 94 94 91 94 98 98 89 88 89 95 95 94 90 87 88 92 92 87 93 95 92 77 52 46 57 57 61 77 85 86 90 89 76 84 86
76 79 80 77 93 90 86 87 89 90 92 95 91 94 90 82 87 91 92 93 88 89 86 92 92 92 93 95 83 78 71 55 53 55 60 62 67 78 90 81 77 80 84
79 80 78 83 82 85 82 81 86 91 90 88 80 80 89 83 79 84 90 92 89 90 93 93 95 94 93 83 73 82 65 65 67 61 67 68 73 70 70 78 96 79 82
81 83 79 84 78 78 78 80 87 94 93 85 79 81 90 84 78 88 92 92 89 99 99 92 91 89 71 75 86 92 80 74 72 65 73 77 90 92 79 72 79 91 93
84 82 79 81 79 82 83 84 86 89 92 97 87 88 91 81 80 85 77 81 84 93 98 98 93 76 64 86 92 89 79 75 71 71 73 80 89 96 97 91 84 75 72
89 81 82 82 82 84 89 91 90 88 92 84 86 92 86 80 80 86 90 88 93 94 92 79 59 63 84 86 90 85 76 75 72 71 77 81 91 93 96 96 95 90 98
90 86 87 85 84 87 88 86 90 94 93 93 96 92 83 82 83 87 92 95 92 90 79 62 65 67 78 86 84 76 75 72 74 75 78 82 90 92 96 97 98 99 100
86 88 89 88 86 81 79 80 78 83 96 97 94 89 88 85 87 89 92 94 95 93 94 95 90 84 86 86 72 68 68 70 73 77 76 83 85 91 93 96 93 94 91
88 89 90 88 76 67 75 69 65 87 94 90 88 87 90 89 84 89 82 91 96 96 94 95 93 87 82 71 65 64 63 73 70 69 74 82 90 91 92 94 92 90 88
90 86 84 80 66 62 66 62 89 86 86 82 85 85 86 85 76 74 70 80 92 90 86 88 87 75 67 61 57 56 63 72 69 66 71 88 91 88 94 96 91 86 83
98 88 84 73 66 64 64 58 83 83 82 67 82 86 88 89 88 79 63 74 88 87 85 85 82 66 54 51 48 50 54 54 53 56 73 92 89 92 96 96 94 86 82
99 100 88 79 74 71 70 62 78 84 84 72 74 82 83 87 89 90 76 70 86 86 85 89 77 59 53 49 43 41 42 43 44 56 80 90 89 91 94 91 87 87 87
96 100 97 99 81 80 78 74 61 87 88 84 67 78 81 84 87 91 88 76 86 88 88 89 74 62 58 50 42 36 31 35 39 44 76 89 85 86 90 85 80 82 78
94 97 97 98 86 83 81 81 67 65 89 88 72 71 78 75 78 83 91 80 78 87 87 83 66 54 50 44 34 27 26 30 36 55 90 85 83 84 82 76 72 69 68
94 96 98 97 100 87 87 85 77 64 79 83 79 74 75 76 81 85 90 82 72 84 85 76 57 50 41 34 30 24 24 27 32 40 72 79 74 79 74 69 68 64 62
99 98 98 99 100 91 88 90 83 72 65 72 80 81 81 78 82 88 88 83 72 79 82 77 54 47 37 32 27 23 23 28 33 38 49 67 66 71 68 63 58 56 57
70 85 96 98 100 99 89 90 88 80 70 64 65 71 80 81 80 84 82 84 80 78 81 70 56 44 34 31 26 23 22 26 32 35 40 44 51 55 58 55 56 52 53
35 69 82 93 97 99 95 93 89 87 83 73 66 63 65 78 78 79 86 86 85 76 80 66 55 41 32 30 25 22 23 24 29 36 37 38 36 35 41 36 33 47 49
28 29 56 78 85 88 94 98 94 87 88 85 78 69 64 66 73 78 79 83 87 77 84 70 50 38 34 30 24 23 24 25 26 32 36 35 30 29 31 26 25 24 24
27 28 28 36 70 78 85 100 100 99 92 94 89 80 71 67 62 72 78 76 83 81 85 72 50 37 35 29 24 22 24 25 26 28 35 33 30 30 29 28 25 23 23
26 26 28 28 28 61 100 100 100 98 100 99 94 87 80 78 68 55 58 69 79 84 80 67 44 37 35 28 27 29 30 32 30 29 34 32 30 30 30 28 25 24 24
25 26 27 28 29 34 88 97 99 98 100 96 90 91 84 83 77 61 61 67 77 82 81 63 46 39 34 29 28 34 43 35 34 31 30 30 30 31 32 30 27 25 25
29 26 26 27 28 29 56 82 99 95 99 100 100 98 86 86 84 77 69 69 72 76 77 70 50 45 36 30 27 32 52 48 39 33 35 35 34 34 34 30 27 26 26
28 26 26 27 27 28 38 82 96 92 94 99 96 81 86 84 85 84 78 74 72 71 73 72 55 46 41 34 31 29 30 32 44 36 31 35 37 34 29 27 27 26 25
35 31 31 29 28 28 30 68 90 96 93 90 91 91 96 88 86 84 84 85 79 72 69 72 60 50 44 43 31 30 28 27 26 34 37 35 34 30 29 28 26 27 27
42 43 43 34 30 29 27 32 83 88 92 94 90 92 90 94 94 91 85 84 84 77 70 71 65 56 47 40 32 30 27 28 30 30 35 38 34 31 30 30 29 30 31

GFSSE_925_rhum_045.txt.gz
RH
77 73 84 75 75 87 88 88 94 89 83 91 96 99 98 98 98 97 96 82 80 90 90 88 89 89 91 93 87 78 57 60 54 57 66 75 87 90 89 66 73 77 89
74 80 81 76 88 87 85 86 90 89 88 86 96 96 93 92 94 94 85 91 92 88 88 89 88 89 90 85 83 81 73 56 56 62 58 53 61 88 88 84 70 76 90
80 86 80 79 81 81 83 88 89 87 86 85 81 87 89 85 84 85 93 87 85 89 91 93 94 94 90 78 84 92 83 66 59 68 68 79 69 73 78 92 86 83 78
80 81 88 74 85 81 77 79 88 89 86 84 76 78 90 82 81 94 93 93 93 97 99 92 82 84 75 82 92 91 70 68 62 71 75 86 90 86 68 65 81 93 89
81 79 77 76 80 75 78 84 85 89 88 80 77 82 90 82 85 93 90 92 98 96 92 85 86 83 84 91 95 82 72 70 70 71 80 89 91 95 95 86 83 76 78
86 82 77 78 77 77 79 80 86 90 93 80 79 83 88 81 86 80 78 80 84 79 88 87 75 86 91 93 96 76 74 71 70 72 76 85 90 95 96 96 92 93 95
89 82 81 79 82 81 82 82 87 88 92 81 81 92 83 83 86 92 90 92 86 90 82 72 87 91 95 95 85 75 73 72 71 74 73 83 91 96 97 96 88 96 92
90 84 85 85 83 83 84 83 87 86 86 82 86 93 85 86 88 93 95 96 94 90 86 93 95 94 90 76 70 70 70 71 74 73 74 85 90 91 96 95 89 93 95
87 88 89 88 86 84 77 65 72 79 91 89 89 90 87 86 90 94 96 96 96 96 94 92 91 90 74 67 64 64 69 72 71 71 78 91 90 88 94 93 91 89 88
88 84 88 90 90 80 75 63 60 77 98 89 84 86 86 76 75 81 82 93 95 88 87 87 89 78 66 61 59 59 71 71 70 73 82 89 84 94 95 93 87 87 85
98 91 89 90 82 65 66 57 61 83 88 83 78 85 88 92 86 81 76 83 87 86 84 86 83 69 56 53 54 59 62 61 59 62 89 87 89 96 96 95 90 86 83
100 99 94 89 77 71 70 61 78 81 84 80 83 90 93 89 88 83 67 74 86 85 81 93 74 60 52 47 45 47 46 47 51 70 93 85 89 95 93 90 89 88 87
95 99 98 93 82 80 75 67 68 83 83 83 65 79 86 87 89 93 86 72 84 87 90 96 73 60 57 50 44 40 37 37 41 61 92 86 84 90 87 83 84 81 76
92 95 99 99 90 81 78 75 66 76 89 86 76 68 78 84 88 90 94 80 76 87 86 86 76 61 54 49 42 34 28 31 41 64 90 86 79 87 81 78 73 71 72
90 92 93 98 96 91 87 84 78 68 79 88 88 71 71 78 79 79 86 90 73 82 85 84 75 56 50 42 34 28 25 29 35 65 88 83 71 82 75 71 70 66 65
90 91 94 94 98 99 97 89 82 80 67 69 82 83 72 71 72 75 85 93 85 76 84 84 68 54 45 37 34 26 24 28 34 49 69 79 69 74 71 67 61 58 61
66 88 93 96 98 99 98 93 87 83 79 67 65 78 80 76 75 74 84 92 87 71 83 85 68 52 41 35 31 27 23 27 33 40 52 62 70 64 64 59 58 54 58
29 51 78 91 99 98 98 99 92 90 90 80 70 69 78 81 80 78 82 88 83 79 80 85 72 53 40 34 32 26 23 25 32 36 42 47 51 54 54 52 48 52 51
29 28 39 83 97 99 99 99 100 94 90 86 81 74 70 74 76 84 81 81 83 88 81 82 68 55 42 34 31 25 24 24 29 36 40 42 39 38 38 31 30 35 28
29 28 29 31 78 91 100 99 100 99 99 97 91 86 79 73 69 76 81 80 86 91 90 84 71 53 40 36 30 25 25 26 26 32 38 39 33 30 32 27 25 22 21
29 30 28 29 29 73 100 100 99 99 99 100 95 95 88 84 76 72 73 79 81 90 92 83 78 49 39 35 29 28 29 29 28 28 36 38 33 31 31 27 26 24 22
30 29 28 29 30 32 74 90 94 95 99 98 100 100 95 88 84 76 74 74 76 85 90 90 82 52 38 36 34 41 38 37 35 32 34 39 35 32 31 30 28 26 24
32 31 30 29 29 30 37 81 94 98 99 99 99 99 99 95 90 83 81 75 66 80 81 89 83 62 43 36 31 34 45 40 38 37 34 32 34 33 32 33 31 28 26
48 39 32 30 30 30 32 75 92 88 89 92 97 99 100 100 99 93 86 81 69 65 77 80 84 67 49 41 34 30 32 34 39 36 35 37 37 34 34 34 32 28 27
45 44 44 40 30 29 33 47 90 95 85 88 94 98 100 100 100 100 96 88 80 74 74 78 81 69 53 51 46 35 35 34 30 39 38 37 38 38 37 34 30 28 27
50 48 46 43 42 40 32 37 72 97 95 98 98 99 99 99 100 100 100 97 91 84 79 76 79 77 68 54 53 44 37 33 34 31 36 36 37 40 33 32 31 30 30

GFSSE_925_rhum_048.txt.gz
RH
70 78 78 76 71 79 83 87 87 87 85 87 92 92 92 90 89 90 75 75 76 92 90 89 86 85 92 89 85 89 90 84 58 55 62 86 91 88 83 60 69 65 80
66 75 84 78 72 80 85 88 87 86 83 83 93 98 97 96 96 94 91 96 90 90 84 94 91 89 88 86 87 82 60 51 54 53 52 47 74 89 96 66 69 80 91
66 73 84 77 68 80 83 87 90 88 85 82 85 93 90 91 90 89 86 89 91 89 86 92 93 90 83 86 90 92 75 58 64 64 68 56 56 72 82 92 80 78 78
70 75 80 72 74 81 87 87 90 86 81 76 77 88 85 82 84 93 88 85 93 91 97 96 76 80 82 90 92 86 66 60 69 72 64 67 66 74 65 72 86 92 83
70 68 80 75 78 78 80 81 85 84 81 76 77 81 87 80 94 96 96 99 98 98 94 80 84 85 89 94 94 85 70 66 67 69 72 78 82 87 95 86 80 79 77
68 70 90 78 81 79 78 82 80 86 81 78 80 78 86 81 92 87 93 91 91 90 85 83 85 90 93 96 94 76 71 69 71 69 71 76 88 93 96 92 91 97 97
68 68 87 76 75 74 78 77 81 91 82 77 79 83 84 84 87 80 83 82 82 77 85 88 88 82 90 88 75 73 71 69 67 68 69 73 83 97 96 97 89 94 99
72 72 75 79 80 82 81 82 80 88 84 84 81 88 84 86 91 88 90 88 82 83 88 91 95 95 88 78 74 72 70 72 70 68 70 81 89 95 96 93 87 89 94
75 72 70 80 85 83 81 80 81 83 83 84 83 85 86 87 90 94 95 96 94 94 96 92 90 91 78 68 64 65 71 71 66 67 68 77 84 93 93 91 90 91 90
79 73 69 70 77 79 86 77 74 72 86 84 84 82 82 80 81 92 85 90 95 88 86 85 88 78 68 62 62 64 72 68 68 73 67 76 91 96 95 90 87 86 87
81 76 74 71 72 74 69 75 72 75 98 89 84 83 85 70 78 83 80 82 83 82 82 85 81 68 58 56 59 64 67 62 61 62 62 79 88 96 95 91 86 86 86
93 86 78 76 73 72 71 71 66 78 93 86 76 78 71 69 69 67 75 78 84 81 80 93 76 61 51 57 59 53 52 54 57 61 64 82 92 95 92 91 90 89 87
91 96 97 80 74 72 71 69 65 73 73 72 67 66 68 72 80 80 73 79 81 84 81 95 77 57 49 44 47 48 50 50 48 59 72 81 93 90 86 85 86 81 76
86 90 95 97 80 75 70 72 65 69 76 72 70 64 69 73 76 77 72 69 72 77 75 83 70 60 54 46 44 45 45 45 48 53 73 83 88 84 81 79 76 74 74
83 88 92 97 88 81 80 72 69 70 76 74 75 71 67 70 72 74 77 73 69 70 72 75 70 56 47 40 39 40 40 41 47 56 61 85 77 81 77 73 72 69 70
69 78 88 91 92 81 99 84 78 74 71 76 77 76 75 67 71 74 74 77 75 73 73 72 68 53 44 39 35 36 38 39 43 52 53 75 72 75 73 72 64 62 66
44 56 70 81 86 87 97 98 89 84 81 74 76 76 78 74 70 71 72 75 81 78 72 74 66 52 43 37 35 33 39 39 42 50 55 54 70 71 71 64 59 58 61
27 33 46 62 77 82 97 100 99 96 89 82 79 77 78 76 74 73 74 74 79 81 76 74 66 54 45 39 36 34 36 41 41 44 53 55 55 52 60 62 59 53 57
26 26 28 46 60 71 84 98 99 98 98 86 89 87 82 80 80 76 73 74 78 82 80 75 68 59 49 42 38 35 33 37 42 44 48 52 52 49 47 51 40 53 44
30 29 28 30 44 57 71 94 100 100 98 91 86 87 87 84 85 84 75 74 76 82 83 77 66 59 51 45 35 33 35 32 36 42 43 48 46 50 47 44 42 39 26
29 30 32 32 33 41 54 88 100 100 100 100 97 89 87 86 86 88 80 76 76 78 81 79 69 60 52 45 37 39 38 36 34 35 44 44 42 46 44 44 41 35 29
26 26 28 30 33 34 42 60 82 90 98 100 100 99 98 91 92 90 88 77 76 78 80 83 73 62 56 46 44 43 42 37 35 35 36 42 40 41 40 39 38 35 33
38 36 33 33 34 36 37 45 61 72 80 85 96 99 99 99 93 94 95 87 83 81 80 82 78 68 60 50 44 47 49 50 35 37 37 40 40 39 39 38 37 36 36
49 53 50 44 37 37 40 39 45 63 73 75 73 82 92 99 99 97 98 97 92 89 83 83 82 74 68 56 48 44 42 39 37 43 38 39 38 37 38 39 38 39 39
54 57 53 47 45 44 40 40 41 53 63 66 67 75 79 90 99 99 99 100 98 96 92 84 80 76 72 63 55 47 43 40 36 36 39 39 41 40 38 41 38 38 39
53 53 54 50 46 48 52 44 44 46 59 65 71 77 82 87 97 100 100 100 99 98 97 91 86 79 75 72 58 54 48 45 39 33 33 38 37 38 42 42 40 40 40

GFSSE_925_rhum_051.txt.gz
RH
59 79 66 78 80 83 80 84 86 87 88 86 87 86 85 88 87 83 86 82 88 91 91 92 89 94 89 82 89 84 67 59 51 51 51 79 88 83 64 67 69 69 86
59 74 65 68 74 79 83 85 88 84 82 77 85 91 96 92 94 90 94 86 85 91 91 90 92 90 88 89 86 74 56 51 48 48 56 51 77 95 84 64 68 86 84
58 74 85 75 72 74 84 88 87 85 81 81 85 92 94 94 90 92 75 92 89 91 86 93 91 86 89 89 92 86 60 55 53 61 56 51 64 76 90 73 79 77 78
57 71 75 76 70 80 88 86 87 84 82 76 77 91 86 83 90 89 85 94 90 90 97 83 74 84 91 93 95 91 65 62 66 63 56 57 62 67 72 81 90 87 75
56 63 77 71 70 83 83 82 84 81 78 74 76 80 80 86 95 93 99 97 97 96 77 68 74 87 92 94 96 74 61 60 66 61 64 78 81 87 97 89 93 92 80
54 59 80 72 76 81 86 82 81 78 79 74 75 78 76 92 95 95 95 93 88 81 77 75 89 91 85 89 81 71 66 66 66 62 64 85 93 95 97 94 96 98 97
52 65 86 76 78 81 82 80 78 79 78 76 78 78 81 90 88 94 85 87 86 76 69 82 89 82 86 86 78 72 69 68 66 61 64 80 94 98 96 97 91 98 99
53 60 77 82 75 74 80 82 78 78 78 78 78 83 84 89 89 89 87 84 79 74 77 90 94 95 90 80 74 70 69 67 60 60 71 84 92 94 94 92 93 92 95
57 58 67 75 78 78 82 82 82 77 80 78 79 79 87 87 94 91 84 86 84 91 94 96 89 85 74 68 64 66 67 69 62 61 68 79 87 93 92 91 91 90 91
60 57 58 66 79 80 86 78 81 86 87 75 81 75 74 76 76 82 82 80 78 82 83 82 84 75 67 61 62 64 67 63 61 64 66 78 88 95 92 90 84 88 89
61 59 55 57 64 64 65 85 82 81 78 81 86 75 68 71 79 62 76 63 77 78 79 83 81 69 60 57 59 63 63 58 55 56 66 65 95 96 94 88 84 88 88
66 60 58 57 58 60 59 69 70 73 87 82 86 86 65 58 62 61 78 73 81 77 79 83 78 63 57 62 59 55 53 52 51 55 74 67 93 94 93 91 91 89 84
84 74 64 61 59 59 57 58 57 58 83 81 66 66 60 59 65 64 73 76 85 78 86 86 83 62 50 44 50 48 48 48 44 53 76 72 89 90 87 87 88 82 77
75 82 88 70 64 60 57 58 52 57 62 58 60 56 58 60 64 66 61 64 70 72 70 83 78 59 51 47 44 45 47 43 42 46 74 70 86 88 82 82 78 76 76
66 77 85 88 76 67 62 56 54 54 61 62 60 57 54 59 61 63 62 61 60 61 62 70 66 58 54 46 42 42 41 40 40 48 70 77 86 81 79 76 74 74 74
57 62 75 85 91 75 68 64 61 59 60 65 64 64 57 57 61 62 62 62 62 59 60 61 62 59 49 43 40 38 39 38 37 46 55 80 82 71 74 74 70 66 71
43 49 59 71 81 81 67 82 71 67 64 63 67 67 66 62 60 62 63 62 64 64 62 61 61 57 48 42 38 37 38 39 39 41 48 61 78 73 71 72 64 63 66
27 30 40 52 65 70 69 79 91 73 70 68 65 67 68 68 64 62 62 63 62 66 67 63 63 58 49 43 40 37 37 40 39 38 46 48 61 66 70 66 62 59 62
25 26 26 30 43 57 62 74 90 98 87 76 70 69 67 68 68 66 64 64 63 66 69 68 65 59 52 47 42 38 36 40 40 38 41 48 50 50 57 58 59 53 59
21 23 24 24 26 35 46 56 80 89 96 96 77 72 74 72 72 71 69 66 64 66 71 72 67 63 55 50 44 38 38 36 39 40 40 43 47 50 46 50 48 47 45
25 26 26 26 27 27 34 44 82 94 90 100 96 76 75 79 77 76 76 71 67 66 70 72 70 65 60 52 46 37 39 39 36 36 40 40 44 48 47 43 44 42 38
24 23 23 25 27 28 29 32 42 77 88 94 98 98 89 78 78 80 80 79 72 69 68 71 71 68 61 54 47 46 54 44 39 36 34 40 41 43 45 42 43 39 34
39 42 35 30 30 31 32 32 35 49 68 78 95 93 98 97 89 82 84 83 79 72 72 73 74 72 65 57 49 51 63 62 43 38 35 37 40 41 42 41 40 37 35
47 52 46 43 39 34 34 36 37 38 51 61 66 69 76 84 92 92 88 87 86 82 77 76 76 78 69 62 54 51 51 42 53 51 39 37 39 40 40 40 38 36 36
50 53 52 46 41 43 40 37 36 36 39 45 55 61 64 67 81 92 93 90 93 91 88 81 79 82 76 65 60 58 52 44 40 44 50 43 40 39 38 39 38 38 38
49 52 52 47 44 42 44 45 40 40 41 40 48 58 60 65 72 82 86 90 94 95 91 90 85 87 82 77 65 63 55 53 48 42 50 45 43 42 40 38 41 39 39

GFSSE_925_rhum_054.txt.gz
RH
78 71 76 78 79 83 82 84 86 86 81 84 86 89 88 86 88 88 83 76 90 94 94 92 94 92 92 93 91 74 54 46 41 40 43 67 87 78 73 72 77 84 90
75 71 77 80 78 82 82 84 85 83 76 72 73 80 88 90 92 92 94 80 92 88 89 91 91 91 92 90 86 60 48 42 52 56 57 46 71 93 74 70 68 87 90
75 81 74 73 73 78 84 87 83 78 73 78 80 82 92 92 83 80 83 92 93 86 96 91 87 90 93 94 89 70 49 56 62 62 59 54 48 82 89 78 80 80 83
74 77 73 74 73 80 85 84 81 75 78 74 75 87 86 85 93 93 93 91 92 95 93 73 85 91 91 94 83 55 52 64 63 66 75 70 76 75 83 87 88 86 90
73 77 81 77 71 86 81 79 76 72 73 77 76 83 84 93 99 97 98 92 95 88 69 66 78 92 94 94 84 57 57 66 64 64 64 71 80 94 96 98 96 89 95
64 74 76 72 76 78 71 71 73 74 74 78 77 71 85 97 99 100 98 95 88 74 72 67 84 93 94 92 76 62 65 65 62 66 73 77 86 97 99 97 99 99 99
73 76 71 70 80 86 79 75 69 76 70 76 77 74 85 96 96 87 92 89 80 70 69 79 91 89 86 76 70 65 64 65 62 64 64 72 92 95 96 98 98 99 99
71 84 75 70 77 79 77 76 73 72 71 78 76 78 86 91 94 85 83 82 78 69 70 82 90 83 75 71 69 65 62 66 62 63 66 68 89 93 93 95 94 95 97
63 76 80 77 76 74 72 71 76 76 72 78 75 75 80 92 88 95 83 82 75 68 71 85 85 74 69 63 63 65 63 66 64 68 70 72 87 92 93 92 93 93 94
56 68 75 78 75 74 73 77 77 78 84 79 77 75 62 67 87 86 84 84 73 68 72 80 77 68 63 59 59 60 60 63 65 67 70 70 87 94 93 87 89 91 91
58 56 64 72 78 75 76 76 76 79 86 80 82 75 55 54 50 49 78 72 65 71 80 80 74 65 59 56 59 61 59 59 59 66 72 65 90 94 92 88 86 90 88
62 57 56 63 69 73 71 78 78 80 76 78 81 78 53 71 67 65 68 69 70 80 81 79 76 63 55 55 53 52 52 53 52 61 70 65 91 94 93 92 91 89 82
75 61 57 56 58 60 59 65 68 74 79 78 79 78 60 62 62 65 71 67 71 82 82 81 80 63 51 60 54 49 50 48 48 56 66 68 86 91 91 90 89 82 79
78 78 70 65 58 58 58 58 60 62 73 73 79 68 59 60 61 64 68 60 63 77 81 81 76 69 51 47 45 48 47 48 42 53 63 67 72 88 84 85 81 79 79
73 76 77 75 68 61 57 57 55 53 71 70 68 62 60 58 64 67 64 64 62 75 68 79 74 72 57 52 46 45 44 43 41 47 60 70 74 84 81 80 78 78 78
61 70 78 78 75 72 64 59 56 54 56 61 60 60 56 57 60 64 65 63 61 62 67 69 70 68 57 53 45 42 41 40 38 47 58 68 72 80 76 75 76 73 76
53 58 69 75 80 77 75 66 62 61 59 61 65 64 62 56 59 62 62 64 62 62 60 61 62 63 60 50 43 40 39 39 38 40 52 63 65 78 65 75 72 69 73
28 29 56 68 75 79 77 73 70 69 68 65 65 67 67 65 59 60 62 63 64 65 64 61 62 62 59 49 43 39 37 39 39 38 46 57 62 63 66 74 69 65 67
23 26 27 29 54 70 72 70 77 70 74 71 68 67 67 69 68 64 63 63 64 64 66 66 64 64 61 51 44 40 37 38 40 39 40 48 60 59 58 62 62 62 64
24 24 25 26 27 30 43 63 66 77 75 74 80 76 70 68 69 69 66 64 64 64 65 68 68 66 63 55 47 42 39 37 40 40 38 43 49 54 57 54 54 52 55
24 24 26 27 26 26 26 32 63 82 83 79 76 84 81 74 72 73 70 69 66 65 65 69 69 68 66 57 52 44 40 38 37 40 40 39 45 48 49 51 50 49 44
27 25 24 24 26 27 28 28 33 62 75 70 77 76 88 90 77 78 77 75 73 69 66 69 73 73 68 61 52 44 60 47 40 37 38 40 41 46 46 48 47 42 38
45 47 42 35 28 28 30 32 32 33 62 83 88 87 83 87 92 89 84 79 83 79 74 70 75 75 75 65 56 50 78 77 52 41 37 36 41 43 44 45 46 44 41
51 54 52 47 42 39 32 32 35 37 40 52 74 75 79 81 80 74 79 93 83 85 81 79 74 81 78 71 62 51 51 53 63 55 40 36 37 42 42 43 44 42 42
51 53 53 50 45 42 43 43 37 38 38 38 38 44 63 69 72 79 83 78 77 85 85 80 77 79 82 79 69 58 58 58 44 58 62 50 37 39 41 42 41 40 39
50 51 52 50 48 46 44 45 45 43 41 40 40 42 46 56 62 66 75 85 77 82 88 89 89 87 90 88 77 68 61 64 58 50 75 62 53 44 40 41 42 40 38

GFSSE_925_rhum_057.txt.gz
RH
80 78 78 77 80 79 81 82 81 85 81 86 92 94 96 94 89 73 75 91 91 95 92 94 93 95 96 92 68 47 45 44 49 39 42 73 81 89 89 87 84 87 88
75 79 79 82 83 80 87 82 81 84 78 77 76 78 94 91 90 94 74 87 87 90 92 90 91 93 92 86 53 44 48 55 57 60 48 56 76 84 84 83 88 93 92
74 80 78 77 80 80 82 85 81 74 71 74 80 83 89 74 92 93 91 92 94 97 90 89 92 92 94 85 53 48 62 65 65 62 61 58 62 92 94 78 83 85 87
70 78 79 76 77 82 82 79 76 72 77 74 80 79 70 83 94 94 92 95 98 97 86 90 91 93 94 76 50 59 67 70 77 75 68 85 82 88 94 93 89 97 89
69 75 79 80 76 83 79 78 76 72 74 72 74 70 82 95 94 94 95 92 92 72 75 87 90 93 92 65 51 66 67 68 67 72 75 79 87 98 99 97 95 96 96
74 73 79 76 73 78 74 77 74 72 75 77 70 76 96 96 94 94 100 92 82 71 72 78 89 92 74 60 57 66 65 68 66 67 71 79 92 93 98 96 90 93 94
81 76 77 74 78 76 73 74 73 73 74 77 69 78 96 98 100 98 95 85 74 67 58 64 82 76 70 65 59 66 65 70 65 63 72 79 91 90 96 98 97 99 100
78 74 68 69 79 81 74 72 72 72 73 76 69 69 98 95 88 87 86 81 73 64 59 70 78 70 66 64 60 65 66 72 71 66 70 74 88 93 94 95 96 99 100
76 73 72 74 80 81 74 73 74 73 74 74 72 52 92 90 88 86 83 79 76 64 61 69 68 68 64 61 60 57 68 68 74 68 69 70 85 90 93 95 94 95 95
75 72 74 78 77 78 72 74 74 75 77 76 74 64 61 83 86 76 83 83 74 63 63 70 69 64 59 54 54 59 65 66 70 69 71 76 91 93 91 92 92 92 92
75 70 70 72 73 72 72 74 74 78 78 80 74 75 51 56 72 72 74 81 72 64 69 74 69 63 57 54 55 56 62 62 70 68 71 74 86 93 92 90 91 91 87
74 74 69 70 69 72 74 75 74 75 78 77 75 78 49 48 42 47 75 66 58 66 76 77 74 64 54 52 54 55 57 55 62 64 70 71 86 93 92 93 93 86 84
66 72 74 69 68 72 78 78 77 77 79 73 77 79 49 69 69 60 62 70 58 75 83 79 76 64 57 56 51 49 51 52 58 58 66 68 75 88 92 93 90 83 82
72 72 73 74 69 73 74 74 65 62 64 69 80 78 52 68 71 70 67 66 56 72 80 78 74 69 51 51 57 50 50 49 46 58 60 64 68 84 87 90 84 82 81
63 69 67 66 64 62 61 58 62 60 62 70 76 79 66 63 67 64 64 62 57 55 69 72 76 72 56 52 47 47 48 46 44 48 55 64 67 74 84 83 82 80 80
72 64 60 68 67 69 60 58 59 61 57 68 72 77 73 58 63 64 67 65 63 61 64 73 73 74 66 56 53 46 46 44 43 44 57 59 70 70 79 81 80 80 80
63 65 64 57 66 69 68 62 59 57 59 67 68 63 65 60 59 65 68 67 65 62 63 70 71 74 77 59 56 47 43 41 41 40 54 59 67 71 74 76 78 76 78
51 63 65 72 67 64 72 72 64 64 60 61 62 64 64 63 57 60 62 65 66 65 62 62 65 73 70 60 55 47 42 40 40 38 43 56 61 65 71 67 78 73 76
24 29 44 70 73 72 68 72 74 68 66 67 64 64 65 67 68 59 59 62 63 65 66 64 61 62 64 63 54 46 42 38 39 40 40 47 58 58 60 60 72 70 72
24 26 27 31 55 66 66 72 73 73 68 67 68 67 68 69 70 70 66 61 62 64 65 68 66 63 64 64 56 47 44 40 37 40 40 42 50 57 57 57 61 62 62
24 24 25 26 27 27 35 57 76 78 77 70 68 72 71 73 76 72 72 71 68 64 65 64 69 69 67 66 57 50 45 43 37 37 41 40 46 50 57 57 56 58 54
35 31 26 25 25 27 28 32 38 67 79 73 73 71 69 68 70 88 83 74 71 68 66 67 66 73 71 70 59 54 57 48 40 38 39 41 40 46 50 55 56 52 51
44 44 45 42 35 29 28 29 32 34 53 75 82 82 80 75 67 64 74 89 83 78 73 70 70 73 83 76 66 58 79 71 58 41 40 38 40 41 47 49 50 53 51
50 50 51 50 46 43 42 37 32 34 39 38 44 55 69 78 75 77 70 71 72 80 92 84 81 79 85 89 78 61 55 56 68 63 45 44 38 41 42 49 48 49 48
52 53 53 51 47 46 46 46 46 44 39 38 38 38 40 44 65 77 74 74 70 68 70 86 92 93 90 90 84 76 65 68 59 63 68 58 46 40 42 47 48 47 47
52 53 54 56 54 51 48 48 49 51 50 48 47 45 42 42 47 66 71 67 73 80 76 73 74 84 97 98 96 86 76 72 74 65 80 77 72 54 45 48 48 51 51

GFSSE_925_rhum_060.txt.gz
RH
83 78 80 84 83 86 90 87 88 88 87 85 93 98 95 92 77 84 95 94 96 95 94 94 96 97 88 66 56 45 72 71 50 44 57 77 92 88 87 86 86 86 90
78 78 80 84 85 84 86 85 84 83 80 76 72 74 97 95 91 90 93 94 92 91 89 90 92 94 88 68 51 62 65 59 57 51 57 59 75 88 86 93 90 93 90
77 80 81 82 82 84 83 82 81 77 74 77 77 80 81 85 92 89 92 96 97 90 92 91 90 94 83 54 60 68 65 66 62 64 66 69 84 93 82 85 88 88 88
78 86 83 82 82 83 83 77 78 72 74 78 81 76 75 95 94 92 94 98 97 92 91 91 93 94 66 54 75 75 76 77 73 70 85 84 87 96 95 89 96 93 90
80 80 79 81 82 83 81 78 72 73 72 67 78 61 91 92 95 92 96 97 84 74 69 87 90 79 56 59 70 73 72 71 73 78 84 91 93 97 98 96 97 95 97
81 78 78 78 78 82 79 77 75 72 70 66 68 88 90 94 90 89 93 90 70 69 68 79 83 57 50 60 69 69 68 72 76 78 84 86 88 92 98 86 88 94 99
80 80 82 82 79 80 78 77 75 74 72 64 71 95 90 95 90 95 97 84 69 66 50 54 62 62 53 63 67 68 72 77 74 73 79 82 82 85 90 95 96 94 96
71 76 77 72 80 75 76 77 77 74 72 73 54 94 100 98 100 100 90 75 71 65 46 65 62 60 57 57 66 68 68 70 71 70 72 82 88 93 94 95 97 99 99
75 77 76 72 77 77 73 74 77 75 74 68 54 70 91 91 94 94 84 78 75 64 47 57 59 59 59 57 63 67 69 71 72 70 69 73 83 90 92 94 96 96 96
80 73 70 80 79 74 71 73 74 76 76 72 67 44 72 84 83 85 85 86 82 68 59 62 65 62 56 56 56 66 69 70 73 73 71 75 85 92 95 94 94 94 92
82 75 74 79 79 77 75 73 76 76 76 77 75 63 58 72 74 68 79 84 80 70 66 76 71 62 56 52 55 66 68 69 72 74 73 80 93 93 93 94 93 90 89
92 81 71 72 74 75 76 75 76 78 78 79 75 74 47 55 65 62 60 73 77 70 70 79 71 65 58 54 56 61 64 60 67 72 73 77 89 95 92 93 93 88 87
81 80 74 69 69 72 76 76 76 77 77 77 72 76 56 47 45 49 71 74 68 61 71 86 80 68 55 52 54 56 59 56 58 70 70 72 82 92 92 94 91 86 85
80 78 74 74 72 70 72 74 76 76 79 78 66 75 80 53 64 65 60 60 50 51 66 73 76 73 56 57 54 50 51 52 55 65 70 68 72 84 91 92 89 84 83
78 80 77 76 76 74 76 75 78 72 71 62 61 74 78 53 67 68 68 66 63 57 58 69 74 72 69 52 49 53 50 50 50 49 61 70 67 70 85 91 86 84 83
65 69 76 78 75 76 79 77 70 63 59 63 68 70 77 66 63 65 64 67 66 62 52 55 65 71 73 66 51 47 46 48 48 46 48 61 66 66 73 85 84 82 82
63 62 64 68 70 69 67 68 63 61 60 58 66 71 74 74 65 64 64 66 68 66 63 62 70 73 78 75 60 54 50 46 46 44 45 54 61 68 67 81 83 82 82
66 66 59 61 65 70 68 62 61 61 61 61 62 71 70 73 66 62 63 66 68 68 66 65 68 72 73 78 79 62 56 47 44 42 42 50 62 64 70 71 79 81 81
47 63 69 65 65 65 68 74 69 64 65 67 63 67 66 65 64 62 60 62 66 68 69 67 66 70 72 74 80 68 56 50 44 41 41 44 55 62 62 63 68 73 78
27 30 47 73 76 75 73 72 75 76 72 67 69 67 67 66 67 66 67 64 62 65 66 68 68 65 67 65 68 63 57 49 44 40 39 40 45 56 62 59 63 68 69
27 27 27 29 34 52 79 84 82 79 77 74 70 69 71 71 71 75 72 71 70 67 64 66 67 70 69 69 71 66 57 49 44 41 39 39 40 44 58 63 60 60 64
35 32 31 33 31 29 31 36 57 73 81 80 78 78 75 73 70 72 70 69 75 76 74 72 69 71 74 78 76 68 67 58 49 47 44 40 40 40 45 60 63 58 60
45 45 43 40 40 40 36 32 31 34 40 67 64 63 63 78 81 78 75 71 74 82 83 80 76 75 81 80 83 75 79 78 63 48 47 43 40 42 42 47 60 62 58
50 50 49 49 47 46 45 44 40 35 35 35 36 39 46 54 67 79 82 81 81 79 81 74 74 84 85 91 94 83 76 65 72 75 49 44 43 45 45 44 53 59 63
53 52 51 51 51 49 47 48 48 49 48 46 44 42 41 40 42 46 55 82 82 72 71 71 78 82 90 99 97 91 84 85 72 76 73 63 51 50 46 45 44 50 56
54 54 55 55 55 54 53 53 52 54 54 54 56 55 55 53 54 56 63 73 79 83 75 76 77 79 81 84 93 99 97 84 84 84 87 78 80 64 57 50 49 52 53

GFSSE_925_rhum_063.txt.gz
RH
86 83 81 90 89 88 88 91 84 80 81 90 96 95 87 87 95 96 95 95 96 96 95 97 96 95 88 83 83 86 82 66 58 62 77 87 90 91 98 85 78 81 87
83 85 82 86 88 86 86 85 84 81 82 82 84 94 98 93 95 95 94 94 92 91 89 92 96 89 82 80 69 67 65 58 57 54 56 65 77 86 95 84 84 90 91
88 84 84 84 82 83 82 82 80 84 86 78 77 82 85 93 90 92 97 95 93 92 90 90 94 91 84 68 69 66 67 63 66 69 70 80 89 84 84 79 89 90 88
83 84 84 82 83 82 78 86 84 78 81 77 76 73 84 91 91 88 96 97 94 90 89 91 95 77 69 78 79 76 74 70 68 81 83 85 93 97 88 95 96 88 91
85 80 85 81 84 78 83 84 77 72 77 79 78 67 85 94 94 87 99 92 70 60 59 80 78 64 66 78 76 73 70 70 73 78 86 94 94 97 93 95 93 97 91
85 82 84 83 81 82 81 79 73 72 64 70 69 93 91 89 93 95 96 83 66 58 30 41 53 56 67 75 74 71 70 73 75 80 89 90 85 97 97 91 91 85 86
84 78 77 78 78 84 80 77 74 71 60 56 88 93 82 96 93 94 92 79 67 59 34 45 50 50 64 72 71 73 74 75 78 81 84 84 78 81 88 91 91 87 85
80 81 76 76 80 81 80 77 76 73 59 49 76 83 87 91 89 98 94 76 73 64 44 53 59 53 61 69 68 71 76 76 76 74 76 80 84 92 95 97 91 98 98
80 81 79 78 80 75 78 77 78 74 69 48 65 81 81 89 94 99 92 81 84 76 57 59 63 61 60 66 68 70 71 73 72 72 71 72 80 90 95 97 97 97 98
76 77 78 74 77 74 79 77 77 76 74 58 44 84 86 80 86 91 86 89 88 78 67 71 69 65 62 62 67 69 70 71 74 73 74 75 87 91 95 96 95 95 93
86 82 76 77 82 74 74 75 75 77 76 74 68 47 75 83 82 83 83 81 79 73 59 61 68 65 60 58 63 71 70 74 76 75 76 79 89 95 95 96 93 91 91
92 85 76 78 84 79 76 77 78 79 79 78 78 67 54 65 69 72 77 86 83 74 63 57 64 63 59 55 57 67 70 69 69 74 77 81 90 94 95 96 93 89 88
81 83 82 84 82 81 78 78 80 81 81 80 79 71 65 52 59 64 63 72 81 77 67 73 74 65 58 52 54 59 66 64 58 67 74 80 83 95 94 96 95 88 87
86 79 77 78 77 80 78 78 78 78 79 79 78 73 76 52 46 45 45 67 70 63 58 63 71 70 65 54 51 52 58 58 54 57 69 76 79 92 93 96 95 87 86
85 80 77 78 76 75 78 78 77 77 79 78 80 71 75 78 49 58 56 57 60 57 50 55 64 72 71 63 55 54 50 51 52 53 56 68 74 79 89 95 94 87 84
80 78 76 76 75 73 74 76 76 78 77 75 68 65 69 76 51 59 64 67 68 68 63 57 54 64 68 71 68 53 49 50 49 52 51 58 67 75 75 90 92 87 84
76 77 74 71 75 77 74 74 76 77 74 66 60 68 70 75 76 62 62 63 64 67 69 66 60 63 72 77 79 70 53 50 48 47 48 49 55 64 70 82 88 88 85
68 71 73 78 76 74 76 76 77 75 69 64 62 60 67 73 76 78 68 65 64 65 70 70 66 66 70 75 78 79 73 61 56 49 46 45 47 56 63 71 75 86 86
62 64 69 73 74 76 75 71 69 67 65 64 64 62 62 68 73 76 76 67 64 66 68 71 70 70 70 72 75 74 77 79 68 56 48 44 43 47 58 63 67 70 77
36 59 64 69 74 78 80 81 80 79 73 68 68 70 66 65 71 71 75 71 67 69 70 73 73 72 71 69 72 76 73 77 77 59 51 46 43 42 47 58 61 68 69
31 33 44 64 72 77 82 83 82 79 79 81 77 74 76 76 76 76 74 71 70 72 71 71 75 77 76 74 78 76 73 71 67 61 53 47 44 44 43 50 61 65 67
36 33 31 31 31 32 42 66 80 83 82 82 82 83 85 84 87 90 86 82 74 79 77 80 78 78 81 82 84 82 87 72 66 66 59 50 46 43 44 46 54 64 68
47 47 43 40 36 34 32 30 32 36 40 50 68 74 79 83 82 88 92 90 84 84 81 79 87 86 91 86 84 86 88 84 75 60 58 56 54 50 45 47 50 59 68
49 49 50 50 48 46 43 41 38 34 34 34 38 36 36 40 46 54 67 82 84 85 88 81 84 91 90 95 94 93 87 86 83 85 60 51 50 50 53 50 50 52 55
55 51 51 52 51 51 50 49 49 48 48 48 47 44 41 38 40 42 47 50 63 82 88 86 82 82 86 93 98 93 89 97 95 88 87 80 66 59 57 54 54 54 55
57 56 54 54 55 56 56 56 55 56 56 56 60 61 60 59 57 59 59 62 69 73 86 92 92 90 82 82 92 100 98 92 96 98 95 87 87 79 77 73 76 75 72

GFSSE_925_rhum_066.txt.gz
RH
84 82 83 86 87 88 93 96 91 83 80 82 86 86 92 96 95 95 96 96 97 94 92 93 94 92 88 86 85 79 83 70 57 60 82 89 91 96 84 76 78 80 89
82 84 83 85 87 88 83 81 80 80 81 85 92 98 97 96 95 96 93 91 89 90 92 94 93 86 84 86 88 78 64 54 51 54 58 63 76 94 94 76 77 89 90
84 84 83 83 85 83 82 79 80 83 86 76 80 90 97 92 94 96 96 95 93 88 88 93 94 89 88 87 78 70 63 64 70 69 74 84 80 84 78 73 86 89 89
89 83 83 82 82 81 80 81 86 87 83 80 76 76 89 92 92 94 98 96 90 82 90 95 93 82 84 76 75 71 69 69 79 79 82 89 94 92 93 98 95 95 96
86 82 83 80 84 83 86 85 78 75 78 79 79 70 96 94 91 93 98 82 70 51 83 91 80 71 80 75 74 71 70 72 74 82 92 90 90 89 94 86 92 85 85
85 84 82 85 83 84 83 82 76 71 73 66 75 90 96 96 92 99 96 76 67 39 62 68 65 66 76 75 71 70 71 71 75 89 94 90 90 96 93 92 85 79 92
85 86 84 84 83 82 81 78 74 69 52 61 86 83 89 96 96 99 91 75 68 43 51 61 60 67 74 76 73 73 74 74 78 84 84 82 85 86 87 91 89 89 81
83 88 82 81 82 81 80 77 75 70 52 58 80 80 82 91 89 93 92 75 74 60 55 62 61 62 72 75 74 80 78 75 76 78 78 79 79 90 95 95 85 92 96
81 82 82 77 80 80 79 78 76 72 56 52 82 80 79 81 83 92 90 79 83 79 67 69 68 66 68 72 73 74 76 77 76 75 74 72 76 91 96 96 90 90 95
82 86 83 76 79 78 79 78 78 75 66 43 80 83 82 86 87 92 81 76 77 74 52 56 60 64 67 66 70 72 72 73 78 76 76 77 90 92 94 89 95 92 87
92 89 86 79 78 80 77 78 80 78 74 68 46 69 84 88 92 94 88 86 88 82 63 51 58 60 58 59 61 67 70 71 77 76 76 77 88 96 95 90 88 86 86
100 88 85 80 80 82 78 79 77 79 77 77 75 61 56 73 79 84 86 86 86 84 70 58 65 67 60 55 57 60 68 69 70 70 73 78 84 96 96 93 81 84 86
97 87 85 82 85 83 79 81 82 81 80 80 80 78 65 54 62 66 66 65 77 78 73 64 66 66 62 57 54 58 63 69 66 60 68 75 79 95 96 96 97 91 89
90 86 80 80 86 88 82 81 80 81 81 81 81 79 73 65 48 49 49 49 62 74 72 66 62 69 67 61 53 52 57 62 63 56 59 70 77 92 93 95 98 93 89
88 82 79 80 87 86 86 82 81 80 79 77 80 80 76 73 69 45 43 43 55 64 57 55 59 63 67 68 65 56 56 54 55 53 52 57 66 75 90 92 95 95 89
85 81 77 75 75 79 80 80 79 78 77 79 79 79 78 68 75 56 52 61 61 64 67 65 62 61 62 69 69 69 63 52 51 54 50 52 53 63 75 91 92 93 90
81 77 77 74 74 76 76 74 76 77 78 80 77 72 72 68 71 76 58 62 63 65 69 72 71 69 66 65 69 70 74 72 56 51 50 50 50 51 57 70 89 92 91
78 76 75 77 77 77 77 74 74 77 78 78 74 69 66 70 73 76 79 72 66 66 67 69 72 73 70 70 69 70 73 76 76 68 60 57 50 48 49 56 62 85 90
74 78 79 80 79 77 77 78 79 79 80 79 75 69 67 67 67 73 76 76 78 75 69 69 71 75 75 72 71 70 71 74 74 76 79 69 57 49 47 49 55 63 76
62 62 76 81 82 81 83 83 80 78 77 75 71 67 66 68 69 71 74 79 80 83 82 72 73 73 76 76 78 79 76 74 74 73 74 80 69 56 49 48 54 62 71
26 39 58 66 78 82 85 88 90 86 82 81 78 76 75 77 81 80 78 78 76 79 77 73 75 80 80 81 87 84 78 76 74 73 71 70 70 62 54 49 51 57 68
34 35 40 45 50 55 70 86 89 88 88 85 84 86 88 91 90 91 88 87 87 85 81 82 85 87 87 85 88 88 89 76 69 63 64 66 67 64 56 50 50 53 62
41 39 37 36 34 33 32 34 39 46 53 61 71 82 88 92 95 97 96 96 98 100 97 91 90 91 97 93 90 90 95 92 76 66 63 64 66 61 58 57 54 51 53
51 49 46 44 42 40 39 38 37 35 34 35 38 42 42 41 44 48 55 66 80 96 100 96 92 93 100 99 98 95 95 93 94 96 72 67 67 66 67 65 58 55 55
58 54 53 51 49 49 48 47 46 48 49 49 48 48 50 50 50 53 54 56 58 66 81 98 100 98 95 100 100 99 96 95 99 99 97 84 76 72 73 72 73 68 63
61 59 57 56 57 56 55 54 53 54 56 58 61 62 62 62 61 62 63 65 70 73 74 77 99 100 99 100 100 99 96 93 96 98 99 95 90 77 81 81 76 75 76

GFSSE_925_rhum_069.txt.gz
RH
81 78 87 84 87 85 87 97 99 96 87 95 96 96 95 90 96 95 95 97 94 91 91 94 94 93 91 90 84 57 50 61 59 72 62 73 92 97 92 78 77 81 86
79 92 85 84 85 86 89 92 91 82 85 90 93 96 97 94 96 94 91 91 89 90 92 93 90 91 93 88 72 70 58 55 57 57 56 62 76 93 81 64 77 79 81
91 96 90 85 84 85 85 83 78 82 85 76 87 94 92 95 94 95 94 94 88 88 91 94 91 92 90 82 78 69 67 72 70 72 80 86 81 87 90 79 85 92 86
94 97 96 83 83 82 80 78 80 89 77 76 78 76 90 92 95 98 96 94 83 90 94 96 92 90 83 78 77 71 69 76 79 89 96 94 88 89 97 94 93 94 90
98 86 83 82 83 82 79 82 82 76 76 76 69 71 89 85 94 98 96 76 49 59 86 84 74 80 76 75 68 67 70 70 83 91 96 93 98 91 97 97 95 83 89
95 84 85 81 83 83 82 80 74 72 75 77 71 76 85 90 95 93 88 71 47 47 74 71 68 74 73 71 69 70 71 74 88 90 97 96 93 90 92 91 88 90 91
88 88 86 88 82 82 83 77 74 69 58 63 81 78 83 86 97 91 86 72 58 56 64 69 72 74 75 74 75 73 72 76 83 84 84 87 89 89 94 94 89 85 78
92 91 95 88 82 82 79 75 74 62 57 82 78 77 70 86 91 92 86 74 70 55 78 86 76 77 78 76 76 78 75 75 74 76 77 83 80 92 96 88 75 90 90
93 93 95 85 84 81 78 77 74 53 53 82 80 80 84 84 83 89 86 73 71 51 53 61 59 62 72 73 72 74 76 76 75 74 73 76 82 94 92 83 73 85 95
91 85 83 80 84 83 80 78 76 71 46 79 83 82 82 83 87 90 83 76 80 77 58 62 66 64 62 65 68 68 68 68 72 73 72 74 84 93 87 75 66 71 88
96 89 87 83 81 81 79 79 79 77 61 43 77 80 80 85 88 89 85 83 85 82 67 57 65 66 62 60 62 67 69 69 73 75 73 74 82 97 92 82 73 75 75
99 99 93 87 83 83 83 80 80 79 76 71 60 52 65 73 77 83 85 85 84 81 74 59 58 66 63 60 56 58 64 70 70 69 70 74 78 96 95 91 81 71 71
98 99 95 89 87 87 88 83 80 80 79 79 78 76 62 54 62 65 70 77 81 81 77 66 55 62 65 63 58 56 59 65 68 66 60 67 74 92 96 96 91 82 79
100 97 89 86 88 89 87 83 81 81 81 80 80 80 76 68 54 51 53 57 57 66 73 70 62 58 66 67 66 58 55 57 60 63 56 56 65 74 94 95 96 91 90
98 90 90 86 88 89 87 85 83 81 80 81 82 81 78 72 68 60 46 45 44 60 63 60 56 56 59 66 71 70 62 58 56 55 53 52 54 61 74 93 94 97 95
93 88 86 83 81 88 89 86 84 82 80 82 82 81 80 79 68 73 61 50 56 56 63 68 68 66 66 65 63 65 68 70 68 57 52 51 50 52 59 73 92 91 94
88 83 82 77 80 82 81 82 81 78 80 80 80 81 78 77 73 72 77 58 59 65 68 70 72 74 74 72 68 67 68 71 73 76 66 56 54 53 52 59 85 91 92
92 84 81 80 78 78 77 76 75 75 78 78 79 80 77 71 72 76 77 77 75 69 69 71 72 72 74 76 75 71 71 72 73 73 75 76 73 64 56 51 53 73 90
82 82 83 82 80 78 76 77 78 78 79 78 80 81 77 72 71 73 74 75 79 82 83 81 76 74 74 74 73 75 75 74 73 73 72 73 74 79 75 59 51 56 72
77 77 79 81 82 83 82 82 83 83 82 81 80 79 79 74 72 74 75 74 76 81 83 81 83 80 75 81 84 82 79 76 75 74 73 72 72 72 78 77 57 51 57
41 53 64 77 80 83 85 87 89 85 81 78 76 76 75 74 75 82 84 83 81 83 78 80 85 84 86 81 92 88 80 71 69 69 70 68 64 67 72 73 64 56 53
34 36 47 62 73 83 86 87 88 87 88 87 87 88 92 94 95 96 95 95 94 93 91 88 88 96 92 87 94 94 84 71 67 67 68 65 62 64 65 64 62 59 54
39 40 42 44 46 48 58 71 78 80 77 76 80 89 95 98 100 100 100 100 100 100 99 100 100 100 100 94 93 94 94 82 76 68 64 64 66 65 62 62 62 63 59
48 47 45 43 42 41 39 37 35 34 35 36 39 44 46 45 45 49 53 60 64 76 93 98 100 99 100 99 96 97 98 96 94 92 75 70 70 73 72 72 72 67 69
56 55 52 49 46 45 44 44 44 44 45 46 47 50 52 51 52 52 53 54 54 58 64 90 100 99 100 100 97 98 100 100 100 100 97 86 78 70 72 77 80 78 76
62 58 55 52 50 50 50 49 50 52 54 56 60 63 66 69 70 67 65 65 66 68 72 84 97 98 99 100 99 100 98 93 94 97 98 95 90 76 73 74 83 83 81

GFSSE_925_rhum_072.txt.gz
RH
74 82 89 82 82 83 87 91 93 96 94 97 96 96 94 96 95 95 97 93 86 91 92 95 96 94 92 92 85 62 72 68 61 53 80 91 96 95 87 69 70 72 88
66 80 87 82 81 85 87 91 88 86 88 92 95 96 95 95 92 92 91 90 90 91 89 94 94 94 94 91 68 62 61 61 62 60 67 60 66 82 83 85 84 78 85
67 77 92 84 83 84 86 85 84 85 83 87 96 96 96 96 96 96 95 87 89 90 93 94 95 96 92 73 66 66 74 72 74 82 78 69 81 97 93 92 95 92 87
70 81 81 85 83 86 82 78 83 88 74 74 86 89 95 96 97 97 96 85 92 92 96 97 96 87 78 74 69 69 75 82 87 88 71 69 73 95 96 97 87 93 87
71 72 86 81 84 83 77 78 84 76 75 72 59 87 89 97 99 98 79 62 88 96 96 95 90 78 75 70 70 69 70 84 86 79 78 82 76 93 94 93 93 87 89
69 69 84 84 83 80 78 84 78 76 73 74 66 80 88 96 99 87 72 54 71 90 88 82 78 75 70 72 72 70 72 85 83 76 76 75 74 93 92 86 92 97 92
66 72 90 85 82 80 82 76 72 68 63 68 69 77 84 94 98 84 74 61 62 76 82 76 79 75 75 74 73 72 76 82 73 73 72 71 81 93 95 80 58 70 87
68 79 86 87 82 84 78 74 69 52 75 86 77 63 73 94 82 86 76 71 49 59 53 53 60 63 65 67 71 71 69 72 71 70 72 72 86 94 90 80 70 81 83
71 74 90 94 90 83 76 73 67 54 84 88 86 80 81 83 78 87 80 79 71 66 71 65 62 66 67 67 68 68 68 68 70 70 69 69 81 95 86 72 74 77 78
77 78 84 85 85 86 87 75 67 49 80 83 83 83 82 79 81 88 81 81 81 64 61 70 70 69 67 67 67 68 68 67 70 76 71 76 78 94 82 72 62 55 58
78 80 78 78 77 80 79 85 77 55 60 80 78 80 81 77 84 88 88 80 82 80 64 63 69 68 63 60 60 62 66 68 69 70 68 72 74 95 88 80 71 66 57
86 81 79 79 78 80 80 84 80 79 64 60 69 76 71 76 78 85 89 81 83 83 77 63 65 67 64 66 63 57 61 64 66 68 67 66 71 88 97 90 80 71 65
86 96 79 80 82 82 80 80 77 77 74 73 72 74 68 69 74 75 76 82 84 84 83 81 81 72 73 71 65 56 59 62 59 61 62 58 63 74 96 95 92 82 73
87 95 89 83 85 82 82 80 77 77 78 75 78 78 75 71 71 63 62 66 70 66 74 78 68 66 70 72 67 63 59 57 56 56 57 54 53 62 89 94 98 95 87
80 92 88 85 84 85 85 80 80 78 80 77 82 81 78 76 70 69 63 60 60 62 69 70 69 64 63 63 65 67 63 60 58 56 56 55 50 53 61 83 92 96 99
81 78 82 86 83 83 84 83 80 78 78 82 82 84 85 80 77 74 72 60 61 65 70 72 72 72 71 70 69 68 67 67 67 66 64 59 56 51 52 55 81 90 88
85 80 78 81 81 80 83 85 80 81 81 81 83 84 86 85 84 78 76 73 63 69 71 72 74 76 76 76 75 71 70 70 70 71 72 69 66 66 61 56 53 85 90
85 83 80 84 84 81 79 82 80 79 79 80 81 83 86 84 84 83 80 79 78 74 76 75 74 74 74 73 72 70 71 72 73 73 73 74 73 71 70 72 65 54 80
82 86 87 86 81 81 80 79 80 83 80 78 81 82 83 86 85 84 79 78 78 81 80 80 78 77 74 72 72 73 72 73 74 74 74 74 75 76 74 73 76 69 55
71 81 86 90 84 80 81 83 83 88 84 80 79 80 83 84 85 85 84 82 80 80 81 80 82 78 79 77 75 75 74 74 76 76 70 70 68 74 76 79 80 79 72
38 60 73 81 83 83 84 84 88 85 84 92 89 86 85 84 83 85 85 86 90 90 83 83 83 83 82 81 85 78 75 76 73 67 67 66 67 71 72 75 77 75 72
30 39 52 67 82 85 85 85 86 88 87 86 95 97 98 98 99 99 99 98 96 96 95 94 93 92 90 89 88 89 77 52 53 66 66 66 63 64 66 68 70 70 73
36 41 45 53 60 67 79 83 90 90 89 84 93 99 95 98 100 99 98 100 100 100 99 98 99 100 100 96 94 89 77 58 62 60 63 61 62 65 65 70 72 73 75
44 57 52 53 52 47 46 50 52 53 50 50 54 55 56 55 54 58 64 70 80 93 98 99 100 98 100 99 100 96 95 92 84 80 73 67 69 70 72 71 74 76 78
58 62 60 58 56 46 48 50 48 47 49 50 53 59 60 54 52 51 52 54 62 67 87 90 95 100 98 100 100 98 99 98 100 99 95 81 80 70 66 69 75 78 81
64 64 66 61 61 57 55 52 58 59 58 59 66 67 73 79 73 65 64 64 65 67 78 83 96 99 98 100 100 100 100 94 91 92 96 90 83 82 72 78 76 81 85

GFSSE_925_rhum_075.txt.gz
RH
62 88 79 82 81 82 87 86 88 89 88 92 97 96 95 95 96 96 95 93 90 93 95 95 94 94 92 89 85 87 72 50 46 71 72 69 78 88 81 71 67 77 85
60 83 80 80 80 83 88 89 88 88 87 90 92 95 92 92 92 91 88 90 87 92 96 95 94 94 94 92 92 87 67 64 63 69 72 75 82 92 90 88 83 81 83
59 77 92 80 82 85 88 86 85 85 90 93 96 96 96 95 96 92 85 88 89 92 92 95 95 96 94 91 80 77 74 75 74 69 66 70 92 98 99 95 92 90 77
59 77 80 83 83 86 84 79 82 73 72 87 96 97 95 96 96 93 85 90 91 95 96 97 96 93 83 72 72 74 80 81 75 71 69 63 78 96 96 97 95 96 94
63 69 82 86 85 84 75 78 85 75 74 63 80 84 94 98 98 95 86 95 96 97 97 97 90 76 70 72 72 68 78 79 72 66 69 69 71 91 92 91 96 98 96
60 64 80 84 85 77 74 88 82 78 74 62 64 75 94 97 95 70 48 58 76 86 95 94 81 72 75 76 72 70 80 72 66 64 63 70 82 93 89 87 90 94 96
52 79 92 85 82 76 82 80 77 73 72 63 60 80 95 98 88 74 54 48 54 62 67 71 66 63 64 65 65 70 75 70 63 63 64 73 89 91 79 41 35 51 82
55 74 90 87 83 82 82 74 67 56 75 81 59 80 96 96 87 80 69 51 70 75 74 73 68 67 66 69 68 63 61 69 60 63 66 80 83 94 85 51 35 33 34
68 78 82 92 89 83 76 71 57 74 88 83 69 69 91 82 76 84 73 69 52 62 62 60 65 66 67 64 66 66 64 64 65 64 59 73 72 93 76 64 55 38 31
67 70 82 85 84 85 84 72 50 84 90 90 86 85 92 78 80 85 74 78 73 54 60 64 61 57 59 62 63 62 62 64 66 66 63 71 66 82 74 70 62 58 36
73 79 80 80 73 73 74 80 58 77 84 82 82 82 77 74 84 82 90 77 80 76 59 64 65 61 58 57 53 53 55 62 59 61 61 70 64 88 86 79 72 63 56
77 80 82 78 71 75 68 81 73 58 76 71 69 73 65 64 68 74 84 75 77 77 74 60 53 57 56 61 59 56 58 53 55 58 60 65 59 70 97 91 81 74 66
75 74 80 78 74 76 66 72 64 66 54 52 56 59 54 58 68 70 72 82 84 79 84 79 79 76 62 63 58 52 51 53 52 53 54 57 53 60 91 97 93 84 78
74 79 75 77 80 78 73 68 58 59 62 60 64 63 61 58 59 53 53 55 62 59 61 67 60 57 59 60 57 56 52 52 50 50 51 53 51 51 59 95 95 93 87
75 85 75 70 70 77 77 65 58 58 64 62 66 66 63 62 58 58 53 50 50 50 55 58 61 56 55 53 54 56 56 54 53 53 54 54 55 50 50 57 92 92 97
71 73 74 73 74 72 72 72 68 59 60 63 66 71 70 66 66 62 62 55 51 54 58 62 62 63 63 62 61 60 60 60 61 61 62 62 61 61 54 54 56 90 90
74 70 72 72 70 76 74 75 62 60 61 65 68 70 73 74 74 69 66 65 57 60 62 61 64 66 66 66 66 65 63 62 62 63 65 67 67 67 67 67 62 61 85
71 66 69 67 69 64 66 74 68 62 64 66 66 68 72 72 75 75 73 72 71 67 68 69 68 68 67 66 65 64 63 64 67 66 67 67 70 71 70 71 71 70 64
69 69 73 73 71 68 68 68 65 65 66 64 66 68 71 74 75 75 71 70 70 72 73 72 71 70 69 68 66 66 68 69 67 67 67 68 70 72 74 74 74 74 75
64 69 75 80 75 71 70 69 70 72 73 68 66 67 70 71 74 77 76 74 72 71 74 73 73 73 74 72 73 72 71 71 69 69 70 66 61 64 70 72 76 78 76
46 66 73 77 82 77 75 74 74 73 75 77 76 77 75 77 78 79 80 77 77 80 78 76 75 77 78 78 80 79 77 73 68 67 65 60 59 64 68 69 72 73 71
26 46 58 67 73 77 76 79 77 76 74 72 78 86 86 86 87 89 88 88 86 87 85 86 86 86 85 83 89 87 81 60 51 55 60 60 60 59 64 65 66 67 69
29 32 42 52 68 76 80 83 86 85 87 86 90 91 92 88 95 97 98 97 95 95 95 93 96 96 96 92 90 86 80 68 56 55 62 58 58 60 64 69 70 71 74
32 42 43 47 52 57 64 70 74 72 68 62 63 69 67 66 68 68 74 79 84 88 93 92 96 92 96 94 90 88 91 80 87 73 59 66 64 66 66 65 65 72 74
42 56 50 49 50 52 51 47 46 44 43 47 50 54 57 62 53 51 53 58 70 74 81 85 86 89 91 90 90 88 95 90 88 99 95 79 73 74 71 64 67 74 80
54 60 56 53 52 55 54 52 51 50 51 53 58 58 62 69 77 68 63 66 69 78 83 88 92 90 97 94 89 91 86 88 99 98 98 86 85 77 70 74 78 79 80

GFSSE_925_rhum_078.txt.gz
RH
92 73 81 80 78 81 85 86 85 87 90 91 98 93 97 96 95 95 92 89 88 88 95 94 94 92 88 86 85 64 42 50 56 55 65 80 90 94 79 70 65 84 89
87 76 76 80 84 87 89 87 85 85 87 88 94 91 93 92 90 90 92 91 92 88 92 92 94 93 91 94 86 66 64 67 71 78 82 85 97 97 91 77 79 79 81
87 83 74 81 82 86 88 82 83 84 81 87 96 95 95 91 86 87 88 89 95 89 91 94 95 94 92 86 74 73 73 76 75 74 84 80 85 95 95 93 97 97 95
85 80 80 83 84 86 83 77 68 70 79 78 93 96 96 95 87 88 89 90 92 93 95 96 93 88 80 73 77 80 74 71 66 65 72 74 83 94 97 98 100 99 96
82 85 87 85 86 85 76 77 69 72 68 66 83 96 96 97 88 86 93 94 99 97 94 95 81 90 84 66 75 79 75 70 65 65 66 71 72 88 92 88 89 97 98
71 80 80 84 86 79 77 80 77 77 62 59 75 92 95 87 69 63 74 77 81 92 86 68 61 65 64 65 70 73 71 66 65 66 71 61 73 84 80 72 66 79 97
79 78 82 86 84 76 88 82 79 77 70 56 69 92 97 84 73 49 58 68 70 70 70 65 65 67 66 64 70 71 65 64 64 66 70 56 74 88 77 67 66 70 74
82 90 84 86 80 82 88 80 75 67 69 57 68 90 94 86 81 61 52 58 59 60 63 63 64 65 66 64 58 55 62 65 66 64 69 67 66 79 60 50 51 60 59
82 89 91 85 79 86 79 72 57 73 91 62 70 85 87 77 79 70 64 49 58 55 51 55 58 60 60 60 58 56 53 65 66 61 75 69 59 76 67 59 52 46 45
76 85 91 89 85 81 75 67 70 85 83 81 76 92 87 79 79 78 70 66 47 50 53 52 52 52 53 54 53 53 52 64 66 64 66 66 56 66 72 72 65 58 45
78 76 84 83 85 81 79 55 77 87 88 84 84 89 77 74 82 77 90 71 70 58 46 48 51 51 50 56 51 44 50 60 61 61 63 65 58 61 75 76 76 69 61
76 79 83 76 72 71 78 66 56 81 83 81 80 74 75 77 83 88 80 72 70 70 66 53 42 42 56 63 59 54 52 55 54 56 60 58 55 53 80 90 80 76 71
69 78 79 74 70 67 71 74 65 51 67 73 71 61 65 64 70 76 69 63 63 73 68 76 70 63 65 65 60 56 51 50 53 52 54 55 54 48 54 94 92 84 81
71 75 77 75 73 71 70 69 67 63 54 54 57 59 56 55 58 58 62 63 67 68 63 72 68 66 60 59 59 57 55 53 52 50 51 52 52 50 47 55 93 93 90
75 77 76 75 77 72 68 65 60 60 61 62 64 64 62 60 60 56 52 52 53 52 53 60 62 59 56 55 53 54 57 56 55 54 54 55 57 57 54 50 58 91 95
76 71 77 77 78 76 72 65 60 58 60 62 66 68 66 64 62 60 60 55 50 52 55 61 63 63 64 63 63 62 61 61 61 61 62 62 64 65 64 62 57 72 93
74 74 69 76 75 75 76 71 59 61 59 62 67 71 71 70 71 65 65 62 53 55 59 60 63 64 65 66 67 67 66 64 63 63 64 65 67 69 69 68 68 67 81
75 77 72 70 75 80 76 74 68 62 60 64 67 69 72 72 76 76 72 71 70 64 65 68 68 68 68 68 67 66 65 62 64 67 68 67 68 70 72 74 73 73 73
71 69 71 73 73 66 74 74 67 64 61 62 66 67 69 73 73 75 74 72 72 73 73 72 72 72 71 66 65 66 66 67 68 69 68 68 69 69 68 69 78 76 77
68 68 70 69 70 66 69 73 72 68 66 63 65 64 66 71 74 75 77 75 72 71 72 74 74 73 72 71 72 75 73 73 73 73 71 70 70 63 60 71 72 75 79
56 68 73 77 76 72 68 66 66 66 69 71 72 71 69 71 74 78 79 77 75 76 76 79 78 78 78 77 81 81 75 75 73 72 69 66 63 58 65 67 68 70 71
30 60 74 76 78 75 76 76 74 74 75 76 77 79 80 78 78 80 82 83 81 77 76 81 84 84 82 81 84 86 90 72 61 57 63 61 59 60 59 65 65 69 71
27 34 56 65 75 77 79 79 81 83 85 83 86 88 87 88 90 92 92 90 90 91 88 84 85 94 98 91 87 86 92 90 77 60 60 61 60 61 63 65 70 71 72
29 31 36 49 65 78 81 84 83 83 79 77 81 89 89 78 74 72 74 82 84 86 87 88 90 91 95 97 92 84 89 87 92 90 65 65 63 63 68 67 70 73 74
32 32 38 44 50 57 62 74 73 72 50 54 56 55 50 53 50 47 48 51 57 65 69 74 78 87 90 89 86 80 77 82 85 96 94 83 73 77 72 71 72 73 76
40 44 42 47 50 49 50 48 47 45 44 44 48 54 60 66 67 62 60 63 66 71 71 74 81 85 80 85 88 86 85 87 92 95 99 93 88 80 77 78 76 74 78

GFSSE_925_rhum_081.txt.gz
RH
90 86 78 82 83 82 88 88 90 90 90 95 95 95 95 97 96 96 92 93 89 94 93 93 92 86 85 66 56 61 74 80 86 87 89 94 92 95 86 69 70 83 94
90 80 75 77 77 88 90 84 86 83 86 84 96 91 92 92 95 94 90 91 88 90 89 93 92 92 82 66 69 70 71 78 87 90 82 82 90 95 97 94 92 90 81
81 82 80 77 87 89 84 82 84 82 80 83 90 83 88 86 90 91 93 86 84 87 90 93 92 92 71 70 75 78 79 80 83 85 87 69 92 96 96 94 90 96 94
78 84 84 85 87 88 79 80 81 79 79 88 85 96 89 86 87 88 94 88 89 91 96 95 85 68 76 76 79 75 72 73 75 76 77 59 77 96 94 87 97 99 98
77 83 85 86 88 83 76 65 72 75 77 91 86 92 92 86 91 90 96 92 91 98 94 91 82 60 75 79 75 72 70 68 68 67 64 43 66 85 90 91 91 97 94
82 78 85 87 86 78 75 72 70 67 69 87 95 88 74 84 94 94 96 98 96 92 88 80 73 65 64 75 74 69 67 71 68 68 50 52 68 79 76 70 76 94 99
89 84 88 87 82 80 78 78 76 58 63 83 94 89 80 52 42 58 67 72 72 73 72 68 66 62 65 70 69 66 65 66 68 67 67 51 72 85 78 70 69 73 82
87 84 89 86 79 90 82 82 76 67 61 79 92 92 83 67 42 46 52 58 63 59 57 60 60 59 54 51 51 57 66 67 68 69 72 56 62 81 73 60 68 68 67
82 86 91 84 82 90 84 78 70 72 58 76 90 91 83 79 63 45 56 52 48 50 50 52 53 52 52 51 49 48 66 68 65 69 69 64 56 68 66 59 59 60 40
85 84 87 83 86 81 74 58 72 88 66 78 92 96 80 76 79 66 53 46 50 46 45 44 45 46 47 47 46 46 60 68 66 72 68 67 59 58 66 69 65 58 52
87 87 83 84 85 76 70 60 79 82 69 72 88 89 78 75 77 68 67 63 49 40 41 42 44 44 44 55 51 44 59 60 61 66 65 66 62 53 65 72 73 68 62
93 89 78 78 81 77 65 57 80 83 76 71 87 82 76 79 78 73 74 64 63 60 53 43 36 38 59 62 59 53 53 54 55 56 57 57 57 50 54 76 78 78 75
80 81 79 74 79 77 69 52 72 80 78 76 64 74 83 84 83 80 70 63 59 61 57 71 65 61 65 65 62 57 55 52 50 54 55 55 55 54 48 59 86 84 83
69 70 81 73 70 71 70 70 51 56 65 72 68 62 73 81 68 63 64 65 65 68 67 73 69 68 63 60 58 58 58 56 55 51 51 51 53 54 56 50 69 96 94
69 71 74 71 68 68 69 70 67 60 55 60 65 62 59 58 57 59 61 63 58 56 60 65 68 62 59 57 55 55 56 58 58 57 55 54 57 60 61 62 55 87 96
72 75 76 74 68 67 62 66 72 66 61 59 62 64 64 62 61 58 54 53 52 52 51 58 62 64 64 64 63 64 63 63 63 63 62 63 64 66 68 68 67 66 89
74 72 70 74 73 72 62 58 66 61 60 64 65 67 66 66 65 62 62 63 54 51 56 60 64 64 65 66 66 66 67 67 66 65 65 66 68 68 69 71 73 72 73
65 71 79 76 79 75 69 62 58 59 61 63 68 70 71 68 70 71 66 68 66 60 61 65 66 67 69 70 70 69 68 67 65 67 69 70 69 68 66 72 75 75 76
67 70 66 74 68 73 74 69 60 66 66 63 66 65 67 72 73 75 76 74 74 74 71 72 72 73 74 72 68 67 68 68 69 70 70 71 71 68 70 64 78 83 78
70 68 67 72 74 71 69 71 66 68 67 62 63 62 65 66 70 74 76 75 74 73 74 75 76 76 76 74 74 71 74 73 73 68 69 73 73 66 62 66 72 70 76
77 73 69 70 71 74 72 70 72 72 68 66 71 71 71 74 76 77 80 79 76 76 78 77 79 80 71 75 85 78 74 68 67 62 59 68 75 65 66 66 64 67 70
54 74 69 70 70 69 70 70 68 66 67 64 68 74 76 76 78 79 81 76 77 78 73 73 74 79 74 71 78 77 90 73 63 63 59 62 70 63 60 61 63 67 68
30 60 72 67 66 66 67 69 73 73 74 73 74 74 79 79 77 78 83 86 83 82 77 77 77 83 87 75 72 84 92 90 86 62 63 64 63 62 63 65 68 66 68
27 29 54 64 68 73 73 72 68 66 73 81 86 85 86 84 87 87 89 93 93 90 90 88 89 87 90 92 91 90 90 94 96 88 69 70 68 69 72 73 74 74 75
28 30 39 56 70 82 81 82 83 85 81 77 83 87 86 77 54 46 46 47 51 57 64 67 72 80 85 89 90 89 84 73 76 95 93 83 77 81 77 73 76 78 78
32 32 34 40 50 62 77 79 82 76 65 64 64 59 52 53 57 58 55 55 59 62 65 66 70 74 79 82 88 82 86 87 87 96 99 92 87 90 82 83 81 80 80

GFSSE_925_rhum_084.txt.gz
RH
88 88 84 85 86 85 88 90 95 92 86 94 95 98 98 92 91 93 96 90 91 91 94 87 83 84 78 84 90 84 89 93 85 85 86 84 94 98 95 82 72 89 94
93 85 84 85 83 91 91 91 81 92 91 91 95 95 98 98 97 95 88 88 88 90 92 89 90 93 94 92 75 80 89 89 85 76 90 90 88 97 93 88 92 84 82
94 84 85 82 86 90 92 91 81 73 86 88 91 90 94 96 93 85 86 88 86 90 92 94 96 95 82 78 79 84 86 84 87 78 64 95 99 96 89 84 88 99 95
88 88 87 82 90 89 92 93 80 80 84 85 89 87 90 91 94 92 88 86 86 93 95 84 79 76 78 78 77 82 82 75 74 73 53 56 85 94 91 89 87 95 90
90 88 82 88 88 90 95 90 79 89 82 89 88 88 89 88 89 87 89 87 95 95 84 63 76 77 78 76 74 71 73 71 70 48 41 49 67 83 89 92 96 97 93
92 88 87 89 88 87 76 90 80 91 91 91 82 87 92 90 93 96 90 92 92 90 93 57 72 77 76 73 70 70 71 70 67 51 46 59 72 78 80 82 89 96 92
92 89 87 89 86 72 74 71 79 93 90 92 85 88 94 95 95 99 95 74 64 64 62 59 59 72 72 72 68 69 70 70 68 69 52 53 73 86 81 79 80 82 85
90 90 90 87 82 78 80 73 65 88 93 96 86 72 82 95 92 90 71 65 62 65 55 53 53 62 66 67 65 66 69 68 68 71 66 53 63 74 69 67 66 67 70
88 92 91 83 87 81 82 77 66 72 89 97 87 80 60 41 44 48 52 56 66 62 59 55 53 50 47 46 49 65 68 70 68 73 69 66 57 62 63 61 57 54 42
87 91 90 85 99 84 80 72 67 60 80 91 95 82 76 61 43 48 48 48 49 52 51 53 51 49 47 46 45 49 66 70 72 72 72 69 64 56 60 65 64 60 53
98 89 84 88 90 79 66 65 78 61 79 98 99 81 75 75 65 52 45 45 47 47 47 47 45 44 44 47 46 43 63 61 62 66 68 67 62 55 56 68 71 69 63
100 96 84 85 82 73 62 73 80 67 75 88 91 82 78 75 70 66 64 61 56 49 43 43 43 46 55 59 56 52 54 54 55 57 61 61 59 58 55 62 74 78 76
94 90 86 84 78 72 56 79 83 72 62 80 89 80 79 81 79 79 70 64 62 61 57 66 61 50 64 62 59 56 55 54 53 54 54 56 57 56 55 54 78 84 85
99 81 86 78 78 75 57 63 81 81 74 75 81 81 83 83 84 80 73 66 63 67 66 73 70 70 65 62 59 59 59 58 57 56 52 52 54 56 58 60 60 90 91
85 92 82 77 73 74 68 57 59 69 63 64 70 71 78 78 76 68 64 69 64 63 63 64 69 67 62 60 59 58 57 58 60 60 60 58 57 60 64 66 66 70 92
63 70 86 80 72 65 67 69 61 59 60 62 64 69 66 67 64 63 59 58 59 57 55 55 61 66 66 66 66 65 65 65 65 65 65 64 64 63 66 69 70 73 72
91 71 82 76 72 68 63 63 72 72 60 58 62 66 64 64 61 62 58 56 56 53 54 56 63 66 67 68 67 67 68 68 68 68 67 67 68 69 68 72 75 76 76
73 79 73 78 78 71 68 63 67 70 66 61 63 66 67 67 67 65 63 63 65 58 56 61 64 65 67 70 71 70 67 65 64 67 63 71 73 67 64 70 74 80 80
65 61 76 76 66 79 75 66 63 63 66 66 66 67 69 71 69 70 70 66 70 73 68 65 70 73 74 72 66 69 67 64 66 71 74 72 70 71 67 72 73 81 80
76 63 65 60 47 55 81 77 69 70 68 65 65 66 66 66 71 70 71 72 75 76 76 77 77 77 78 80 72 68 65 64 71 68 68 60 66 77 74 61 67 72 69
75 71 70 75 72 82 81 70 72 68 72 68 68 70 68 65 70 72 75 76 75 68 69 69 78 75 73 76 73 63 65 66 64 64 62 63 65 79 71 67 65 64 62
65 66 66 73 73 78 68 67 67 66 71 65 66 68 70 70 74 76 77 82 81 76 70 76 75 70 69 69 68 74 91 74 65 64 67 67 68 74 69 66 63 62 62
51 68 63 62 67 70 73 71 68 70 70 66 69 72 70 82 82 82 83 84 80 80 79 76 77 76 82 81 79 82 92 95 90 66 65 68 68 69 69 70 68 69 72
30 52 66 64 69 69 70 71 72 70 71 67 65 72 72 84 88 86 87 86 83 84 87 89 89 89 93 91 87 85 92 98 89 87 73 75 72 71 74 73 77 79 76
28 30 57 62 64 67 71 73 70 62 66 59 71 80 88 88 86 80 80 76 69 63 57 56 62 70 80 83 85 85 83 81 81 88 87 82 89 82 79 81 82 81 80
31 29 38 61 66 67 64 68 68 70 68 74 87 90 86 82 70 50 42 42 43 47 53 58 61 66 72 78 83 92 91 87 90 95 99 93 91 92 84 84 85 85 86

GFSSE_925_rhum_087.txt.gz
RH
89 89 87 82 95 95 94 96 94 94 92 98 99 96 96 96 96 96 94 84 94 93 84 83 80 87 90 95 97 98 92 82 84 82 86 90 94 96 94 72 75 82 88
88 87 86 82 91 95 94 95 92 82 86 98 98 94 96 96 96 98 88 91 91 90 87 90 88 91 95 97 98 96 95 74 77 85 87 97 96 95 96 85 93 93 88
91 89 86 83 87 91 93 88 89 92 81 96 99 98 96 97 97 88 89 90 91 90 91 93 94 96 96 96 96 87 82 82 73 65 85 90 93 97 92 83 80 88 98
92 90 84 83 92 91 95 96 90 97 90 94 97 99 97 89 82 86 89 88 92 94 96 96 95 93 87 88 87 76 73 72 62 44 52 61 81 95 84 80 81 88 85
91 87 86 87 90 89 93 90 83 90 92 90 93 94 96 96 94 86 82 91 96 90 82 74 79 79 78 80 73 74 72 68 44 40 42 52 66 80 88 95 93 86 89
89 89 85 91 87 85 86 81 87 93 95 90 92 92 91 89 85 86 94 96 87 64 74 75 77 77 78 73 72 74 70 67 59 47 49 60 70 82 80 81 88 95 94
90 85 91 89 86 82 84 80 89 86 95 93 92 93 92 91 88 96 97 96 85 65 68 77 77 76 75 72 70 70 70 68 68 60 52 59 75 85 82 79 79 80 90
95 90 92 89 76 82 82 82 89 90 91 93 92 94 94 98 95 96 96 73 65 57 60 68 74 74 74 70 71 70 68 67 69 69 64 58 65 74 64 61 57 62 74
93 90 90 88 78 85 76 81 86 89 95 83 78 92 93 93 98 96 91 69 71 57 56 58 66 69 67 62 64 70 69 68 69 71 70 68 66 62 58 59 54 52 47
90 92 91 88 84 86 81 67 74 85 100 90 80 58 54 64 81 78 72 83 61 53 54 53 52 51 51 51 53 65 70 72 72 71 72 70 70 61 58 63 63 60 55
98 92 86 84 88 86 82 76 61 77 92 98 87 78 62 53 56 56 54 55 57 55 52 50 50 47 46 45 45 50 66 64 63 65 69 70 69 68 60 61 67 70 68
100 99 87 88 94 85 74 76 67 75 91 97 88 78 74 69 58 52 50 50 50 51 53 52 51 50 52 57 54 54 57 55 54 57 60 64 64 71 69 59 64 73 76
100 100 90 91 87 75 65 81 78 71 89 99 95 81 78 78 73 71 68 66 64 61 56 53 49 44 61 63 61 58 56 55 55 54 54 56 59 59 61 64 67 71 79
79 96 100 97 80 72 62 76 83 70 77 86 91 83 80 81 78 83 79 68 64 63 64 71 70 69 65 64 61 59 59 59 60 58 58 55 55 57 61 65 67 72 78
72 68 90 90 97 71 60 69 84 76 66 78 90 83 82 82 82 81 78 71 67 69 67 71 72 70 66 63 62 60 59 59 61 62 63 63 62 59 60 65 70 73 79
61 52 79 74 89 88 66 56 70 79 71 73 71 76 77 77 77 72 70 68 69 62 59 58 62 66 68 68 68 68 68 68 68 68 68 67 66 65 64 65 69 74 78
59 61 69 65 78 92 73 66 57 55 62 69 68 70 69 67 70 67 66 62 58 59 57 55 60 67 69 70 69 69 70 70 69 66 66 63 64 70 67 74 74 75 79
59 61 50 64 70 84 89 84 68 64 59 62 65 67 68 66 67 64 65 62 62 60 55 58 61 66 68 69 72 71 69 63 64 61 62 66 73 74 71 64 66 76 77
68 63 75 66 67 68 68 85 81 83 76 66 62 63 67 68 68 67 67 66 66 68 63 62 66 71 75 76 76 65 66 63 64 64 67 72 74 70 75 73 70 72 78
75 76 80 90 78 77 80 84 72 89 87 74 64 64 68 70 71 70 68 70 68 74 77 77 75 76 75 77 73 71 67 63 62 62 66 67 70 68 72 77 66 74 69
80 70 77 79 82 80 82 86 64 84 91 84 71 66 68 70 70 69 70 73 75 75 66 68 64 75 73 68 78 64 61 61 63 63 68 65 62 66 75 80 73 69 64
77 65 64 63 64 67 79 66 78 76 86 76 76 74 66 74 75 72 72 77 80 79 75 69 69 72 71 66 70 76 92 78 68 71 69 67 67 77 81 78 72 69 69
71 70 59 63 67 69 80 79 90 81 88 79 72 71 73 72 72 78 75 78 84 84 72 75 78 82 88 83 80 83 92 96 90 68 69 69 68 79 76 73 74 74 73
35 51 66 66 68 72 69 74 82 80 82 79 76 73 71 70 66 65 69 82 86 86 84 83 86 90 91 94 94 86 90 100 95 86 75 78 76 75 76 76 79 80 78
32 31 44 70 63 66 70 62 64 78 68 66 68 72 81 92 98 97 92 92 92 90 88 82 65 60 69 79 85 88 83 82 88 94 80 82 89 86 87 85 85 84 83
34 32 31 46 70 62 58 61 59 59 58 79 77 76 76 74 84 84 80 66 50 44 45 49 54 60 66 74 78 86 96 88 88 95 99 94 93 94 92 90 89 86 85

GFSSE_925_rhum_090.txt.gz
RH
89 89 92 94 99 96 97 94 95 96 93 95 93 96 99 95 96 97 88 92 93 85 82 88 90 88 93 96 96 95 99 96 94 91 94 91 96 89 84 88 89 76 80
90 92 90 89 95 96 97 95 89 90 96 92 91 96 96 97 97 97 85 94 89 87 82 86 87 95 97 96 96 94 77 76 82 87 93 98 90 93 84 96 95 99 97
91 89 89 81 90 94 96 92 86 84 98 92 91 94 96 98 97 89 92 93 90 89 90 89 93 95 96 97 83 81 78 66 64 78 81 86 96 98 87 75 85 98 91
90 91 86 81 91 93 93 91 94 86 96 93 90 96 93 96 95 88 92 93 91 93 94 96 99 95 90 83 78 87 68 44 41 43 47 50 61 84 91 87 80 82 80
94 90 85 83 92 92 92 91 96 90 96 96 91 92 93 84 88 90 94 94 96 98 100 99 95 89 78 76 79 72 57 46 44 43 46 53 62 80 87 91 92 91 81
91 89 82 90 89 88 85 87 95 93 95 96 93 93 90 91 89 89 97 96 97 99 100 98 92 79 76 82 76 72 66 58 48 50 55 66 74 82 78 76 82 94 90
90 87 90 90 86 84 77 76 91 95 92 95 96 96 93 90 92 98 97 94 94 97 96 84 82 80 77 73 73 71 69 69 61 57 56 60 78 85 81 78 76 78 90
97 89 95 88 82 84 72 88 80 85 94 94 93 91 87 88 98 92 96 98 96 83 80 81 82 81 74 71 71 71 71 69 69 67 66 63 74 86 72 58 58 62 70
94 94 94 88 76 78 72 89 90 88 79 88 90 90 91 89 98 97 99 98 98 84 81 82 79 77 74 68 70 71 70 69 70 71 70 69 74 83 63 61 57 53 52
91 91 91 81 80 78 78 80 90 98 85 71 81 89 92 98 98 99 94 95 87 66 66 67 69 64 58 56 60 69 71 71 70 72 71 70 70 74 62 64 66 65 61
88 90 86 80 82 80 69 66 80 96 88 79 69 58 74 83 88 87 72 69 61 59 57 56 55 54 52 50 49 54 67 65 61 62 68 68 67 84 69 62 66 69 70
97 98 82 81 81 85 81 70 70 87 99 88 86 72 52 55 57 58 59 58 56 54 52 51 49 47 50 55 55 54 61 56 54 54 59 64 64 79 83 69 66 67 72
100 100 100 100 91 83 76 70 65 81 96 93 89 78 72 63 57 56 55 55 54 52 50 47 45 44 56 62 61 59 56 57 58 57 54 55 58 60 81 75 74 71 72
100 99 99 99 99 93 79 66 69 74 95 96 95 83 77 75 69 70 70 68 68 66 64 64 64 62 63 65 63 61 60 60 61 61 61 60 58 59 62 74 75 76 76
100 84 64 80 88 96 93 83 81 67 80 96 98 90 79 76 72 79 81 74 69 67 69 71 76 74 71 67 65 63 62 63 64 65 66 65 65 64 62 62 70 76 78
82 53 37 47 56 80 95 87 88 79 67 80 87 92 80 82 82 81 76 71 69 67 67 67 67 70 71 70 69 70 70 69 70 70 69 69 69 68 68 66 66 71 76
76 44 35 39 43 71 90 80 94 95 78 67 81 88 82 80 79 78 74 70 64 66 64 61 58 64 69 70 70 70 72 71 69 67 61 62 56 61 72 76 72 73 73
48 43 38 62 47 50 70 80 76 93 96 78 68 69 70 71 70 72 73 68 62 61 60 56 58 64 68 70 72 73 71 69 60 59 61 61 60 74 77 74 72 69 74
52 48 50 69 73 72 77 63 73 75 76 81 76 73 72 70 72 69 69 66 64 66 65 58 62 68 74 77 78 76 64 62 60 62 59 62 67 70 73 72 74 70 74
62 67 64 63 66 61 57 57 76 62 85 89 78 70 68 67 70 70 69 68 69 69 70 75 73 72 71 65 69 69 67 63 62 61 64 66 65 64 71 72 78 73 78
67 65 63 64 73 91 78 70 74 72 90 81 72 85 76 65 69 72 72 73 73 71 76 78 71 71 66 70 74 68 67 65 64 66 71 70 65 62 68 80 83 79 74
81 74 78 62 69 82 67 72 84 96 80 68 58 70 86 78 76 79 76 74 77 77 79 70 69 71 75 75 76 81 87 75 72 72 71 68 67 72 82 90 87 79 72
99 90 83 71 71 74 72 88 79 65 72 74 78 65 82 87 80 75 79 82 75 72 82 78 72 74 84 88 88 84 84 95 91 77 76 72 72 77 84 85 81 79 74
60 86 77 80 68 65 68 80 69 76 79 72 82 80 93 79 77 80 78 74 78 73 80 92 86 86 91 96 93 92 93 97 91 90 80 82 79 78 78 80 82 82 80
37 35 44 72 65 63 62 63 71 88 86 89 94 98 100 100 96 72 77 76 82 83 90 95 88 71 64 69 79 87 86 84 88 91 91 85 88 86 86 85 85 84 84
39 38 35 33 46 62 59 60 66 58 59 72 81 90 98 99 96 93 75 75 85 82 60 51 51 56 62 67 74 82 90 89 88 92 97 94 96 97 93 92 90 89 88

GFSSE_925_rhum_093.txt.gz
RH
91 97 91 90 95 94 81 93 94 90 92 87 96 98 93 84 93 95 88 94 90 87 93 92 86 92 90 94 96 94 96 95 91 90 89 81 89 96 96 92 90 81 85
96 99 92 90 96 95 92 95 94 92 90 82 90 95 98 95 97 98 94 90 85 86 86 86 90 90 90 93 92 92 95 86 90 91 86 90 90 92 89 96 90 92 90
98 99 97 89 90 88 85 84 93 94 91 84 87 88 94 97 97 90 93 90 86 87 87 90 90 94 95 81 79 76 58 72 75 84 86 94 92 87 85 82 86 82 91
99 99 95 86 90 82 84 78 86 94 89 87 89 90 93 98 91 88 90 89 90 89 88 93 92 93 94 91 91 69 42 44 46 41 50 72 81 91 89 87 84 80 82
99 99 97 88 90 90 79 88 81 92 93 87 85 86 90 94 95 92 90 91 91 92 92 92 89 82 81 77 68 47 46 46 46 46 51 60 72 80 86 92 91 85 82
99 98 88 89 86 85 85 92 83 88 92 91 88 90 87 84 92 90 96 95 96 96 95 91 81 76 88 78 68 63 54 51 52 58 69 77 80 84 82 78 88 92 84
96 91 92 92 86 83 76 79 78 86 94 90 88 87 87 90 94 97 98 97 98 98 96 88 82 77 78 78 70 68 67 62 60 57 61 85 84 86 82 76 75 72 73
98 88 94 87 84 72 63 82 64 86 96 94 91 90 89 88 94 97 99 99 100 100 91 99 91 80 76 72 72 71 68 69 68 68 66 85 84 89 80 65 64 61 55
97 88 94 93 89 72 77 91 78 63 86 87 84 82 84 88 91 98 97 96 98 97 91 89 84 77 71 70 71 70 70 71 72 70 69 74 82 87 72 65 61 57 53
96 92 90 87 87 78 94 83 90 77 65 88 90 84 85 95 96 97 96 96 99 91 84 81 79 74 65 58 64 69 70 70 68 71 70 68 73 79 65 64 67 67 64
100 95 84 75 78 76 73 95 97 89 68 74 87 89 93 97 99 96 86 83 66 65 67 66 63 58 55 54 52 55 67 63 58 61 66 66 66 84 73 67 64 68 69
100 100 84 75 72 66 70 84 99 95 84 75 62 77 81 81 79 70 66 62 59 58 58 58 56 53 50 53 56 54 62 56 54 53 58 61 64 76 90 74 71 70 72
100 98 99 88 85 79 64 63 84 92 87 83 80 57 60 64 63 60 58 57 53 52 52 52 51 50 52 60 62 60 57 58 60 58 56 55 58 62 88 83 74 73 77
100 100 98 90 95 92 84 73 66 88 100 88 87 80 67 60 57 55 54 54 53 51 51 49 51 53 56 64 63 61 61 61 61 62 63 62 61 61 62 76 74 74 77
99 100 98 92 92 85 82 80 76 75 94 94 87 85 79 76 66 68 70 68 67 66 65 62 69 71 70 68 65 64 63 65 66 67 68 68 68 67 66 68 73 73 83
100 100 97 92 82 81 81 86 92 76 76 99 97 96 83 75 74 75 82 78 70 67 69 72 74 72 71 70 70 70 70 70 70 70 69 66 64 68 67 70 70 68 80
76 84 66 82 64 47 63 76 82 93 87 76 88 94 93 81 82 84 83 75 71 72 68 66 65 64 68 71 70 70 71 72 68 63 63 58 59 60 68 70 76 72 72
94 71 55 70 65 47 50 70 70 78 94 90 77 78 92 86 80 81 80 74 70 70 69 66 60 60 67 69 69 73 74 72 65 60 62 60 60 59 69 73 74 72 70
74 58 48 52 41 46 54 66 69 70 71 78 88 80 81 82 80 79 74 71 71 65 63 61 58 63 69 76 78 75 72 71 71 66 66 63 63 65 70 69 72 74 72
69 53 48 37 38 88 69 73 58 60 74 70 66 75 80 82 82 80 74 71 71 66 67 66 62 68 73 74 74 77 70 66 64 64 65 62 64 64 64 68 74 80 80
62 64 59 53 60 48 61 74 64 53 68 66 70 72 69 72 75 77 78 72 72 70 69 71 78 77 74 75 79 76 67 66 65 69 67 70 68 65 62 71 83 85 86
81 84 59 50 55 60 71 86 73 61 82 89 67 68 81 82 85 77 74 75 73 75 76 81 78 74 75 75 83 86 75 66 75 73 72 70 68 67 77 88 92 90 89
89 79 67 60 56 62 79 77 73 68 61 62 72 82 76 72 85 88 80 91 92 91 94 98 98 91 79 81 84 85 73 75 82 81 81 75 72 73 83 92 93 90 82
88 81 74 74 77 75 77 69 78 75 87 77 77 74 70 79 84 83 89 99 100 91 80 84 85 95 96 98 93 90 94 97 77 75 84 86 82 80 80 83 85 84 82
63 86 99 78 72 71 74 75 93 93 87 80 84 86 84 96 100 90 100 100 94 87 83 82 82 86 73 67 67 73 79 81 90 85 72 81 89 86 85 85 86 87 86
43 41 46 79 94 93 82 69 68 76 78 83 94 92 92 87 98 95 98 100 94 87 79 73 88 66 49 52 60 72 85 83 82 86 92 86 88 90 89 90 91 90 90

GFSSE_925_rhum_096.txt.gz
RH
71 83 91 84 96 96 87 85 89 85 72 86 93 96 87 84 88 94 88 81 91 97 85 90 96 93 93 89 94 97 97 93 88 83 88 93 97 99 84 90 77 74 97
69 89 89 87 95 96 94 93 88 90 78 88 92 94 96 96 98 98 94 90 94 94 85 91 86 88 90 92 95 96 98 88 83 83 87 78 86 94 93 82 81 89 96
72 87 92 89 89 89 94 93 86 87 83 89 87 88 95 97 98 95 90 87 86 86 84 87 80 88 94 94 85 74 73 84 88 82 73 64 73 88 87 80 90 96 96
73 87 84 87 85 87 95 94 92 86 81 87 88 88 96 98 98 94 89 87 86 83 84 87 88 94 95 94 61 43 45 46 50 53 50 53 56 86 90 90 84 86 88
75 80 83 89 83 88 94 93 94 87 84 87 87 87 96 98 91 90 88 83 85 83 83 84 88 95 81 64 49 43 42 44 58 59 62 63 58 78 87 88 83 87 94
75 77 88 90 78 77 92 88 92 89 85 82 84 90 91 90 92 90 85 84 85 83 84 88 84 93 78 67 59 50 49 53 66 65 66 70 70 84 82 83 90 84 94
77 79 94 88 81 74 81 81 92 93 90 86 90 91 89 85 90 91 86 86 85 84 84 83 84 87 77 71 66 64 60 65 63 64 68 68 76 86 85 82 81 53 45
78 84 89 88 84 83 85 78 83 92 92 92 92 83 84 86 89 93 90 90 88 86 88 93 79 73 71 71 69 64 65 67 67 66 70 70 85 89 86 70 59 54 50
79 79 92 94 91 75 66 61 71 85 89 90 85 83 84 85 92 94 94 94 90 88 88 87 79 74 70 69 68 68 67 68 66 69 67 69 80 88 78 72 68 63 59
85 77 94 85 80 76 96 76 57 68 78 85 84 83 81 90 94 97 97 96 96 88 88 82 78 73 67 64 68 69 69 66 66 74 69 73 73 80 66 65 67 68 68
90 86 89 77 69 67 80 92 73 61 80 81 79 79 87 79 84 93 89 98 98 87 83 80 76 66 56 54 54 58 66 61 56 60 66 64 68 89 74 69 67 68 72
97 98 88 73 67 75 82 97 86 77 74 71 83 79 71 73 72 74 93 95 79 73 70 68 62 56 54 57 64 53 59 58 56 56 61 60 64 75 92 74 72 73 74
100 100 87 70 66 71 82 94 93 74 63 64 72 73 72 74 86 81 83 84 81 67 69 68 70 62 60 61 64 60 60 60 57 58 57 55 57 61 79 83 71 72 79
93 100 94 80 68 64 80 84 93 90 72 69 65 66 71 71 72 69 68 69 69 65 63 62 57 58 61 68 64 61 63 62 60 60 59 62 62 62 63 72 82 73 79
92 100 98 94 84 78 72 74 84 91 87 84 84 76 66 66 65 67 66 68 67 71 68 66 69 69 69 69 67 65 63 61 60 61 64 67 68 68 68 67 70 69 83
92 98 99 98 93 85 80 78 72 83 92 93 84 89 83 76 70 74 75 79 76 76 72 70 71 73 69 68 66 65 64 63 64 65 65 65 64 62 64 66 68 68 69
94 90 94 99 97 84 80 79 85 78 82 96 96 96 90 87 85 86 88 87 80 78 73 74 72 70 68 71 68 68 66 64 65 61 61 62 67 62 62 63 71 73 71
94 87 87 94 98 86 85 80 83 89 88 85 86 97 97 92 90 95 93 83 78 77 75 70 65 62 63 67 64 64 67 66 63 60 61 57 61 64 66 68 71 72 69
82 90 70 74 90 82 92 88 72 83 90 86 83 86 93 99 96 94 90 84 84 78 74 73 64 59 62 66 69 68 66 62 60 62 61 63 66 71 68 70 74 72 72
76 85 68 79 79 88 96 96 89 83 84 86 93 84 85 92 98 98 90 82 80 76 68 68 60 63 67 69 69 66 63 62 58 58 63 62 64 75 76 77 78 78 81
71 82 77 76 71 91 96 91 88 88 94 92 79 79 84 87 86 93 91 84 81 75 68 66 67 71 73 73 68 58 59 58 61 67 67 64 70 78 80 82 82 84 97
94 82 70 56 71 93 76 81 78 86 94 95 90 90 89 84 85 86 93 89 82 78 76 75 78 76 67 76 65 70 56 48 57 70 70 70 72 75 79 89 92 95 98
94 85 80 79 68 56 72 88 87 92 97 99 95 96 99 82 84 88 92 88 94 94 92 98 98 92 81 85 82 69 56 48 58 52 71 73 72 72 80 89 92 94 94
84 84 91 85 73 64 68 84 88 76 79 89 98 90 84 76 95 90 90 99 100 99 98 92 84 87 93 85 92 90 83 70 52 49 60 73 77 76 80 81 84 91 92
95 93 93 84 78 65 56 61 87 88 79 71 72 78 82 82 92 89 89 89 99 99 98 95 86 80 67 61 72 65 61 65 68 60 52 50 72 80 83 83 85 88 92
74 89 100 96 87 85 71 72 78 90 80 87 87 87 83 94 96 91 100 100 100 100 90 87 86 79 71 63 55 69 67 57 56 60 59 62 65 69 86 88 89 91 97

GFSSE_925_rhum_099.txt.gz
RH
61 88 89 94 97 95 80 64 53 54 82 88 84 85 84 82 86 89 82 94 95 84 95 94 96 91 82 94 98 99 99 94 87 85 92 88 93 96 94 78 76 88 97
62 85 92 86 96 95 94 89 79 61 83 85 88 97 96 88 97 91 94 97 90 86 96 91 89 90 90 96 99 98 95 75 84 77 69 71 90 94 89 78 83 94 95
75 85 93 85 88 93 90 87 87 72 86 89 88 94 96 96 98 93 94 97 92 87 93 82 88 90 93 95 97 94 84 79 71 69 63 61 86 90 88 86 92 96 97
80 86 84 86 87 86 89 90 87 79 89 88 86 89 93 98 96 92 90 90 82 81 76 83 93 94 94 66 56 54 54 57 48 48 47 49 58 90 92 89 94 98 92
83 80 83 84 84 86 88 91 87 80 83 90 89 91 94 98 94 89 86 79 80 78 84 83 92 92 65 45 40 36 37 55 57 56 60 59 60 80 90 86 88 91 94
82 78 83 83 81 86 90 92 86 81 80 87 89 90 90 94 92 85 81 80 79 81 80 86 89 69 53 48 46 46 52 60 58 60 62 67 77 84 83 81 80 90 97
77 81 91 85 82 86 88 92 86 78 81 89 87 89 94 86 85 81 82 82 78 79 81 90 91 74 66 62 55 54 61 60 56 61 63 70 83 86 85 84 71 61 59
73 85 86 91 80 86 87 91 90 83 83 88 88 94 90 83 86 86 82 82 78 81 93 92 92 79 71 67 63 62 61 64 57 61 65 77 85 89 86 67 58 55 50
72 82 84 92 92 87 81 88 90 90 90 91 92 89 84 82 85 84 82 82 81 84 92 86 76 71 71 70 67 64 62 64 60 62 60 74 74 87 72 68 68 65 63
97 81 85 84 89 90 95 78 91 91 93 91 89 79 81 84 87 86 85 83 84 85 85 80 76 70 68 67 66 65 63 62 60 65 63 66 64 72 64 63 67 69 70
89 89 86 87 78 68 69 83 83 95 95 90 83 83 84 86 91 89 90 87 87 88 88 83 77 69 59 52 54 59 58 56 50 54 60 61 61 74 72 69 68 70 73
78 86 89 84 64 58 64 80 71 82 87 80 81 80 70 72 75 74 93 94 92 90 88 82 73 59 52 57 53 43 57 51 50 51 58 59 59 67 92 77 74 77 77
86 87 83 92 64 59 71 69 61 63 62 62 70 69 59 60 72 82 95 97 96 80 82 73 60 60 53 50 53 52 51 52 51 53 54 53 56 60 69 82 76 82 82
88 82 63 99 64 66 67 66 57 51 53 59 66 58 58 61 69 67 72 73 70 63 58 60 57 52 54 55 55 54 56 57 55 55 56 59 62 63 63 67 72 69 72
96 90 93 99 64 72 81 82 58 52 51 53 60 60 61 61 59 60 59 62 60 56 55 55 54 52 51 54 58 60 57 55 54 54 58 62 66 67 68 68 67 69 70
79 82 83 97 66 60 75 82 86 64 56 60 59 57 57 57 58 59 58 59 60 64 60 59 56 59 58 59 56 56 55 56 57 58 58 60 64 60 60 62 65 62 69
58 62 75 96 78 70 67 69 80 81 75 71 74 69 66 66 62 67 65 73 72 68 63 63 58 59 57 57 60 58 59 57 56 54 53 54 58 60 62 60 61 66 68
93 71 68 90 75 81 74 72 64 68 79 84 77 78 76 76 76 77 81 81 77 72 68 62 59 58 55 56 58 57 59 59 57 53 52 54 54 58 62 63 70 70 68
89 83 98 83 81 70 79 73 73 73 75 79 83 89 86 84 83 87 85 81 78 74 70 65 58 53 52 58 59 56 61 58 53 52 53 55 56 61 65 66 68 72 72
87 78 91 98 83 81 81 84 76 80 78 76 77 80 83 87 88 87 83 81 78 77 69 65 61 54 56 56 65 59 57 55 55 53 54 56 56 67 72 76 75 76 80
94 89 84 76 80 90 83 90 86 78 83 86 85 78 74 82 85 88 86 81 80 76 69 62 60 57 64 66 63 55 55 53 53 58 59 56 57 70 74 75 77 76 78
86 80 74 65 68 79 81 82 77 83 86 87 87 86 81 80 82 86 88 87 85 81 74 66 63 67 70 66 60 60 60 47 54 61 62 62 61 68 70 79 84 88 88
89 86 84 79 87 86 77 70 76 81 85 93 90 91 91 90 87 90 91 87 82 82 80 80 80 88 80 81 73 65 56 52 47 45 60 62 62 63 71 80 87 91 92
98 91 78 86 92 91 84 72 68 70 76 82 85 92 87 79 93 99 90 85 90 90 90 98 97 91 79 82 80 82 76 62 55 48 55 63 68 67 70 73 78 87 90
96 98 91 87 90 87 88 83 82 76 73 80 76 96 90 86 84 81 82 80 90 98 99 98 94 88 77 67 56 59 58 57 61 59 59 49 68 68 74 76 76 80 89
97 95 90 94 93 90 89 79 78 78 79 86 95 99 97 92 88 85 85 81 99 100 95 88 94 97 97 90 73 58 58 60 62 64 64 54 58 60 72 80 85 86 92

GFSSE_925_rhum_102.txt.gz
RH
82 75 77 80 80 60 55 55 51 74 86 87 95 96 88 81 79 92 86 93 86 97 95 96 87 88 97 99 100 94 94 88 83 79 86 88 92 93 86 87 87 92 95
81 74 81 81 95 73 60 62 54 62 85 87 90 95 84 82 86 92 97 95 91 95 94 93 84 88 93 94 95 95 80 73 70 74 74 84 88 93 85 80 86 95 96
85 86 85 88 89 87 69 71 63 56 82 85 85 94 96 85 90 94 95 89 94 95 90 90 89 94 99 99 97 74 75 72 74 73 75 64 85 92 93 93 88 96 96
83 86 90 89 83 88 80 81 83 60 82 87 86 91 92 98 93 95 97 84 93 87 90 91 93 95 68 64 64 65 51 50 55 53 54 58 81 91 91 97 100 98 97
87 85 85 87 84 88 84 84 85 68 85 87 89 88 90 96 95 94 94 77 85 87 84 94 95 72 43 37 33 32 56 58 60 62 62 63 67 86 94 95 92 95 98
85 82 84 83 82 84 82 87 84 74 87 88 86 90 92 90 92 88 77 80 76 79 80 95 69 51 45 43 42 57 60 60 62 64 65 60 71 84 78 65 68 73 91
82 82 85 80 75 82 82 88 83 74 83 85 84 89 93 90 85 79 76 78 77 80 85 95 67 58 51 47 47 57 59 59 62 66 70 59 75 84 83 70 68 70 63
80 83 84 79 78 82 80 89 85 76 82 85 88 88 91 86 78 79 81 78 79 79 83 89 81 67 63 60 57 56 61 62 62 66 68 52 70 87 80 64 62 62 67
83 86 91 84 82 78 82 90 84 77 80 88 87 90 87 84 83 81 83 78 77 84 88 89 84 74 69 62 58 56 62 64 63 65 71 58 68 84 72 67 67 67 66
92 94 100 100 89 85 83 93 86 82 84 86 90 90 84 84 84 84 80 76 78 82 90 82 75 70 66 63 61 58 55 62 65 62 66 58 60 68 63 63 66 68 69
93 82 89 78 97 90 82 92 93 86 86 94 93 88 85 86 84 80 80 76 78 81 81 80 72 65 60 55 57 55 56 55 54 60 64 60 57 68 70 72 72 73 73
60 75 94 86 79 84 82 86 94 98 95 92 86 83 85 86 85 86 81 81 81 82 87 78 71 63 49 52 43 39 54 52 50 52 61 62 55 65 81 78 75 74 74
70 55 50 64 95 68 73 79 95 100 97 96 91 82 80 84 84 87 86 84 86 88 86 76 66 49 51 57 56 54 53 51 52 53 51 52 54 59 66 73 78 75 74
77 66 80 70 71 72 83 66 74 89 91 91 86 69 68 76 80 88 85 93 90 84 69 58 56 55 56 54 56 56 54 56 56 55 56 58 60 62 65 66 68 72 81
78 78 97 71 81 70 99 64 64 61 63 71 72 66 61 70 76 78 74 77 71 57 69 60 61 54 53 53 56 58 57 57 55 54 57 60 61 63 62 64 67 64 70
92 90 98 78 75 86 98 61 56 55 56 64 61 61 60 66 67 65 65 66 64 58 56 55 54 54 54 54 58 59 57 56 56 56 59 59 61 63 59 58 59 59 69
97 100 92 80 96 96 91 66 61 52 52 58 61 61 60 61 60 59 60 60 59 60 62 61 58 58 59 58 58 59 58 58 56 55 54 55 55 58 60 64 66 64 66
95 99 81 93 82 83 91 72 60 65 62 59 59 58 58 58 60 59 62 65 68 69 65 63 61 60 59 58 60 59 59 59 56 56 52 53 54 58 64 67 67 72 70
79 90 89 72 57 57 69 89 85 67 68 71 74 67 70 70 68 70 79 76 76 74 67 64 61 58 56 54 59 58 57 56 55 53 53 55 56 57 61 65 70 75 73
85 65 75 72 62 62 71 70 73 75 86 79 76 79 78 78 80 76 85 83 79 76 72 68 64 58 53 54 60 59 57 57 56 55 55 57 56 59 73 75 77 77 80
81 75 88 94 76 69 69 71 76 78 74 78 83 87 81 84 82 87 84 82 80 79 74 68 65 61 54 61 64 63 58 57 55 58 58 58 59 70 73 72 82 87 78
93 85 90 99 86 76 68 65 74 81 83 83 80 77 78 84 86 83 82 85 83 81 78 70 63 61 61 65 68 64 74 58 58 54 58 61 61 67 70 74 86 82 80
93 93 89 89 84 80 74 73 76 75 79 85 86 85 79 80 81 85 85 84 83 82 78 76 74 71 72 75 75 70 74 70 59 62 63 60 62 63 71 77 83 89 87
100 91 85 75 76 78 83 85 83 73 73 65 77 87 86 85 83 83 75 88 86 83 82 80 78 80 81 91 86 75 75 65 66 57 64 62 61 65 70 73 78 84 87
99 97 90 75 78 83 82 87 85 78 79 74 76 78 72 78 75 78 83 84 80 77 80 81 85 86 83 84 83 79 58 58 62 68 69 66 69 65 66 73 76 83 88
100 90 94 94 92 80 87 86 89 88 82 78 86 85 85 82 84 82 84 86 87 92 90 95 96 93 82 85 88 78 64 60 65 63 74 66 64 66 69 75 75 85 88

GFSSE_925_rhum_105.txt.gz
RH
86 70 67 57 59 53 54 68 78 83 86 88 94 94 81 78 78 67 70 88 96 97 95 87 96 97 95 88 91 95 95 83 85 85 86 85 89 96 96 84 87 94 96
73 69 65 53 52 57 54 58 69 82 85 88 94 98 86 82 86 90 94 97 97 96 92 88 96 98 97 88 94 75 71 76 78 75 73 82 84 92 95 89 88 94 96
74 75 72 61 55 58 62 58 56 80 84 86 89 95 93 83 90 96 94 98 92 93 88 88 93 91 92 91 78 78 76 77 75 78 65 79 89 96 97 90 89 96 96
78 78 80 77 63 62 65 66 55 71 83 84 89 90 92 89 94 93 92 99 96 93 93 93 97 98 94 69 66 55 60 67 59 70 61 67 90 94 97 94 86 98 98
79 85 84 77 73 69 70 77 68 63 81 83 86 87 88 88 91 96 85 95 90 85 92 94 93 59 50 48 44 57 61 63 64 60 59 46 74 94 97 97 97 98 97
87 91 87 76 82 73 80 77 83 65 83 84 86 87 92 89 92 94 84 93 84 77 91 94 56 39 32 33 59 62 64 64 64 63 54 62 73 81 81 80 73 84 80
90 90 86 81 76 79 79 80 83 68 85 86 88 89 92 88 88 83 81 88 80 74 86 64 53 46 42 46 60 61 63 68 68 67 51 64 82 86 84 81 79 63 72
85 87 85 83 73 80 75 80 85 77 83 86 89 88 91 88 82 74 76 76 76 78 88 76 65 55 49 51 59 62 62 68 68 66 49 58 78 87 83 78 70 67 66
86 92 95 89 74 84 77 83 86 81 78 85 86 88 91 83 77 75 75 75 78 75 85 92 72 62 56 55 53 63 66 65 68 70 65 51 66 77 68 67 69 68 66
94 97 98 99 94 95 89 90 86 80 81 84 83 89 88 76 78 79 77 81 77 75 86 87 73 66 60 56 53 60 66 65 66 67 66 52 58 63 62 64 67 68 67
90 95 98 97 88 95 95 98 91 81 82 82 89 91 87 83 80 80 76 76 78 79 86 74 66 62 58 55 52 49 58 61 65 68 66 60 54 63 68 70 71 70 72
92 94 88 85 80 76 73 84 98 85 82 91 94 90 85 83 82 78 78 76 76 79 80 73 65 58 47 44 39 46 55 51 54 55 64 62 52 62 72 75 76 75 75
78 89 91 91 91 84 84 70 63 92 89 96 95 88 84 86 80 80 80 76 76 79 85 74 66 53 50 55 56 52 54 52 54 54 52 54 52 58 66 73 78 74 76
59 65 64 72 74 53 74 86 66 74 100 99 92 86 86 84 86 81 82 78 79 85 88 71 59 44 54 57 58 58 55 53 57 56 57 57 59 60 64 66 69 75 79
71 70 70 68 66 67 77 68 73 93 99 93 85 84 80 83 84 81 84 84 87 86 79 58 56 56 56 56 56 58 58 57 56 57 57 59 62 62 62 59 60 63 66
77 78 73 75 75 71 89 63 82 92 84 99 92 84 80 82 84 86 84 88 78 74 63 62 61 57 54 51 56 58 58 59 58 58 58 58 56 58 61 60 60 62 66
90 88 82 84 91 90 86 68 84 78 85 90 75 77 75 75 78 75 71 69 63 59 64 63 57 54 57 56 58 59 59 59 58 53 53 52 52 58 61 64 67 67 72
93 94 87 83 99 92 77 93 93 69 66 75 75 72 66 68 73 71 66 67 69 62 59 58 60 58 60 61 61 61 60 59 60 56 55 51 52 64 67 69 68 71 72
78 89 91 99 97 68 71 83 89 74 62 65 63 64 64 65 63 61 63 62 61 61 64 64 62 62 61 59 57 60 60 60 58 57 54 55 57 58 60 61 70 74 74
76 73 80 96 100 80 72 70 85 84 60 60 61 59 59 60 60 59 62 63 71 70 66 65 63 62 58 55 56 60 62 61 57 56 55 56 57 56 54 68 71 74 80
84 84 84 93 90 95 99 98 95 99 80 67 60 59 70 64 67 66 79 78 78 76 73 69 66 64 59 54 64 65 59 56 58 58 58 58 57 57 66 69 74 85 81
84 86 89 86 87 88 87 86 85 88 80 82 73 74 74 72 77 76 84 86 82 79 76 71 68 65 62 58 68 70 76 64 63 60 58 55 59 66 70 70 83 86 82
86 83 97 93 93 76 79 90 84 73 80 80 70 71 76 78 80 77 85 83 81 81 80 76 70 64 68 75 71 69 84 74 71 65 63 59 57 66 68 68 69 82 83
90 90 99 100 92 79 77 73 76 77 73 73 66 64 74 80 82 86 84 84 85 84 78 77 74 72 68 76 90 78 74 64 68 73 69 65 62 60 71 75 74 78 82
94 93 100 97 95 93 85 89 88 81 83 76 74 72 66 69 76 83 76 72 74 71 66 79 73 73 78 71 82 89 80 69 68 66 70 71 68 68 70 72 76 81 86
100 99 100 100 100 99 98 96 89 82 84 82 85 87 84 82 77 79 77 76 77 76 82 85 80 75 92 92 84 78 72 64 59 67 73 68 74 69 72 74 78 84 87

GFSSE_925_rhum_108.txt.gz
RH
90 86 87 95 75 76 82 88 86 82 70 73 97 98 82 78 70 53 93 96 97 85 84 94 92 84 87 89 95 97 96 91 82 81 84 91 94 96 96 88 87 96 97
77 82 88 91 81 70 76 86 82 83 76 85 97 99 97 84 70 78 97 94 93 89 95 97 93 85 89 96 95 94 82 74 76 77 79 85 86 94 96 93 89 95 96
66 74 75 78 72 65 62 71 80 85 84 85 93 99 96 87 87 94 96 96 96 90 92 88 89 83 95 95 92 84 80 76 69 72 81 87 95 97 95 88 92 96 97
66 66 67 64 68 65 64 57 74 83 84 85 88 94 92 82 93 97 98 92 89 91 91 91 90 89 87 82 61 70 62 60 67 58 71 86 95 97 85 80 89 98 98
74 68 67 65 64 67 68 63 60 81 84 84 87 88 86 78 95 94 99 90 94 93 96 96 96 74 70 62 63 71 63 59 61 55 48 68 84 96 97 96 95 93 89
77 78 75 71 66 64 66 67 56 73 82 83 86 87 88 80 90 89 96 90 84 82 94 68 51 51 51 54 63 66 66 65 62 52 50 62 72 83 82 81 76 83 83
84 82 85 81 75 66 68 77 76 63 83 83 85 87 89 82 91 89 92 86 73 77 74 41 35 33 44 62 64 68 67 68 67 47 54 66 80 87 86 81 77 72 69
87 88 85 85 82 71 78 71 80 62 83 83 84 87 90 85 86 87 87 84 78 63 60 47 42 41 52 61 64 68 69 71 69 49 55 62 76 88 71 63 64 70 76
88 94 93 90 81 79 78 79 84 78 83 85 87 87 91 87 82 82 86 81 76 64 66 55 48 45 49 60 63 66 70 70 70 65 52 57 70 88 68 67 69 70 70
96 71 98 93 83 86 90 89 90 86 77 87 89 88 93 88 79 82 80 78 75 79 73 65 60 55 52 53 62 67 68 68 69 70 61 52 59 64 64 67 68 68 70
100 96 95 91 94 94 95 88 89 94 79 86 89 86 91 82 76 78 76 75 76 76 80 72 63 59 55 52 55 66 67 68 68 70 66 58 55 64 68 70 69 70 72
100 100 94 88 89 90 90 89 92 98 91 88 88 86 90 78 78 77 76 78 78 85 85 70 63 59 55 51 50 57 58 56 60 65 66 62 53 61 68 71 70 72 73
98 99 89 84 83 80 76 70 64 60 87 92 86 89 86 80 80 78 75 78 78 79 81 68 63 57 45 46 41 53 56 53 54 56 56 55 52 56 64 70 72 76 77
100 95 89 82 78 70 66 55 58 52 59 96 90 93 87 82 80 78 79 78 79 80 76 70 62 55 50 55 57 57 55 54 54 56 57 57 60 59 63 66 70 73 78
77 84 91 90 78 74 77 65 62 47 53 68 100 94 87 84 82 78 75 78 78 82 78 71 62 52 53 56 58 58 57 56 57 58 58 59 61 63 62 62 61 66 71
73 71 73 75 73 62 59 55 51 59 52 66 99 94 90 87 84 76 80 79 78 81 81 72 57 53 57 57 56 58 58 57 59 58 58 59 56 56 62 61 61 63 68
72 72 72 71 72 70 62 61 60 75 61 62 94 97 91 89 87 79 79 81 82 85 80 67 62 64 59 56 54 58 60 60 59 59 58 54 53 54 63 65 66 69 69
74 79 78 76 88 94 87 78 74 73 74 62 75 100 91 89 81 80 81 83 82 83 77 68 66 64 58 57 56 59 60 60 60 61 62 55 56 59 64 67 69 68 73
73 76 83 83 83 98 98 87 91 81 84 80 80 92 95 85 77 79 80 83 74 72 66 65 63 61 60 62 62 61 62 61 60 62 58 53 55 61 62 63 63 68 73
72 81 80 84 89 100 98 90 100 94 82 83 80 87 92 89 81 74 74 66 69 73 67 66 63 62 61 63 61 59 61 61 62 62 54 55 57 58 59 60 69 70 72
83 83 80 94 100 98 87 84 98 100 92 87 80 80 81 80 77 76 71 68 67 66 64 64 65 64 65 61 58 59 66 66 63 58 56 57 59 60 57 55 61 68 78
75 79 84 98 97 98 79 92 86 89 87 91 78 73 74 70 69 64 63 64 65 69 70 66 67 69 64 60 69 74 82 70 69 65 62 60 60 59 54 57 65 77 77
91 86 86 88 89 90 93 94 83 94 100 88 80 74 70 64 62 62 63 69 74 76 74 74 72 70 68 65 65 74 89 85 76 67 66 63 60 61 63 65 71 75 79
81 77 80 77 88 90 88 97 99 96 96 88 83 74 71 71 69 69 70 75 85 84 82 78 74 73 72 70 77 78 77 63 76 81 73 69 66 67 72 71 74 75 82
64 83 74 83 100 95 96 99 97 94 96 80 85 79 78 72 73 75 78 83 86 85 85 83 75 76 76 73 86 89 87 79 73 74 85 78 70 69 73 76 75 78 78
88 78 90 92 99 99 99 100 100 98 95 97 92 89 85 82 81 77 77 78 73 74 74 72 69 74 78 78 79 81 86 82 79 74 73 74 76 76 77 77 82 80 80

GFSSE_925_rhum_111.txt.gz
RH
86 89 84 95 89 89 81 87 72 73 88 91 98 97 84 78 76 85 95 94 82 82 83 82 83 87 88 95 94 97 96 93 82 86 91 89 93 96 96 90 91 95 97
79 90 83 94 94 88 89 84 86 71 85 96 98 99 96 84 90 97 97 94 85 91 92 92 82 84 85 94 99 97 82 78 81 82 82 83 90 94 96 90 90 95 96
83 87 87 90 87 90 86 83 82 78 88 90 98 98 99 85 89 98 94 92 92 96 93 86 85 86 93 95 94 93 71 70 78 80 84 96 94 95 90 93 95 97 98
80 80 85 83 74 78 87 84 83 81 81 85 89 97 93 94 94 95 94 97 86 94 88 83 92 96 90 87 71 66 70 59 60 77 83 93 95 93 92 91 88 96 96
81 79 79 75 71 64 63 78 82 82 83 86 87 90 90 92 95 96 96 85 86 88 88 84 96 92 72 72 73 59 60 63 55 56 77 82 89 90 92 94 91 87 83
81 86 76 69 60 59 56 55 73 85 82 83 84 86 87 81 94 96 91 86 88 87 98 96 89 76 60 74 73 65 64 64 53 47 55 66 75 86 87 86 83 86 88
75 74 79 72 65 59 58 57 55 74 84 83 84 86 86 82 86 95 90 84 80 79 87 66 62 63 58 69 69 67 68 67 47 51 58 69 82 86 87 88 90 92 86
90 86 78 74 68 65 63 67 64 58 81 83 85 84 87 83 87 93 91 79 62 76 57 39 36 41 64 66 68 68 70 69 50 50 55 62 81 90 91 75 78 73 70
71 92 94 88 85 73 76 76 81 64 80 82 84 85 87 85 89 92 90 81 67 52 48 40 38 52 63 66 68 69 70 70 62 51 53 58 73 88 67 70 70 68 68
66 74 87 96 90 85 85 83 85 84 79 83 85 85 88 88 88 90 87 83 75 50 44 45 45 47 58 64 68 70 69 70 70 66 53 55 66 75 67 68 67 68 70
65 73 76 86 92 88 90 84 86 92 82 85 87 87 84 91 89 85 84 82 76 56 50 53 51 51 54 60 67 70 69 67 68 69 64 57 61 66 66 68 68 69 70
99 89 94 87 89 86 87 83 77 86 92 90 87 90 88 90 89 86 81 79 75 69 64 60 56 53 54 54 60 68 68 67 67 68 67 64 58 70 68 70 70 71 72
98 100 100 96 84 85 82 76 75 77 89 91 96 88 90 89 80 88 77 75 79 76 82 72 64 59 54 53 53 60 60 58 55 58 63 59 55 70 72 69 72 74 75
91 99 99 98 92 85 77 74 70 66 59 76 94 97 89 86 79 78 76 78 77 83 86 72 64 58 47 45 44 48 57 56 54 55 58 58 59 60 65 68 69 72 74
87 96 98 93 88 80 74 72 63 56 54 54 58 88 98 80 80 78 76 78 78 77 78 71 65 60 48 54 57 56 57 57 56 57 57 59 60 63 63 65 64 66 72
76 81 90 90 85 79 75 64 67 68 65 63 57 56 95 82 81 78 77 81 80 78 77 72 67 63 50 55 57 59 59 59 59 58 59 59 60 59 60 64 63 65 66
48 69 75 69 79 80 78 76 72 75 57 61 76 63 71 94 88 80 79 81 80 78 78 78 77 70 55 58 58 56 58 60 60 61 61 60 60 62 64 66 64 67 71
40 51 67 70 65 68 63 58 59 59 64 75 78 85 92 91 92 87 86 79 78 79 81 81 82 70 66 64 59 55 57 61 61 62 61 61 60 60 60 66 64 70 73
24 56 64 76 74 71 73 71 73 74 71 75 88 98 98 92 100 94 89 84 80 80 82 84 83 77 69 61 59 59 59 61 61 62 63 62 57 55 57 64 65 67 69
35 51 74 78 81 82 91 93 93 86 84 84 91 95 100 95 96 100 92 89 82 82 83 85 82 76 73 60 63 65 63 63 64 65 64 64 57 56 59 62 60 63 71
38 47 71 87 86 93 99 100 98 100 100 99 93 90 84 85 78 96 96 85 80 85 78 75 72 70 69 66 67 66 63 63 66 67 66 62 60 58 60 61 59 63 65
54 54 83 94 97 97 99 100 98 96 100 98 92 97 83 76 76 81 72 79 79 72 69 74 71 73 69 67 68 76 84 72 68 67 63 62 64 64 64 60 60 62 62
80 79 86 86 97 98 96 95 89 96 96 100 98 96 100 99 91 84 76 93 70 69 73 69 69 73 69 68 66 72 90 89 81 70 68 66 70 70 69 66 66 65 67
89 82 81 89 99 94 95 92 92 89 91 87 95 94 95 94 90 97 99 89 63 69 68 68 72 72 73 73 76 76 81 72 81 81 74 71 71 73 70 68 66 70 72
91 86 86 90 87 91 91 91 95 94 85 87 90 95 89 94 96 93 76 74 66 66 72 76 78 80 80 77 81 84 94 88 80 80 85 81 77 73 75 70 71 72 74
82 62 71 88 88 86 92 91 92 96 97 100 99 95 92 86 88 82 75 72 67 70 73 69 84 85 79 79 80 81 84 90 93 94 89 84 87 82 83 86 84 83 83

GFSSE_925_rhum_114.txt.gz
RH
86 91 80 76 85 85 86 90 84 90 92 99 98 99 96 89 82 90 93 93 83 79 80 80 79 83 95 94 95 96 97 97 95 85 86 91 93 96 96 91 91 94 96
81 93 82 79 84 85 84 88 93 92 92 92 99 99 96 92 95 96 94 88 87 83 87 84 84 93 90 92 91 96 96 83 83 84 87 90 88 93 97 91 90 96 98
80 93 87 86 84 86 84 87 90 89 91 93 97 97 98 96 94 97 94 90 91 92 88 84 83 79 89 95 97 94 82 78 80 87 91 94 90 94 97 95 92 95 93
80 92 87 86 82 83 83 85 81 88 88 90 97 91 97 94 94 96 94 94 96 96 86 81 85 89 93 85 72 68 62 71 78 88 92 92 94 92 93 92 89 95 90
89 90 86 86 85 84 84 84 84 81 84 85 88 91 91 94 93 91 93 89 88 86 84 88 89 90 74 72 65 65 61 50 59 77 84 86 81 93 90 76 85 85 86
92 90 87 83 73 76 79 79 85 83 81 85 85 87 90 89 93 88 92 86 82 88 85 93 89 73 71 68 63 63 61 52 42 54 60 70 74 88 85 80 85 90 90
96 98 89 88 74 63 60 70 75 78 79 80 84 86 89 82 84 95 87 82 85 90 94 96 85 66 70 66 64 63 64 50 46 49 53 64 82 87 87 89 77 79 82
80 87 87 87 78 64 61 57 62 76 81 78 82 82 85 83 84 95 88 82 78 84 95 88 73 62 70 67 67 67 67 53 48 53 59 66 87 92 91 81 76 76 75
74 76 76 85 82 80 74 67 60 69 79 82 83 83 84 83 88 94 88 76 57 62 64 60 58 58 68 68 65 67 68 64 49 53 58 64 79 92 78 71 68 69 71
72 76 77 78 83 82 82 82 86 69 72 83 84 86 86 86 88 94 89 75 51 44 42 40 43 63 64 64 65 67 69 70 66 58 56 61 73 87 74 70 67 69 71
93 82 67 76 80 84 80 76 75 86 66 87 84 86 90 90 90 92 86 81 65 45 39 42 45 60 63 66 68 70 70 69 69 68 61 58 66 82 72 69 67 70 70
96 98 92 70 78 77 80 81 77 80 81 79 91 86 92 88 89 91 86 85 78 50 45 47 45 51 59 65 69 71 70 68 67 68 67 64 60 89 79 72 70 70 71
70 97 100 98 83 75 75 84 79 76 81 82 84 92 89 91 90 87 86 86 83 62 57 58 59 57 54 55 61 68 69 66 61 61 63 65 61 83 91 72 72 73 73
44 74 95 99 99 92 85 82 75 73 74 81 78 88 93 92 92 81 88 85 83 75 65 61 60 60 58 56 55 59 63 60 56 56 58 62 61 62 88 71 71 74 76
39 59 86 98 100 96 89 79 73 69 66 66 67 66 85 94 96 82 85 85 83 80 76 75 67 62 57 50 46 46 51 57 56 55 57 60 61 62 64 66 66 63 68
26 50 76 98 98 94 89 82 74 66 62 61 64 75 69 72 85 85 82 80 81 79 80 85 72 64 59 49 55 57 57 59 59 58 56 59 60 62 64 66 68 65 68
22 35 68 79 93 94 85 77 75 68 74 76 69 64 81 86 79 77 77 77 81 82 79 80 76 72 67 60 56 58 59 60 61 60 60 60 61 61 62 64 68 67 68
25 32 40 68 80 91 85 79 72 71 77 67 62 65 71 91 92 87 75 77 78 84 80 80 80 78 71 71 58 60 59 56 60 61 62 63 62 62 61 62 64 69 69
24 24 29 54 73 72 79 82 79 75 64 61 67 69 79 89 99 97 85 80 83 92 86 81 84 83 81 70 70 62 59 56 58 62 63 63 63 63 60 60 64 68 70
25 24 25 42 71 76 75 76 72 72 72 75 75 72 82 90 96 100 100 100 97 100 94 85 85 85 84 72 72 63 62 63 64 65 66 65 65 63 61 61 64 65 63
32 37 30 47 72 87 100 100 96 98 100 98 85 84 91 98 99 100 100 99 99 99 90 87 86 87 85 79 75 68 68 66 64 64 65 65 66 66 64 68 63 62 59
36 36 37 53 55 82 96 100 94 92 94 99 96 93 100 97 96 98 99 94 95 98 92 86 84 87 83 74 74 78 84 69 63 66 69 68 66 66 65 67 65 60 58
49 40 53 63 69 99 96 96 98 99 100 94 99 98 99 100 100 100 90 81 83 86 88 82 88 86 77 73 74 70 92 90 84 74 72 69 66 69 71 72 68 63 60
46 39 57 74 91 100 96 100 99 98 97 93 94 98 99 100 99 89 85 80 67 62 63 68 76 74 76 77 79 75 80 74 82 81 72 72 72 71 72 73 74 71 66
60 72 82 82 94 87 95 100 100 100 93 92 96 98 94 96 100 98 91 77 76 70 66 96 70 73 71 78 77 83 90 91 77 76 83 78 73 69 69 72 71 70 73
76 80 93 91 96 87 89 96 99 97 93 95 98 100 100 100 100 100 100 100 100 96 83 77 58 62 74 81 80 83 80 90 96 96 94 88 81 72 71 74 77 81 82

GFSSE_925_rhum_117.txt.gz
RH
87 98 82 82 82 79 72 83 83 81 83 97 98 98 99 100 97 94 92 88 81 83 88 88 96 96 93 95 97 97 95 98 87 84 86 89 93 96 95 90 92 93 95
82 95 82 82 83 83 73 87 88 86 90 94 92 95 100 94 93 94 94 89 84 82 82 79 83 94 93 93 94 96 96 82 81 85 88 89 89 93 95 92 94 97 97
86 92 92 81 85 79 81 81 87 86 87 89 91 96 99 96 96 96 92 89 82 89 82 87 90 80 84 91 95 94 78 80 83 86 88 91 96 95 96 88 92 96 93
97 100 95 77 86 85 83 84 88 87 86 90 93 91 98 96 95 97 90 93 94 89 81 82 78 84 92 95 76 69 71 78 90 89 93 92 86 95 94 93 86 82 87
97 97 90 82 85 86 83 84 86 87 86 86 94 87 92 92 94 96 88 94 90 84 76 82 83 88 78 72 66 50 51 68 80 86 85 86 86 93 86 75 86 88 88
96 94 89 83 84 87 85 82 80 85 85 86 86 86 84 87 87 85 91 89 84 84 78 83 84 75 72 66 67 62 50 43 61 74 69 75 83 88 85 81 85 88 90
97 96 93 84 81 86 84 83 81 79 80 83 85 88 88 82 83 86 91 84 78 80 82 88 82 71 68 64 63 58 51 40 43 47 52 63 83 88 89 85 91 92 92
95 86 86 85 83 77 81 84 84 83 82 83 85 86 86 83 84 84 86 84 77 81 85 92 75 69 66 64 60 61 50 43 46 50 57 70 85 92 89 76 75 78 84
94 79 73 80 82 77 70 69 79 81 83 81 82 85 86 87 84 86 85 83 75 82 98 95 74 65 65 66 65 65 59 47 51 55 60 74 79 91 75 71 72 74 76
91 93 85 77 77 78 77 70 66 68 81 86 83 84 86 88 88 88 86 85 67 62 80 72 71 63 66 66 67 67 67 59 55 54 57 66 79 93 79 70 70 70 71
86 99 100 88 80 72 71 70 70 70 60 73 85 83 87 92 90 91 89 83 60 46 55 56 58 63 66 66 67 68 69 69 67 61 56 58 69 92 78 71 68 69 69
36 70 97 99 93 84 80 78 74 72 70 71 90 84 89 88 88 93 92 85 72 45 44 47 53 70 69 67 68 69 68 67 66 68 66 64 62 93 90 73 71 69 70
23 31 68 97 95 90 77 78 71 68 66 70 84 87 88 89 89 88 94 95 88 69 77 70 72 86 69 66 66 68 68 67 64 65 65 67 64 74 93 79 72 72 72
22 21 46 82 93 89 87 83 75 72 70 77 73 82 88 94 94 94 98 90 97 90 65 73 86 66 64 63 62 66 69 67 62 57 58 63 63 61 84 90 78 75 80
26 20 26 67 90 86 90 88 80 75 72 77 80 76 73 82 90 90 92 86 88 87 75 62 67 70 67 65 63 60 61 63 60 56 56 58 62 62 64 69 70 67 69
23 21 20 48 85 99 93 89 79 74 78 83 84 86 84 83 77 75 81 80 82 81 81 71 69 68 71 67 59 53 52 52 58 58 58 56 60 62 63 65 66 78 77
26 22 22 31 70 97 98 93 83 75 67 66 68 76 88 91 86 86 82 77 74 76 79 81 82 85 73 67 57 55 60 61 61 61 60 57 60 61 62 63 64 67 74
30 28 22 31 57 85 99 94 91 85 74 66 67 72 67 65 84 94 93 92 81 81 79 80 88 89 80 73 71 56 57 60 59 60 60 61 62 63 63 62 63 64 67
31 29 29 26 40 68 87 94 90 86 83 80 79 66 59 61 69 97 98 94 92 88 92 87 84 88 83 79 76 64 58 63 58 57 60 63 64 64 64 64 63 64 66
31 30 28 29 28 44 71 87 93 92 88 83 76 68 70 74 71 81 99 99 95 100 100 89 87 76 86 84 83 73 68 63 61 63 62 64 65 65 65 64 62 63 67
36 31 31 32 29 34 88 99 99 92 77 77 66 63 79 95 92 94 96 100 98 100 99 94 100 87 91 84 90 80 71 62 62 65 67 66 66 66 66 66 63 66 68
39 34 35 35 37 39 72 91 91 90 86 75 79 98 90 91 97 98 97 100 100 100 100 100 100 95 94 92 84 84 72 65 64 63 66 65 66 67 68 70 71 67 67
57 48 40 40 39 47 92 100 97 94 88 90 91 100 84 91 92 97 98 100 100 100 100 100 86 92 95 84 85 75 83 79 81 71 72 72 70 69 69 69 67 69 69
57 49 42 41 46 58 82 97 96 92 94 94 99 87 86 95 96 96 95 100 100 100 100 96 85 87 87 91 91 86 79 75 76 74 70 72 75 71 69 69 68 69 70
59 53 41 43 64 69 87 99 97 92 91 95 91 91 92 98 96 92 98 100 100 94 93 95 88 77 65 72 76 82 94 95 85 81 80 74 71 64 66 72 74 68 70
76 71 72 85 80 96 100 99 98 98 98 97 96 100 100 100 98 98 100 100 100 88 74 76 67 64 69 58 57 70 80 89 94 93 92 86 82 74 70 69 68 70 75

GFSSE_925_rhum_120.txt.gz
RH
76 86 85 82 84 81 79 82 81 82 83 91 91 95 98 98 96 92 89 87 92 95 95 97 97 93 96 97 97 96 96 94 82 87 86 90 92 96 94 91 89 87 93
77 86 84 80 80 76 81 81 81 80 84 88 89 90 96 99 95 94 90 88 85 89 88 96 97 95 95 97 97 98 95 82 83 83 80 83 88 92 96 93 90 91 92
79 85 82 82 76 74 66 80 83 81 85 88 87 87 98 97 96 94 94 89 86 83 81 93 93 89 89 96 96 96 78 79 81 80 81 74 89 95 97 89 94 88 89
81 88 74 83 81 81 68 78 83 80 83 86 87 86 97 97 97 96 92 89 89 80 86 87 80 81 83 93 88 79 75 78 80 78 64 65 73 96 95 86 86 87 88
82 90 80 82 85 84 80 78 83 82 82 85 85 85 90 93 95 94 93 91 90 78 79 76 79 88 89 78 72 67 72 84 83 75 70 69 65 82 83 84 87 90 88
86 81 90 84 89 86 82 82 84 85 83 81 87 86 85 88 84 86 92 92 88 78 74 79 82 79 75 67 66 48 57 70 76 71 67 69 64 82 89 91 88 93 94
89 85 87 85 87 88 85 83 81 86 84 84 85 88 87 82 85 87 85 87 85 79 76 82 80 74 70 73 79 57 43 49 62 61 61 63 71 90 93 95 94 93 93
95 90 81 86 85 89 88 85 83 81 82 83 84 87 86 83 84 83 88 83 82 78 79 82 73 74 72 71 74 58 45 46 57 58 63 68 78 93 94 91 81 87 91
99 97 85 84 86 77 84 84 85 85 83 81 82 86 85 86 84 84 86 82 80 72 80 88 72 75 73 77 66 62 48 49 58 60 64 68 75 94 92 77 77 78 76
98 99 97 86 88 85 80 70 66 78 76 81 81 84 86 88 85 84 86 84 79 67 74 95 76 72 72 75 72 67 60 48 57 66 64 68 75 94 90 74 74 72 71
60 93 99 94 95 86 80 76 66 60 63 72 85 84 85 86 89 90 91 92 82 68 80 84 76 70 73 71 73 71 68 63 60 58 60 61 69 94 92 76 71 70 69
35 44 84 99 96 94 88 85 81 82 81 75 77 80 85 75 73 83 92 90 82 60 69 72 71 70 70 68 75 75 74 64 62 64 64 61 61 90 94 78 72 70 71
35 37 43 82 98 95 98 95 84 83 86 75 69 74 79 76 80 89 97 98 93 82 76 77 75 70 69 65 65 65 64 66 61 63 66 65 63 64 94 94 77 73 74
37 35 37 58 92 96 97 90 81 89 82 76 80 75 78 81 85 87 94 93 89 89 77 63 58 60 67 71 64 64 64 65 62 59 57 61 63 64 77 93 94 79 75
37 36 34 44 79 93 98 86 82 89 80 85 78 78 81 78 80 84 93 94 91 87 85 71 63 65 75 71 64 62 57 57 58 56 56 58 60 62 63 66 76 79 79
30 34 36 40 57 88 96 92 78 76 88 84 87 88 85 86 88 88 83 87 86 90 88 82 72 68 74 70 66 59 56 53 54 56 58 57 58 60 62 63 64 66 71
31 34 35 39 49 74 89 95 87 76 81 88 91 93 94 92 93 83 86 84 83 81 87 90 78 77 70 71 71 61 55 52 53 54 58 60 60 60 61 62 62 63 64
37 37 38 35 43 63 86 98 95 84 74 76 84 83 83 87 94 99 88 85 85 86 91 92 85 86 88 77 67 63 62 57 58 57 57 60 63 65 66 62 62 62 63
37 38 39 40 40 59 77 98 99 98 89 77 80 85 85 77 81 89 93 90 82 93 98 98 94 89 87 83 80 68 65 63 59 57 55 55 63 69 69 70 63 64 64
40 41 40 38 38 42 64 90 100 99 98 88 79 77 81 84 74 77 80 84 89 96 97 97 95 96 88 81 83 76 69 66 66 62 60 58 60 69 73 72 72 67 62
49 47 43 40 37 40 50 73 97 100 96 91 92 84 79 78 82 84 83 85 96 95 97 99 98 97 99 94 89 89 81 69 67 66 61 64 65 71 73 76 76 75 73
50 47 46 43 41 41 48 61 74 81 80 79 86 91 88 83 81 86 89 92 93 97 95 99 100 100 100 98 82 81 80 54 54 63 56 63 64 70 74 68 70 77 82
50 49 45 42 45 43 49 56 79 86 88 86 84 85 87 88 90 90 92 93 95 98 100 100 99 100 97 99 81 78 88 67 70 72 67 74 78 76 76 74 79 80 77
55 54 58 52 46 48 52 63 79 88 82 77 77 83 98 95 90 90 95 95 91 98 100 100 100 100 97 92 99 93 83 82 80 73 68 68 74 78 74 72 78 78 74
59 63 67 59 53 53 58 67 77 88 85 78 85 88 88 92 94 94 99 98 96 95 98 100 100 100 100 91 88 86 98 91 93 90 81 65 76 68 66 74 85 74 76
63 71 71 60 56 58 63 70 77 83 91 90 91 94 94 99 99 98 100 100 100 100 99 100 100 100 97 95 89 78 72 88 91 94 90 73 75 78 80 78 76 72 75

GFSSE_925_rhum_123.txt.gz
RH
68 83 81 79 83 84 80 78 81 84 86 89 91 91 98 96 90 82 83 91 96 95 91 94 92 95 97 96 96 93 90 84 88 86 88 92 93 95 97 94 79 84 92
70 83 83 77 82 81 79 79 80 83 84 87 88 87 94 98 94 92 88 90 93 94 90 92 95 97 98 97 99 98 82 74 74 72 74 82 89 93 88 84 77 87 89
72 86 87 78 78 78 78 77 78 79 84 86 88 86 89 98 95 94 91 88 88 87 94 97 96 94 97 97 97 100 79 75 72 76 80 79 92 98 95 81 88 89 89
75 85 76 81 72 71 75 77 78 78 84 86 84 87 87 95 96 95 95 89 85 83 91 90 84 80 92 94 95 78 78 74 71 69 72 66 71 95 87 86 87 87 90
76 80 72 78 78 78 68 76 79 82 84 83 85 82 84 96 97 96 95 89 87 79 90 78 78 81 77 90 85 76 75 74 70 62 60 62 66 82 85 88 88 79 79
74 74 84 80 81 84 80 73 76 81 83 84 84 82 83 83 89 89 92 90 87 77 82 76 79 82 68 74 73 72 74 78 68 60 62 62 72 82 91 81 87 93 93
80 76 86 83 81 88 83 81 81 82 81 81 81 86 83 84 85 86 84 90 86 76 76 72 78 66 71 72 83 56 47 62 65 55 56 60 80 92 95 95 94 94 94
94 81 83 83 83 85 87 84 84 84 86 85 86 87 86 84 80 83 85 85 83 78 76 76 75 68 69 85 95 58 41 45 53 52 57 67 74 94 95 88 86 89 91
92 94 84 80 86 86 84 84 82 83 82 83 82 84 88 85 82 80 83 85 80 81 77 80 71 70 70 74 71 61 44 48 56 53 56 65 65 93 91 77 78 78 77
84 98 98 84 78 75 82 82 78 78 79 76 78 79 83 84 84 81 85 87 81 78 75 81 72 70 68 74 74 66 53 46 58 58 58 69 64 93 85 74 73 72 71
45 69 93 98 93 79 69 70 68 69 75 72 80 82 84 86 86 88 90 91 85 75 72 83 84 70 69 69 70 68 65 63 51 52 52 64 56 89 92 76 71 71 71
33 38 48 83 97 92 84 67 75 69 74 74 80 81 88 71 66 76 86 92 88 81 72 85 85 72 65 71 70 65 68 62 55 54 56 62 53 65 94 84 74 72 73
30 33 36 44 80 98 92 83 72 72 78 72 65 67 67 62 61 79 90 96 98 88 88 82 89 84 72 61 56 64 62 57 56 55 57 62 61 58 85 94 81 75 76
28 32 35 36 49 83 96 85 78 80 84 77 70 63 61 62 62 77 88 90 90 87 72 67 60 60 57 59 58 57 55 58 56 53 53 56 58 62 63 90 96 87 80
28 31 36 36 40 66 84 77 69 64 74 70 72 68 63 63 65 75 84 88 86 83 76 64 55 49 52 56 60 57 54 52 53 53 52 52 55 59 61 63 76 90 91
28 27 31 37 37 47 74 81 68 63 67 80 79 70 67 71 75 74 78 86 88 83 80 75 61 53 52 62 60 56 53 50 48 48 51 52 55 56 58 61 63 64 72
27 28 29 32 37 40 55 77 77 66 61 71 79 76 75 75 76 81 80 86 89 85 82 84 74 63 57 58 58 57 53 50 47 45 47 52 55 58 58 58 61 61 61
29 30 32 33 31 36 45 65 76 77 64 66 78 76 77 77 81 83 83 80 78 84 87 87 81 74 66 61 58 60 56 51 48 48 49 51 54 58 60 63 60 60 61
31 28 31 35 37 34 40 54 77 87 79 64 68 76 75 76 77 81 78 75 79 81 83 88 85 80 76 79 76 66 58 58 53 50 49 50 51 55 62 66 67 65 62
36 32 31 34 34 36 32 52 75 86 92 80 66 68 74 76 70 75 75 74 74 75 83 84 84 84 80 77 77 72 70 62 60 56 54 54 54 54 60 68 72 71 64
44 41 38 36 35 36 33 42 62 98 97 92 83 68 68 72 77 75 71 72 72 81 83 87 90 88 90 84 81 77 69 64 67 64 64 62 59 59 61 68 73 76 74
45 46 44 41 37 37 35 36 49 76 90 93 86 81 78 73 72 74 77 76 76 83 83 88 88 93 91 88 91 83 80 65 71 66 64 61 58 60 63 68 72 78 80
44 44 42 41 42 40 36 37 46 60 72 78 82 83 84 84 81 78 79 80 86 85 88 92 97 94 98 97 99 83 76 72 50 56 63 64 63 64 67 73 76 81 81
57 46 45 41 41 40 40 39 44 59 72 79 76 75 76 79 80 81 85 83 87 87 89 94 97 96 94 88 100 99 77 78 80 75 71 72 70 73 73 66 58 52 57
68 60 55 50 52 51 43 44 48 51 69 75 74 73 73 82 86 84 86 87 87 91 95 96 99 100 99 100 100 92 95 88 92 90 82 72 76 68 67 67 60 58 65
67 69 61 60 56 52 48 47 50 56 65 78 77 78 80 82 86 89 88 90 95 99 98 94 90 100 99 99 99 95 92 89 90 98 99 86 76 64 64 70 67 68 69